[[{"header":{"parameterUnit":"m.s-1","parameterCategory":1,"la1":30.6,"la2":28.766,"lo1":-90.7593,"lo2":-88.6598,"dy":0.0162,"dx":0.0183,"nx":116,"ny":114,"refTime":"2023-10-18T06:00:00:Z","depth":0,"parameterNumber":2,"parameterNumberName":"U-component_of_WINDS"},"data":[0.0,0.0,0.0,0.0,0.0,0.0,0.0,0.0,0.0,0.0,0.0,0.0,0.0,0.0,0.0,0.0,0.0,0.0,0.0,0.0,0.0,0.0,0.0,0.0,0.0,0.0,0.0,0.0,0.0,0.0,0.0,0.0,0.0,0.0,0.0,0.0,0.0,0.0,0.0,0.0,0.0,0.0,0.0,0.0,0.0,0.0,0.0,0.0,0.0,0.0,0.0,0.0,0.0,0.0,0.0,0.0,0.0,0.0,0.0,0.0,0.0,0.0,0.0,0.0,0.0,0.0,0.0,0.0,0.0,0.0,0.0,0.0,0.0,0.0,0.0,0.0,0.0,0.0,0.0,0.0,0.0,0.0,0.0,0.0,0.0,0.0,0.0,0.0,0.0,0.0,0.0,0.0,0.0,0.0,0.0,0.0,0.0,0.0,0.0,0.0,0.0,0.0,0.0,0.0,0.0,0.0,0.0,0.0,0.0,0.0,0.0,0.0,0.0,0.0,0.0,0.0,0.0,0.0,0.0,0.0,0.0,0.0,0.0,0.0,0.0,0.0,0.0,0.0,0.0,0.0,0.0,0.0,0.0,0.0,0.0,0.0,0.0,0.0,0.0,0.0,0.0,0.0,0.0,0.0,0.0,0.0,0.0,0.0,0.0,0.0,0.0,0.0,0.0,0.0,0.0,0.0,0.0,0.0,0.0,0.0,0.0,0.0,0.0,0.0,0.0,0.0,0.0,0.0,0.0,0.0,0.0,0.0,0.0,0.0,0.0,0.0,0.0,0.0,0.0,0.0,0.0,0.0,0.0,0.0,0.0,0.0,0.0,0.0,0.0,0.0,0.0,0.0,0.0,0.0,0.0,0.0,0.0,0.0,0.0,0.0,0.0,0.0,0.0,0.0,0.0,0.0,0.0,0.0,0.0,0.0,0.0,0.0,0.0,0.0,0.0,0.0,0.0,0.0,0.0,0.0,0.0,0.0,0.0,0.0,0.0,0.0,0.0,0.0,0.0,0.0,0.0,0.0,0.0,0.0,0.0,0.0,0.0,0.0,0.0,0.0,0.0,0.0,0.0,0.0,0.0,0.0,0.0,0.0,0.0,0.0,0.0,0.0,0.0,0.0,0.0,0.0,0.0,0.0,0.0,0.0,0.0,0.0,0.0,0.0,0.0,0.0,0.0,0.0,0.0,0.0,0.0,0.0,0.0,0.0,0.0,0.0,0.0,0.0,0.0,0.0,0.0,0.0,0.0,0.0,0.0,0.0,0.0,0.0,0.0,0.0,0.0,0.0,0.0,0.0,0.0,0.0,0.0,0.0,0.0,0.0,0.0,0.0,0.0,0.0,0.0,0.0,0.0,0.0,0.0,0.0,0.0,0.0,0.0,0.0,0.0,0.0,0.0,0.0,0.0,0.0,0.0,0.0,0.0,0.0,0.0,0.0,0.0,0.0,0.0,0.0,0.0,0.0,0.0,0.0,0.0,0.0,0.0,0.0,0.0,0.0,0.0,0.0,0.0,0.0,0.0,0.0,0.0,0.0,0.0,0.0,0.0,0.0,0.0,0.0,0.0,0.0,0.0,0.0,0.0,0.0,0.0,0.0,0.0,0.0,0.0,0.0,0.0,0.0,0.0,0.0,0.0,0.0,0.0,0.0,0.0,0.0,0.0,0.0,0.0,0.0,0.0,0.0,0.0,0.0,0.0,0.0,0.0,0.0,0.0,0.0,0.0,0.0,0.0,0.0,0.0,0.0,0.0,0.0,0.0,0.0,0.0,0.0,0.0,0.0,0.0,0.0,0.0,0.0,0.0,0.0,0.0,0.0,0.0,0.0,0.0,0.0,0.0,0.0,0.0,0.0,0.0,0.0,0.0,0.0,0.0,0.0,0.0,0.0,0.0,0.0,0.0,0.0,0.0,0.0,0.0,0.0,0.0,0.0,0.0,0.0,0.0,0.0,0.0,0.0,0.0,0.0,0.0,0.0,0.0,0.0,0.0,0.0,0.0,0.0,0.0,0.0,0.0,0.0,0.0,0.0,0.0,0.0,0.0,0.0,0.0,0.0,0.0,0.0,0.0,0.0,0.0,0.0,0.0,0.0,0.0,0.0,0.0,0.0,0.0,0.0,0.0,0.0,0.0,0.0,0.0,0.0,0.0,0.0,0.0,0.0,0.0,0.0,0.0,0.0,0.0,0.0,0.0,0.0,0.0,0.0,0.0,0.0,0.0,0.0,0.0,0.0,0.0,0.0,0.0,0.0,0.0,0.0,0.0,0.0,0.0,0.0,0.0,0.0,0.0,0.0,0.0,0.0,0.0,0.0,0.0,0.0,0.0,0.0,0.0,0.0,0.0,0.0,0.0,0.0,0.0,0.0,0.0,0.0,0.0,0.0,0.0,0.0,0.0,0.0,0.0,0.0,0.0,0.0,0.0,0.0,0.0,0.0,0.0,0.0,0.0,0.0,0.0,0.0,0.0,0.0,0.0,0.0,0.0,0.0,0.0,0.0,0.0,0.0,0.0,0.0,0.0,0.0,0.0,0.0,0.0,0.0,0.0,0.0,0.0,0.0,0.0,0.0,0.0,0.0,0.0,0.0,0.0,0.0,0.0,0.0,0.0,0.0,0.0,0.0,0.0,0.0,0.0,0.0,0.0,0.0,0.0,0.0,0.0,0.0,0.0,0.0,0.0,0.0,0.0,0.0,0.0,0.0,0.0,0.0,0.0,0.0,0.0,0.0,0.0,0.0,0.0,0.0,0.0,0.0,0.0,0.0,0.0,0.0,0.0,0.0,0.0,0.0,0.0,0.0,0.0,0.0,0.0,0.0,0.0,0.0,0.0,0.0,0.0,0.0,0.0,0.0,0.0,0.0,0.0,0.0,0.0,0.0,0.0,0.0,0.0,0.0,0.0,0.0,0.0,0.0,0.0,0.0,0.0,0.0,0.0,0.0,0.0,0.0,0.0,0.0,0.0,0.0,0.0,0.0,0.0,0.0,0.0,0.0,0.0,0.0,0.0,0.0,0.0,0.0,0.0,0.0,0.0,0.0,0.0,0.0,0.0,0.0,0.0,0.0,0.0,0.0,0.0,0.0,0.0,0.0,0.0,0.0,0.0,0.0,0.0,0.0,0.0,0.0,0.0,0.0,0.0,0.0,0.0,0.0,0.0,0.0,0.0,0.0,0.0,0.0,0.0,0.0,0.0,0.0,0.0,0.0,0.0,0.0,0.0,0.0,0.0,0.0,0.0,0.0,0.0,0.0,0.0,0.0,0.0,0.0,0.0,0.0,0.0,0.0,0.0,0.0,0.0,0.0,0.0,0.0,0.0,0.0,0.0,0.0,0.0,0.0,0.0,0.0,0.0,0.0,0.0,0.0,0.0,0.0,0.0,0.0,0.0,0.0,0.0,0.0,0.0,0.0,0.0,0.0,0.0,0.0,0.0,0.0,0.0,0.0,0.0,0.0,0.0,0.0,0.0,0.0,0.0,0.0,0.0,0.0,0.0,0.0,0.0,0.0,0.0,0.0,0.0,0.0,0.0,0.0,0.0,0.0,0.0,0.0,0.0,0.0,0.0,0.0,0.0,0.0,0.0,0.0,0.0,0.0,0.0,0.0,0.0,0.0,0.0,0.0,0.0,0.0,0.0,0.0,0.0,0.0,0.0,0.0,0.0,0.0,0.0,0.0,0.0,0.0,0.0,0.0,0.0,0.0,0.0,0.0,0.0,0.0,0.0,0.0,0.0,0.0,0.0,0.0,0.0,0.0,0.0,0.0,0.0,0.0,0.0,0.0,0.0,0.0,0.0,0.0,0.0,0.0,0.0,0.0,0.0,0.0,0.0,0.0,0.0,0.0,0.0,0.0,0.0,0.0,0.0,0.0,0.0,0.0,0.0,0.0,0.0,0.0,0.0,0.0,0.0,0.0,0.0,0.0,0.0,0.0,0.0,0.0,0.0,0.0,0.0,0.0,0.0,0.0,0.0,0.0,0.0,0.0,0.0,0.0,0.0,0.0,0.0,0.0,0.0,0.0,0.0,0.0,0.0,0.0,0.0,0.0,0.0,0.0,0.0,0.0,0.0,0.0,0.0,0.0,0.0,0.0,0.0,0.0,0.0,0.0,0.0,0.0,0.0,0.0,0.0,0.0,0.0,0.0,0.0,0.0,0.0,0.0,0.0,0.0,0.0,0.0,0.0,0.0,0.0,0.0,0.0,0.0,0.0,0.0,0.0,0.0,0.0,0.0,0.0,0.0,0.0,0.0,0.0,0.0,0.0,0.0,0.0,0.0,0.0,0.0,0.0,0.0,0.0,0.0,0.0,0.0,0.0,0.0,0.0,0.0,0.0,0.0,0.0,0.0,0.0,0.0,0.0,0.0,0.0,0.0,0.0,0.0,0.0,0.0,0.0,0.0,0.0,0.0,0.0,0.0,0.0,0.0,0.0,0.0,0.0,0.0,0.0,0.0,0.0,0.0,0.0,0.0,0.0,0.0,0.0,0.0,0.0,0.0,0.0,0.0,0.0,0.0,0.0,0.0,0.0,0.0,0.0,0.0,0.0,0.0,0.0,0.0,0.0,0.0,0.0,0.0,0.0,0.0,0.0,0.0,0.0,0.0,0.0,0.0,0.0,0.0,0.0,0.0,0.0,0.0,0.0,0.0,0.0,0.0,0.0,0.0,0.0,0.0,0.0,0.0,0.0,0.0,0.0,0.0,0.0,0.0,0.0,0.0,0.0,0.0,0.0,0.0,0.0,0.0,0.0,0.0,0.0,0.0,0.0,0.0,0.0,0.0,0.0,0.0,0.0,0.0,0.0,0.0,0.0,0.0,0.0,0.0,0.0,0.0,0.0,0.0,0.0,0.0,0.0,0.0,0.0,0.0,0.0,0.0,0.0,0.0,0.0,0.0,0.0,0.0,0.0,0.0,0.0,0.0,0.0,0.0,0.0,0.0,0.0,0.0,0.0,0.0,0.0,0.0,0.0,0.0,0.0,0.0,0.0,0.0,0.0,0.0,0.0,0.0,0.0,0.0,0.0,0.0,0.0,0.0,0.0,0.0,0.0,0.0,0.0,0.0,0.0,0.0,0.0,0.0,0.0,0.0,0.0,0.0,0.0,0.0,0.0,0.0,0.0,0.0,0.0,0.0,0.0,0.0,0.0,0.0,0.0,0.0,0.0,0.0,0.0,0.0,0.0,0.0,0.0,0.0,0.0,0.0,0.0,0.0,0.0,0.0,0.0,0.0,0.0,0.0,0.0,0.0,0.0,0.0,0.0,0.0,0.0,0.0,0.0,0.0,0.0,0.0,0.0,0.0,0.0,0.0,0.0,0.0,0.0,0.0,0.0,0.0,0.0,0.0,0.0,0.0,0.0,0.0,0.0,0.0,0.0,0.0,0.0,0.0,0.0,0.0,0.0,0.0,0.0,0.0,0.0,0.0,0.0,0.0,0.0,0.0,0.0,0.0,0.0,0.0,0.0,0.0,0.0,0.0,0.0,0.0,0.0,0.0,0.0,0.0,0.0,0.0,0.0,0.0,0.0,0.0,0.0,0.0,0.0,0.0,0.0,0.0,0.0,0.0,0.0,0.0,0.0,0.0,0.0,0.0,0.0,0.0,0.0,0.0,0.0,0.0,0.0,0.0,0.0,0.0,0.0,0.0,0.0,0.0,0.0,0.0,0.0,0.0,0.0,0.0,0.0,0.0,0.0,0.0,0.0,0.0,0.0,0.0,0.0,0.0,0.0,0.0,0.0,0.0,0.0,0.0,0.0,0.0,0.0,0.0,0.0,0.0,0.0,0.0,0.0,0.0,0.0,0.0,0.0,0.0,0.0,0.0,0.0,0.0,0.0,0.0,0.0,0.0,0.0,0.0,0.0,0.0,0.0,0.0,0.0,0.0,0.0,0.0,0.0,0.0,0.0,0.0,0.0,0.0,0.0,0.0,0.0,0.0,0.0,0.0,0.0,0.0,0.0,0.0,0.0,0.0,0.0,0.0,0.0,0.0,0.0,0.0,0.0,0.0,0.0,0.0,0.0,0.0,0.0,0.0,0.0,0.0,0.0,0.0,0.0,0.0,0.0,0.0,0.0,0.0,0.0,0.0,0.0,0.0,1.9737,2.0494,0.0,0.0,0.0,0.0,0.0,0.0,0.0,0.0,0.0,0.0,0.0,0.0,0.0,0.0,0.0,0.0,0.0,0.0,0.0,0.0,0.0,0.0,0.0,0.0,0.0,0.0,0.0,0.0,0.0,0.0,0.0,0.0,0.0,0.0,0.0,0.0,0.0,0.0,0.0,0.0,0.0,0.0,0.0,0.0,0.0,0.0,0.0,0.0,0.0,0.0,0.0,0.0,0.0,0.0,0.0,0.0,0.0,0.0,0.0,0.0,0.0,0.0,0.0,0.0,0.0,0.0,0.0,0.0,0.0,0.0,0.0,0.0,0.0,0.0,0.0,0.0,0.0,0.0,0.0,0.0,0.0,0.0,0.0,0.0,0.0,0.0,0.0,0.0,0.0,0.0,0.0,0.0,0.0,0.0,0.0,0.0,0.0,0.0,0.0,0.0,0.0,0.0,0.0,0.0,0.0,0.0,0.0,0.0,0.0,0.0,0.0,0.0,0.0,0.0,1.9801,2.0132,0.0,0.0,0.0,0.0,0.0,0.0,0.0,0.0,0.0,0.0,0.0,0.0,0.0,0.0,0.0,0.0,0.0,0.0,0.0,0.0,0.0,0.0,0.0,0.0,0.0,0.0,0.0,0.0,0.0,0.0,0.0,0.0,0.0,0.0,0.0,0.0,0.0,0.0,0.0,0.0,0.0,0.0,0.0,0.0,0.0,0.0,0.0,0.0,0.0,0.0,0.0,0.0,0.0,0.0,0.0,0.0,0.0,0.0,0.0,0.0,0.0,0.0,0.0,0.0,0.0,0.0,0.0,0.0,0.0,0.0,0.0,0.0,0.0,0.0,0.0,0.0,0.0,0.0,0.0,0.0,0.0,0.0,0.0,0.0,0.0,0.0,0.0,0.0,0.0,0.0,0.0,0.0,0.0,0.0,0.0,0.0,0.0,0.0,0.0,0.0,0.0,0.0,0.0,0.0,0.0,0.0,0.0,0.0,2.0357,2.0401,2.0582,2.0614,2.0298,1.9774,1.9883,1.9711,1.9464,2.091,0.0,0.0,0.0,0.0,0.0,0.0,0.0,0.0,0.0,0.0,0.0,0.0,0.0,0.0,0.0,0.0,0.0,0.0,0.0,0.0,0.0,0.0,0.0,0.0,0.0,0.0,0.0,0.0,0.0,0.0,0.0,0.0,0.0,0.0,0.0,0.0,0.0,0.0,1.0783,1.0376,1.0945,1.2349,0.0,0.0,0.0,0.0,0.0,0.0,0.0,0.0,0.0,0.0,0.0,0.0,0.0,0.0,0.0,0.0,0.0,0.0,0.0,0.0,0.0,0.0,0.0,0.0,0.0,0.0,0.0,0.0,0.0,0.0,0.0,0.0,0.0,0.0,0.0,0.0,0.0,0.0,0.0,0.0,0.0,0.0,0.0,0.0,1.868,1.9349,0.0,0.0,0.0,0.0,0.0,0.0,0.0,0.0,0.0,0.0,0.0,0.0,0.0,2.0589,2.0474,1.9808,1.9648,1.9988,1.94,1.9356,1.976,1.9882,1.9811,1.9627,1.9646,0.0,1.9579,1.9808,0.0,0.0,0.0,0.0,0.0,0.0,0.0,0.0,0.0,0.0,0.0,0.0,0.0,0.0,0.0,0.0,0.0,0.0,0.0,0.0,0.0,0.0,0.0,0.0,0.0,0.0,0.0,0.0,0.0,0.0,0.0,0.0,0.0,0.0,0.0,0.0,0.9669,0.9485,0.9282,0.9595,1.0118,1.0814,1.1533,1.247,1.3492,1.3492,0.0,0.0,0.0,0.0,0.0,0.0,0.0,0.0,0.0,0.0,0.0,0.0,0.0,0.0,0.0,0.0,0.0,0.0,0.0,0.0,0.0,0.0,0.0,0.0,0.0,0.0,0.0,0.0,0.0,0.0,0.0,0.0,0.0,0.0,0.0,0.0,0.0,0.0,0.0,1.8347,1.859,1.8838,1.8998,1.9164,0.0,0.0,0.0,0.0,0.0,0.0,0.0,0.0,0.0,2.0202,2.0103,1.9976,1.9869,1.948,1.9389,1.9563,1.928,1.9292,1.9589,1.9652,1.9652,1.9589,1.9589,1.9531,1.9473,1.9955,2.0373,2.0704,0.0,0.0,0.0,0.0,1.9765,1.9464,0.0,0.0,0.0,0.0,0.0,0.0,0.0,0.0,0.0,0.0,0.0,0.0,0.0,0.0,0.0,0.6843,0.0,0.0,0.0,0.0,0.0,0.0,0.0,0.0,0.0,0.0,0.0,0.0,0.9074,0.8756,0.8049,0.8842,0.933,0.9542,1.015,1.1329,1.29,1.3101,1.3193,0.0,0.0,0.0,0.0,0.0,0.0,0.0,0.0,0.0,0.0,0.0,0.0,0.0,0.0,0.0,0.0,0.0,0.0,0.0,0.0,0.0,0.0,0.0,0.0,0.0,0.0,0.0,0.0,0.0,0.0,0.0,0.0,0.0,0.0,0.0,0.0,0.0,0.0,1.8049,1.8124,1.8202,1.8185,1.8202,0.0,0.0,0.0,0.0,0.0,0.0,1.9626,1.9021,1.8886,1.9391,1.9282,1.9291,1.9443,1.9222,1.9217,1.9419,1.9165,1.9184,1.9459,1.9459,1.9459,1.9459,1.9459,1.9355,1.9288,1.9982,2.0293,2.0379,2.0676,2.052,2.0041,1.9554,1.9111,1.8737,0.0,0.0,0.0,0.0,0.0,0.0,0.0,0.0,0.0,0.0,0.0,0.0,0.0,0.0,0.6493,0.6697,0.693,0.7107,0.0,0.0,0.0,0.0,0.0,0.0,0.0,0.0,0.0,0.7876,0.7876,0.7861,0.7823,0.8068,0.8589,0.9315,0.9353,1.0051,1.1279,1.204,1.236,1.2434,0.0,0.0,0.0,0.0,0.0,0.0,0.0,0.0,0.0,0.0,0.0,0.0,0.0,0.0,0.0,0.0,0.0,0.0,0.0,0.0,0.0,0.0,0.0,0.0,0.0,0.0,0.0,0.0,0.0,0.0,0.0,0.0,0.0,0.0,0.0,0.0,0.0,0.0,0.0,1.794,1.7518,0.0,0.0,0.0,0.0,1.7698,1.7189,1.6961,1.7166,1.7143,1.7414,1.8064,1.8091,1.8667,1.9864,1.8994,1.8957,1.9754,1.8815,1.859,1.9025,1.9025,1.9025,1.9025,1.9025,1.9025,1.9031,1.9278,1.9479,1.9652,1.9668,1.9739,1.9791,1.9647,1.9574,1.9502,0.0,0.0,0.0,0.0,0.0,0.0,0.0,0.0,0.0,0.0,0.0,0.0,0.0,0.6518,0.6677,0.6882,0.7043,0.7204,0.7378,0.0,0.0,0.0,0.0,0.0,0.0,0.0,0.7542,0.7603,0.7742,0.7804,0.7804,0.801,0.8255,0.8532,0.8532,0.8761,0.925,1.0571,1.1149,1.1186,1.1595,1.2075,0.0,0.0,0.0,0.0,0.0,0.0,0.0,0.0,0.0,0.0,0.0,0.0,0.0,0.0,0.0,0.0,0.0,0.0,0.0,0.0,0.0,0.0,0.0,0.0,0.0,0.0,0.0,0.0,0.0,0.0,0.0,0.0,0.0,0.0,0.0,0.0,0.0,1.6786,1.6652,0.0,1.7115,1.7024,1.6967,1.7023,1.6846,1.6841,1.7102,1.7369,1.7726,1.8166,1.8499,1.8863,1.9311,1.9003,1.8977,1.9277,1.8918,1.8837,1.9007,1.9007,1.9007,1.9007,1.9007,1.9007,1.9008,1.9071,1.952,2.0144,2.0498,2.0663,2.0623,2.0025,1.979,1.9677,0.0,0.0,0.0,0.0,0.0,0.0,0.0,0.0,0.0,0.0,0.0,0.6404,0.6404,0.6574,0.6784,0.6989,0.7123,0.7278,0.7491,0.0,0.0,0.0,0.0,0.0,0.0,0.7503,0.7503,0.7503,0.7704,0.7799,0.7799,0.7991,0.806,0.806,0.806,0.8045,0.8063,0.9139,0.9775,1.0134,1.0546,1.118,1.1928,0.0,0.0,0.0,0.0,0.0,0.0,0.0,0.0,0.0,0.0,0.0,0.0,0.0,0.0,0.0,0.0,0.0,0.0,0.0,0.0,0.0,0.0,0.0,0.0,0.0,0.0,0.0,0.0,0.0,0.0,0.0,0.0,0.0,0.0,1.5979,1.571,1.629,1.6147,1.6223,1.6809,1.6632,1.6577,1.6786,1.6574,1.6577,1.6903,1.7177,1.7558,1.8077,1.8402,1.8765,1.9186,1.8891,1.8841,1.9104,1.8748,1.8657,1.8747,1.8747,1.8747,1.8747,1.8747,1.8747,1.8801,1.913,1.9644,2.021,2.0399,2.0458,2.0393,1.9813,1.9608,1.9473,0.0,0.0,0.0,0.0,0.0,0.0,0.0,0.0,0.0,0.0,0.6404,0.6404,0.6404,0.6578,0.6792,0.6989,0.7127,0.7287,0.7491,0.7503,0.0,0.0,0.0,0.0,0.7503,0.7507,0.7511,0.7511,0.7714,0.7808,0.7812,0.7939,0.7991,0.7991,0.7991,0.7923,0.7808,0.7808,0.836,0.9325,1.0102,1.0907,1.1644,0.0,0.0,0.0,0.0,0.0,0.0,0.0,0.0,0.0,0.0,0.0,0.0,0.0,0.0,0.0,0.0,0.0,0.0,0.0,0.0,0.0,0.0,0.0,0.0,0.0,0.0,0.0,0.0,0.0,0.0,0.0,0.0,0.0,1.6071,1.5556,1.5471,1.6527,1.6024,1.6007,1.7066,1.6535,1.6354,1.6946,1.6321,1.6067,1.6389,1.6426,1.6801,1.7672,1.7694,1.8291,1.9558,1.8655,1.8554,1.9265,1.8279,1.7999,1.8299,1.8299,1.8299,1.8299,1.8299,1.8299,1.8373,1.934,1.9747,1.9717,1.9246,1.9075,1.9075,1.905,1.9003,1.8965,0.0,0.0,0.0,0.0,0.0,0.0,0.0,0.0,0.0,0.0,0.6404,0.6404,0.6404,0.6709,0.6935,0.7001,0.7255,0.745,0.7499,0.0,0.0,0.0,0.0,0.0,0.7503,0.7633,0.7722,0.7722,0.7878,0.7943,0.7943,0.7992,0.7991,0.7991,0.7991,0.7988,0.7943,0.7943,0.8042,0.8236,0.8458,0.9022,0.9768,0.0,0.0,0.0,0.0,0.0,0.0,0.0,0.0,0.0,0.0,0.0,0.0,0.0,0.0,0.0,0.0,0.0,0.0,0.0,0.0,0.0,0.0,0.0,0.0,0.0,0.0,0.0,0.0,0.0,0.0,0.0,1.5149,1.4927,1.5648,1.513,1.4942,1.5668,1.5581,1.5758,1.6548,1.6438,1.6384,1.6541,1.6374,1.6404,1.6749,1.6763,1.7067,1.775,1.7765,1.8064,1.8651,1.8402,1.8372,1.8576,1.8289,1.8218,1.8299,1.8299,1.8299,1.8299,1.8299,1.8299,1.8323,1.8595,1.871,1.8845,2.0094,2.06,2.0532,1.9988,1.9071,1.8146,0.0,0.0,0.0,0.0,0.0,0.0,0.0,0.0,0.0,0.0,0.6404,0.6404,0.6404,0.6758,0.7006,0.7006,0.6974,0.7115,0.748,0.0,0.0,0.0,0.0,0.754,0.7617,0.7743,0.7837,0.7886,0.8044,0.813,0.813,0.8211,0.8243,0.8243,0.8243,0.8203,0.813,0.813,0.8028,0.787,0.7813,0.823,0.8889,0.9093,0.9801,1.0746,1.1304,1.1835,1.2378,1.2845,0.0,0.0,0.0,0.0,0.0,0.0,0.0,0.0,0.0,0.0,0.0,0.0,0.0,0.0,0.0,0.0,0.0,0.0,0.0,0.0,0.0,0.0,0.0,0.0,1.516,1.5116,1.5838,1.5332,1.5109,1.5745,1.5818,1.6023,1.6565,1.6617,1.6653,1.6762,1.6924,1.7078,1.7268,1.7408,1.7657,1.8006,1.8021,1.8108,1.8299,1.8299,1.8372,1.8503,1.8503,1.8577,1.8708,1.8708,1.8708,1.8708,1.8708,1.8708,1.8708,1.8708,1.8708,1.8805,0.0,0.0,0.0,0.0,1.8746,1.8018,0.0,0.0,0.0,0.0,0.0,0.0,0.0,0.0,0.0,0.0,0.0,0.6317,0.6383,0.6758,0.7006,0.7006,0.6596,0.6626,0.0,0.0,0.0,0.7211,0.7307,0.7453,0.7653,0.776,0.7894,0.8024,0.8231,0.8342,0.8346,0.8513,0.859,0.859,0.859,0.8497,0.8342,0.8342,0.8215,0.8028,0.7902,0.8149,0.8617,0.8765,0.941,1.0228,1.0527,1.1223,1.204,1.2224,0.0,0.0,0.0,0.0,0.0,0.0,0.0,0.0,0.0,0.0,0.0,0.0,0.0,0.0,0.0,0.0,0.0,0.0,0.0,0.0,0.0,0.0,0.0,0.0,1.549,1.5724,1.636,1.5943,1.5796,1.6404,1.647,1.6587,1.6976,1.7005,1.7114,1.739,1.7682,1.785,1.785,1.8145,0.0,0.0,0.0,1.8372,1.8408,1.8408,1.8555,1.8873,1.8873,1.9041,1.9356,1.9356,1.9371,1.9408,1.9408,1.9408,1.9408,1.9408,1.9393,1.929,1.865,1.8394,1.8357,1.8357,1.8335,1.8299,0.0,0.0,0.0,0.0,0.0,0.0,0.0,0.0,0.0,0.5596,0.5596,0.5798,0.6334,0.6758,0.7006,0.7006,0.7146,0.7015,0.0,0.0,0.5486,0.5486,0.6105,0.6549,0.6751,0.7546,0.8052,0.8235,0.8444,0.8537,0.8537,0.8574,0.859,0.859,0.859,0.857,0.8537,0.8537,0.8427,0.8231,0.8224,0.8115,0.7963,0.7827,0.8016,0.8441,0.9282,0.9825,1.0346,1.1811,1.2397,1.2654,1.3291,0.0,0.0,0.0,0.0,0.0,0.0,0.0,0.0,0.0,0.0,0.0,0.0,0.0,0.0,0.0,0.0,0.0,0.0,0.0,0.0,1.5818,1.603,1.6345,1.6749,1.6697,1.6668,1.6793,1.6807,1.7012,1.7574,1.7633,1.7765,1.8094,1.8174,1.8211,1.8211,1.8269,1.8423,1.8686,1.8694,1.8818,1.9107,1.9115,1.9144,1.921,1.921,0.0,1.9693,1.9693,1.9806,2.0028,2.0028,2.0028,2.0028,2.0028,1.9901,1.9657,1.9268,1.8953,1.8694,1.8694,1.8525,1.8299,0.0,0.0,0.0,0.0,0.0,0.0,0.0,0.0,0.0,0.0,0.4848,0.4993,0.5356,0.5643,0.5805,0.5843,0.6093,0.0,0.0,0.5002,0.5004,0.5004,0.5389,0.5717,0.5939,0.6442,0.6797,0.7006,0.7566,0.7852,0.7852,0.8366,0.859,0.859,0.859,0.859,0.859,0.859,0.8537,0.8444,0.835,0.813,0.7886,0.7711,0.7705,0.7876,0.8475,0.9093,0.975,1.075,1.1632,1.2378,1.2764,1.3181,1.3492,0.0,0.0,0.0,0.0,0.0,0.0,0.0,0.0,0.0,0.0,0.0,0.0,0.0,0.0,1.541,1.541,0.0,1.6221,1.636,1.6536,1.6799,1.729,1.7356,1.7356,1.7356,1.7356,1.753,1.8013,1.8057,1.813,1.8291,1.8452,1.8547,1.8547,1.8701,1.8895,1.903,1.9056,1.9137,1.9305,1.9466,1.9547,1.9547,1.9681,1.9842,1.9996,1.9996,2.0057,2.021,2.021,2.021,2.021,2.021,2.0115,1.9981,1.982,1.9455,1.9056,1.9056,1.8928,1.8789,0.0,0.0,0.0,0.0,0.0,0.0,0.0,0.0,0.0,0.0,0.4087,0.4154,0.4354,0.452,0.4642,0.0,0.0,0.0,0.0,0.4241,0.4516,0.4516,0.4671,0.4884,0.5131,0.5303,0.5485,0.5684,0.646,0.683,0.6852,0.7654,0.8142,0.83,0.83,0.841,0.859,0.859,0.859,0.8578,0.8427,0.8211,0.8,0.7882,0.7793,0.778,0.8006,0.8627,0.9377,0.9765,1.0756,1.1892,1.2206,1.2746,1.3305,1.3535,1.3605,0.0,0.0,0.0,0.0,0.0,0.0,0.0,0.0,1.5068,1.5167,1.5189,1.5276,1.5404,1.5634,1.5957,1.6267,1.6556,1.6677,1.6913,1.7448,1.7352,1.7336,1.7626,1.7802,1.8035,1.8364,1.8394,1.8423,1.8482,1.8738,1.8909,1.8909,1.9159,1.9201,1.8985,1.9017,1.8914,1.8704,1.9008,1.9279,1.9528,1.9752,2.002,2.0305,2.0305,2.0334,2.04,2.04,2.04,2.04,2.04,2.0356,2.0305,2.0305,1.9947,1.9462,1.9462,1.9462,1.9462,0.0,0.0,0.0,0.0,0.0,0.0,0.0,0.0,0.0,0.0,0.0,0.0,0.0,0.0,0.0,0.0,0.0,0.0,0.3811,0.3152,0.2784,0.2784,0.3521,0.3999,0.4144,0.4971,0.5465,0.5602,0.5777,0.5852,0.5852,0.5963,0.6473,0.7275,0.7275,0.7764,0.859,0.859,0.859,0.8586,0.8566,0.8346,0.7991,0.7992,0.7796,0.758,0.7968,0.8178,0.8441,0.952,1.0011,1.0425,1.1855,1.236,1.2635,1.3656,0.0,1.4015,1.4345,1.4618,1.4871,1.522,1.5329,1.533,0.0,1.4782,1.4304,1.4467,1.3882,1.3642,1.4728,1.5194,1.5432,1.5466,1.5876,1.6245,1.6427,1.5742,1.5714,1.7026,1.7817,1.8379,1.8701,1.8738,1.888,1.9173,1.9224,1.9246,1.9246,1.9283,1.8848,1.7819,1.7963,1.7579,1.655,1.6759,1.7444,1.8569,1.8603,1.932,2.0641,2.0641,2.0802,2.1101,2.1101,2.1101,2.1101,2.1101,2.0904,2.0641,2.0641,2.0422,2.0101,2.0101,2.0101,2.0101,0.0,0.0,0.0,0.0,0.0,0.0,0.0,0.0,0.0,0.0,0.0,0.0,0.0,0.0,0.0,0.0,0.0,0.0,0.3036,0.2705,0.2491,0.2491,0.2841,0.3089,0.3184,0.3563,0.383,0.3968,0.4548,0.4839,0.4897,0.5453,0.5919,0.6318,0.6852,0.7341,0.7764,0.8344,0.8529,0.8427,0.8427,0.8212,0.7886,0.7886,0.7727,0.7542,0.7819,0.808,0.0,0.0,0.9321,1.0116,1.1329,1.2049,1.2655,1.3928,1.4286,0.0,1.4026,1.4083,1.4103,1.3693,1.3508,1.3489,1.3726,1.3478,1.3337,1.3682,1.3593,1.3619,1.4135,1.4477,1.4769,1.4861,1.5087,1.5357,1.572,1.5451,1.5494,1.6298,1.6697,1.7222,1.8012,1.8104,1.8159,1.8311,1.77,1.7325,1.7325,1.7325,1.7165,1.6804,1.6863,1.6749,1.6378,1.6642,1.7057,1.7594,1.7729,1.8154,1.8787,1.8787,1.9263,2.0148,2.0888,2.1211,2.1211,2.1211,2.113,2.0977,2.0977,2.0925,2.0729,2.0349,2.021,2.021,0.0,0.0,0.0,0.0,0.0,0.0,0.0,0.0,0.0,0.0,0.0,0.0,0.0,0.0,0.0,0.0,0.0,0.0,0.0,0.2491,0.2491,0.2491,0.2491,0.2531,0.2575,0.2593,0.2644,0.2754,0.3453,0.3815,0.3875,0.4579,0.5036,0.5294,0.5983,0.6571,0.7061,0.7801,0.814,0.8215,0.8215,0.8053,0.78,0.78,0.7718,0.76,0.7817,0.8073,0.0,0.0,0.882,0.9706,1.0597,1.1452,1.2408,1.3753,1.4437,1.458,1.3817,1.3652,1.3465,1.2477,1.2188,1.2248,1.2526,1.2448,1.2439,1.2843,1.2834,1.2887,1.3208,1.3463,1.37,1.3916,1.4063,1.431,1.4769,1.4635,1.4664,1.5224,1.5221,1.5541,1.6432,1.6882,1.7127,1.7127,1.6372,1.5891,1.5857,1.5836,1.5739,1.5536,1.5666,1.5625,1.5376,1.5856,1.6211,1.6466,1.6774,1.7032,1.7296,1.7296,1.7793,1.8732,2.009,2.068,2.0709,2.1067,2.1211,2.1211,2.1211,2.1211,2.1152,2.0649,2.0473,2.0473,0.0,0.0,0.0,0.0,0.0,0.0,0.0,0.0,0.0,0.0,0.0,0.0,0.0,0.0,0.0,0.0,0.0,0.0,0.0,0.2491,0.2491,0.2491,0.2491,0.2491,0.2494,0.2571,0.2604,0.2606,0.2708,0.2738,0.2741,0.2844,0.3331,0.4143,0.4254,0.5222,0.6805,0.6843,0.7298,0.7999,0.7999,0.7914,0.78,0.78,0.7796,0.7812,0.8026,0.0,0.0,0.0,0.8598,0.8787,0.9583,1.0489,0.0,1.2845,1.4241,1.5123,1.4007,1.3698,1.3423,1.2285,1.2305,1.2583,1.2589,1.2097,1.17,1.1895,1.102,1.0564,1.173,1.1964,1.2045,1.2228,1.2699,1.3152,1.3414,1.2693,1.2508,1.3641,1.3533,1.3479,1.3776,1.5114,1.5941,1.5941,1.5914,1.5836,1.5711,1.5695,1.5149,1.3903,1.4374,1.3951,1.2547,1.3367,1.4262,1.5163,1.5505,1.6125,1.6997,1.6997,1.7026,1.7173,1.8703,1.9354,1.9441,2.068,2.1211,2.1211,2.1211,2.1211,2.1203,2.1189,2.1181,2.1181,0.0,0.0,0.0,0.0,0.0,0.0,0.0,0.0,0.0,0.0,0.0,0.0,0.0,0.0,0.0,0.0,0.0,0.0,0.0,0.2491,0.2491,0.2491,0.2491,0.2491,0.2491,0.253,0.2561,0.2601,0.2621,0.2653,0.2694,0.2713,0.288,0.3194,0.385,0.4452,0.5087,0.6292,0.688,0.7051,0.764,0.776,0.7597,0.7597,0.7694,0.7816,0.0,0.0,0.0,0.8263,0.8384,0.8761,0.9646,1.016,1.0678,1.2017,1.3199,1.3732,1.2083,1.1542,1.123,1.0362,1.0103,1.0207,1.064,1.0576,1.0498,1.0849,1.1162,1.1546,1.2123,1.2091,1.2137,1.2658,1.214,1.18,1.2168,1.1928,1.1891,1.2268,1.2241,1.2214,1.2296,1.3452,1.4256,1.4422,1.3749,1.3254,1.3119,1.3323,1.3271,1.2876,1.3042,1.2963,1.2593,1.2898,1.32,1.352,1.361,1.3844,1.4167,1.502,1.54,1.5488,1.6838,1.7424,1.7489,1.7892,1.858,1.9354,1.955,2.0134,2.0902,2.1117,2.1211,2.1211,0.0,0.0,0.0,0.0,0.0,0.0,0.0,0.0,0.0,0.0,0.0,0.0,0.0,0.0,0.0,0.0,0.0,0.0,0.0,0.0,0.2491,0.2491,0.2491,0.2491,0.2491,0.2491,0.2529,0.257,0.257,0.2589,0.2628,0.265,0.2649,0.2649,0.3287,0.3714,0.4071,0.5227,0.5987,0.6449,0.7005,0.7332,0.7503,0.7503,0.7617,0.0,0.0,0.0,0.0,0.8269,0.8394,0.8704,0.9321,0.9781,1.0349,1.1535,1.2376,1.2547,1.0923,1.042,1.0157,0.9279,0.9096,0.9281,0.9704,0.9834,0.9944,1.019,1.1017,1.1644,1.1443,1.1574,1.1791,1.1973,1.1359,1.0993,1.1375,1.1432,1.1432,1.1432,1.135,1.1322,1.1404,1.1996,1.2536,1.2916,1.2316,1.1868,1.1757,1.2001,1.2161,1.2183,1.2277,1.2333,1.2393,1.2603,1.2689,1.2689,1.2569,1.2509,1.2539,1.3366,1.3745,1.3805,1.5217,1.5832,1.5862,1.6304,1.6985,1.7729,1.7898,1.848,1.9219,1.9428,1.9521,1.9666,0.0,0.0,0.0,0.0,0.0,0.0,0.0,0.0,0.0,0.0,0.0,0.0,0.0,0.0,0.0,0.0,0.0,0.0,0.0,0.0,0.0,0.2491,0.2491,0.2491,0.2491,0.2491,0.2491,0.2491,0.2491,0.2491,0.2493,0.257,0.2565,0.2514,0.2611,0.3081,0.3811,0.3889,0.4802,0.6202,0.624,0.6765,0.7503,0.7503,0.0,0.0,0.0,0.0,0.0,0.8529,0.859,0.859,0.859,0.9379,1.0443,1.1279,1.1713,1.1649,1.0518,1.033,1.0159,0.909,0.9314,0.9788,0.9796,0.9888,0.9969,0.9969,1.0621,1.0886,0.9879,1.0527,1.099,1.0384,1.0447,1.0704,1.1008,1.1067,1.1076,1.1076,1.0857,1.0802,1.1044,1.0857,1.0939,1.1514,1.1693,1.1748,1.1676,1.1808,1.1878,1.1802,1.2066,1.2062,1.1806,1.2367,1.2664,1.2664,1.2328,1.2178,1.2178,1.2178,1.2178,1.2268,1.3775,1.4455,1.4545,1.5749,1.6304,1.6362,1.6362,1.6421,1.648,1.648,1.651,1.6921,0.0,0.0,0.0,0.0,0.0,0.0,0.0,0.0,0.0,0.0,0.0,0.0,0.0,0.0,0.0,0.0,0.0,0.0,0.0,0.0,0.0,0.0,0.0,0.0,0.0,0.0,0.0,0.0,0.0,0.2491,0.2491,0.2526,0.2525,0.2531,0.3192,0.3599,0.3869,0.5074,0.5832,0.626,0.0,0.7307,0.7503,0.0,0.0,0.0,0.0,0.0,0.0,0.8529,0.859,0.859,0.859,0.9253,0.992,0.9515,0.9876,1.0253,0.942,0.9203,0.9241,0.9243,0.9382,0.9533,0.9624,0.9665,0.9698,0.9698,1.0498,1.1173,1.1093,1.114,1.1262,1.1454,1.0802,1.0373,1.0549,1.072,1.0802,1.0802,1.0747,1.0719,1.0802,1.0747,1.0747,1.0911,1.128,1.1438,1.1327,1.1687,1.1878,1.1802,1.1863,1.1863,1.1806,1.1953,1.2044,1.2044,1.1953,1.1893,1.1893,1.1893,1.1893,1.1919,1.2337,1.2513,1.2543,1.287,1.3545,1.4431,1.4624,1.5306,1.6168,1.6398,1.651,1.6598,0.0,0.0,0.0,0.0,0.0,0.0,0.0,0.0,0.0,0.0,0.0,0.0,0.0,0.0,0.0,0.0,0.0,0.0,0.0,0.0,0.0,0.0,0.0,0.0,0.0,0.0,0.0,0.0,0.0,0.0,0.0,0.2491,0.2705,0.3093,0.3579,0.3986,0.4377,0.0,0.0,0.0,0.0,0.0,0.0,0.0,0.0,0.0,0.0,0.0,0.0,0.8407,0.8468,0.8484,0.8566,0.8933,0.9235,0.874,0.8955,0.9235,0.8816,0.8824,0.8991,0.9217,0.9384,0.9502,0.9579,0.9603,0.9603,0.9603,1.0449,1.109,1.0773,1.0989,1.1155,1.105,1.0497,1.0158,1.0369,1.049,1.0607,1.0684,1.0692,1.0692,1.0692,1.0692,1.0692,1.0692,1.1072,1.1289,1.1187,1.1623,1.185,1.1802,1.1806,1.1806,1.1806,1.1806,1.1806,1.1806,1.1806,1.1806,1.1806,1.1806,1.1806,1.1806,1.1806,1.1806,1.1806,1.1806,1.2221,1.287,1.3041,1.3515,1.4167,1.4371,1.4431,1.4431,0.0,0.0,0.0,0.0,0.0,0.0,0.0,0.0,0.0,0.0,0.0,0.0,0.0,0.0,0.0,0.0,0.0,0.0,0.0,0.0,0.0,0.0,0.0,0.0,0.0,0.0,0.0,0.0,0.0,0.0,0.0,0.0,0.0,0.0,0.0,0.0,0.0,0.0,0.0,0.0,0.0,0.0,0.0,0.0,0.0,0.0,0.0,0.0,0.0,0.0,0.8268,0.8342,0.8533,0.859,0.859,0.859,0.859,0.8594,0.8619,0.8847,0.9068,0.9092,0.9328,0.9539,0.9563,0.9567,0.9575,0.9599,1.033,1.069,0.9772,1.035,1.0744,0.9974,0.9893,1.0006,1.0324,1.0393,1.047,1.0672,1.0692,1.0692,1.0692,1.0692,1.0692,1.0692,1.1001,1.1171,1.1191,1.1573,1.1806,1.1806,1.1806,1.1806,1.1806,1.1806,1.1806,1.1806,1.1806,1.1806,1.1806,1.1806,1.1806,1.1806,1.1806,1.1806,1.1806,1.1806,1.1806,1.1806,1.1806,1.1806,1.1806,1.1806,1.1806,1.1806,0.0,0.0,0.0,0.0,0.0,0.0,0.0,0.0,0.0,0.0,0.0,0.0,0.0,0.0,0.0,0.0,0.0,0.0,0.0,0.0,0.0,0.0,0.0,0.0,0.0,0.0,0.0,0.0,0.0,0.0,0.0,0.0,0.0,0.0,0.0,0.0,0.0,0.0,0.0,0.0,0.0,0.0,0.0,0.0,0.0,0.0,0.0,0.0,0.0,0.0,0.8162,0.8342,0.8533,0.859,0.859,0.859,0.859,0.8623,0.8739,0.8797,0.8882,0.906,0.9145,0.9226,0.9392,0.9429,0.947,0.9571,0.9747,0.9821,0.9628,0.9747,0.983,0.9669,0.9791,0.9987,1.0202,1.0339,1.047,1.0672,1.0692,1.0692,1.0692,1.0692,1.0692,1.0692,1.0919,1.1074,1.1183,1.1573,1.1806,1.1806,1.1806,1.1806,1.1806,1.1806,1.1806,1.1806,1.1806,1.1806,1.1806,1.1806,1.1806,1.1806,1.1806,1.1806,1.1806,1.1806,1.1806,1.1806,1.1806,1.1806,1.1806,1.1806,1.1806,1.1806,0.0,0.0,0.0,0.0,0.0,0.0,0.0,0.0,0.0,0.0,0.0,0.0,0.0,0.0,0.0,0.0,0.0,0.0,0.0,0.0,0.0,0.0,0.0,0.0,0.0,0.0,0.2491,0.2491,0.0,0.2723,0.3171,0.3171,0.3852,0.5074,0.0,0.0,0.0,0.0,0.0,0.0,0.0,0.0,0.0,0.0,0.0,0.0,0.0,0.0,0.0,0.0,0.7959,0.8081,0.8358,0.8509,0.859,0.859,0.859,0.8606,0.8688,0.8751,0.8818,0.893,0.9023,0.912,0.9225,0.9246,0.9295,0.9474,0.9486,0.9514,0.9587,0.9603,0.9603,0.9603,0.9672,0.9815,1.0019,1.0202,1.0359,1.0511,1.0639,1.0692,1.0692,1.0692,1.0692,1.0692,1.0894,1.107,1.1183,1.1573,1.1806,1.1806,1.1806,1.1806,1.1806,1.1806,1.1806,1.1806,1.1806,1.1806,1.1806,1.1806,1.1806,1.1806,1.1806,1.1806,1.1806,1.1806,1.1806,1.1806,1.1806,1.1806,1.1806,1.1806,1.1806,1.1806,0.0,0.0,0.0,0.0,0.0,0.0,0.0,0.0,0.0,0.0,0.0,0.0,0.0,0.0,0.0,0.0,0.0,0.0,0.0,0.0,0.0,0.0,0.0,0.0,0.0,0.0,0.0,0.2784,0.2784,0.0,0.0,0.0,0.0,0.0,0.6202,0.6688,0.7503,0.0,0.0,0.0,0.0,0.7503,0.0,0.0,0.0,0.0,0.0,0.0,0.0,0.0,0.7767,0.7857,0.8151,0.8378,0.8537,0.8578,0.859,0.859,0.859,0.8688,0.8767,0.8767,0.8877,0.8995,0.9031,0.9039,0.9088,0.9286,0.9375,0.9421,0.9543,0.9575,0.9603,0.9603,0.9603,0.9664,0.986,1.0072,1.0255,1.0385,1.0586,1.0692,1.0692,1.0692,1.0692,1.0692,1.0894,1.109,1.1244,1.1593,1.1806,1.1806,1.1806,1.1806,1.1806,1.1806,1.1806,1.1806,1.1806,1.1806,1.1806,1.1806,1.1806,1.1806,1.1806,1.1806,1.1806,1.1806,1.1806,1.1806,1.1806,1.1806,1.1806,1.1806,1.1806,1.1806,0.0,0.0,0.0,0.0,0.0,0.0,0.0,0.0,0.0,0.0,0.0,0.0,0.0,0.0,0.0,0.0,0.0,0.0,0.0,0.0,0.0,0.0,0.0,0.0,0.0,0.0,0.0,0.3677,0.3677,0.0,0.0,0.0,0.0,0.0,0.0,0.6688,0.7503,0.7503,0.0,0.0,0.0,0.0,0.0,0.0,0.0,0.0,0.0,0.7503,0.7503,0.0,0.7642,0.7833,0.7979,0.8166,0.837,0.8541,0.859,0.859,0.859,0.8598,0.8615,0.8615,0.8627,0.868,0.8812,0.8822,0.8874,0.9084,0.927,0.9408,0.9424,0.9514,0.9603,0.9603,0.9603,0.9664,0.986,1.0072,1.0255,1.0385,1.0586,1.0692,1.0692,1.0692,1.0692,1.0692,1.0894,1.1147,1.1455,1.1667,1.1806,1.1806,1.1806,1.1806,1.1806,1.1806,1.1806,1.1806,1.1806,1.1806,1.1806,1.1806,1.1806,1.1806,1.1806,1.1806,1.1806,1.1806,1.1806,1.1806,1.1806,1.1806,1.1806,1.1806,1.1806,1.1806,0.0,0.0,0.0,0.0,0.0,0.0,0.0,0.0,0.0,0.0,0.0,0.0,0.0,0.0,0.0,0.0,0.0,0.0,0.0,0.0,0.0,0.0,0.0,0.0,0.0,0.0,0.3997,0.4339,0.4462,0.0,0.0,0.0,0.0,0.0,0.0,0.7173,0.7503,0.7503,0.0,0.0,0.0,0.0,0.0,0.0,0.0,0.0,0.0,0.0,0.7503,0.7503,0.7552,0.7646,0.7825,0.7983,0.0,0.8501,0.859,0.859,0.859,0.859,0.859,0.859,0.859,0.8606,0.8676,0.8692,0.8718,0.8893,0.8986,0.9119,0.9363,0.9437,0.9498,0.9583,0.9603,0.9628,0.9721,1.0007,1.0215,1.0262,1.0521,1.0692,1.0692,1.0692,1.0692,1.0692,1.0894,1.1102,1.1321,1.1508,1.1663,1.1802,1.1806,1.1806,1.1806,1.1806,1.1806,1.1806,1.1806,1.1806,1.1806,1.1806,1.1806,1.1806,1.1806,1.1806,1.1806,1.1806,1.1806,1.1806,1.1806,1.1806,1.1806,1.1806,1.1806,1.1806,0.0,0.0,0.0,0.0,0.0,0.0,0.0,0.0,0.0,0.0,0.0,0.0,0.0,0.0,0.0,0.0,0.0,0.0,0.0,0.0,0.0,0.0,0.0,0.0,0.0,0.0,0.4784,0.5078,0.523,0.5736,0.0,0.0,0.6919,0.7503,0.0,0.0,0.0,0.0,0.0,0.0,0.0,0.0,0.0,0.0,0.0,0.0,0.0,0.0,0.0,0.0,0.0,0.7536,0.0,0.0,0.0,0.0,0.8545,0.859,0.859,0.859,0.859,0.859,0.859,0.859,0.859,0.859,0.8623,0.8723,0.8761,0.8913,0.9246,0.9367,0.9441,0.0,0.0,0.9603,0.9603,0.9937,1.0186,1.0186,1.0504,1.0692,1.0692,1.0692,1.0692,1.0692,1.0842,1.0992,1.1139,1.1317,1.1529,1.1798,1.1806,1.1806,1.1806,1.1806,1.1806,1.1806,1.1806,1.1806,1.1806,1.1806,1.1806,1.1806,1.1806,1.1806,1.1806,1.1806,1.1806,1.1806,1.1806,1.1806,1.1806,1.1806,1.1806,1.1806,0.0,0.0,0.0,0.0,0.0,0.0,0.0,0.0,0.0,0.0,0.0,0.0,0.0,0.0,0.0,0.0,0.0,0.0,0.0,0.0,0.0,0.0,0.0,0.0,0.0,0.0,0.4997,0.5995,0.5995,0.6509,0.7484,0.7484,0.7484,0.7503,0.0,0.0,0.0,0.0,0.0,0.0,0.0,0.0,0.0,0.0,0.0,0.0,0.0,0.0,0.0,0.0,0.0,0.0,0.0,0.7898,0.8048,0.0,0.8444,0.859,0.859,0.859,0.859,0.859,0.859,0.859,0.859,0.859,0.859,0.859,0.8706,0.8854,0.9064,0.9262,0.9441,0.9575,0.9603,0.0,0.9603,0.9937,1.0186,1.0186,1.0504,1.0692,1.0692,1.0692,1.0692,1.0692,1.0692,1.0801,1.0992,1.1135,1.1395,1.1794,1.1806,1.1806,1.1806,1.1806,1.1806,1.1806,1.1806,1.1806,1.1806,1.1806,1.1806,1.1806,1.1806,1.1806,1.1806,1.1806,1.1806,1.1806,1.1806,1.1806,1.1806,1.1806,1.1806,1.1806,0.0,0.0,0.0,0.0,0.0,0.0,0.0,0.0,0.0,0.0,0.0,0.0,0.0,0.0,0.0,0.0,0.0,0.0,0.0,0.0,0.0,0.0,0.0,0.0,0.0,0.0,0.0,0.6469,0.6711,0.6988,0.7291,0.7427,0.7503,0.7503,0.7503,0.7503,0.0,0.0,0.0,0.0,0.0,0.0,0.7503,0.0,0.0,0.0,0.0,0.0,0.0,0.0,0.0,0.0,0.0,0.0,0.0,0.8048,0.8342,0.859,0.859,0.859,0.859,0.859,0.859,0.859,0.859,0.859,0.859,0.859,0.8631,0.8702,0.8877,0.9056,0.9262,0.9437,0.9547,0.9603,0.9603,0.9827,1.0044,1.0174,1.0504,1.0692,1.0692,1.0692,1.0692,1.0692,1.0692,1.0801,1.0988,1.1049,1.1245,1.1577,1.1741,1.1806,1.1806,1.1806,1.1806,1.1806,1.1806,1.1806,1.1806,1.1806,1.1806,1.1806,1.1806,1.1806,1.1806,1.1806,1.1806,1.1806,1.1806,1.1806,1.1806,1.1806,1.1806,1.1806,0.0,0.0,0.0,0.0,0.0,0.0,0.0,0.0,0.0,0.0,0.0,0.0,0.0,0.0,0.0,0.0,0.0,0.0,0.0,0.0,0.0,0.0,0.0,0.0,0.0,0.0,0.6632,0.6701,0.698,0.7159,0.721,0.7403,0.7503,0.7503,0.7503,0.7503,0.0,0.0,0.0,0.0,0.0,0.0,0.7503,0.0,0.0,0.0,0.0,0.0,0.0,0.0,0.0,0.0,0.0,0.0,0.0,0.0,0.8195,0.8501,0.857,0.859,0.859,0.859,0.859,0.859,0.859,0.859,0.859,0.859,0.859,0.8643,0.8765,0.897,0.9176,0.9375,0.9506,0.9603,0.9603,0.9774,1.0007,1.0263,1.0517,1.0692,1.0692,1.0692,1.0692,1.0692,1.0692,1.0745,1.0886,1.096,1.1098,1.1293,1.157,1.1701,1.1701,1.1774,1.1806,1.1806,1.1806,1.1806,1.1806,1.1806,1.1806,1.1806,1.1806,1.1806,0.0,1.1806,1.1806,1.1806,1.1806,1.1806,1.1806,1.1806,1.1806,1.1806,0.0,0.0,0.0,0.0,0.0,0.0,0.0,0.0,0.0,0.0,0.0,0.0,0.0,0.0,0.0,0.0,0.0,0.0,0.0,0.0,0.0,0.0,0.0,0.0,0.0,0.6404,0.6489,0.6676,0.6886,0.7047,0.7193,0.7382,0.7491,0.7503,0.7503,0.7503,0.7503,0.7503,0.7503,0.7503,0.7503,0.7503,0.0,0.0,0.0,0.0,0.0,0.0,0.0,0.0,0.0,0.0,0.0,0.0,0.0,0.0,0.0,0.0,0.0,0.8578,0.859,0.859,0.859,0.859,0.859,0.859,0.0,0.859,0.859,0.8639,0.8775,0.8962,0.9172,0.9359,0.9498,0.9603,0.9603,0.9786,1.003,1.0349,1.0578,1.0692,1.0692,1.0692,1.0692,1.0692,1.0692,1.0692,1.0692,1.0882,1.098,1.098,1.1281,1.1468,1.148,1.1692,1.1786,1.1786,1.1798,1.1806,1.1806,1.1806,1.1806,1.1806,1.1806,1.1806,1.1806,1.1806,1.1806,1.1806,1.1806,1.1806,1.1806,1.1806,1.1806,1.1806,0.0,0.0,0.0,0.0,0.0,0.0,0.0,0.0,0.0,0.0,0.0,0.0,0.0,0.0,0.0,0.0,0.0,0.0,0.0,0.0,0.0,0.0,0.0,0.0,0.0,0.6404,0.6424,0.6468,0.6668,0.6864,0.7057,0.72,0.7358,0.7503,0.7503,0.7503,0.7503,0.7503,0.7503,0.7503,0.7503,0.7503,0.0,0.0,0.0,0.0,0.7503,0.7503,0.0,0.0,0.0,0.0,0.0,0.0,0.0,0.0,0.7861,0.7996,0.8289,0.0,0.859,0.859,0.859,0.859,0.0,0.0,0.0,0.0,0.0,0.0,0.0,0.8885,0.9112,0.9176,0.9421,0.9603,0.9603,0.99,1.0158,1.0243,1.0528,1.0692,1.0692,1.0692,1.0692,1.0692,1.0692,1.0692,1.0692,1.0733,1.0757,1.0757,1.1004,1.1184,1.1256,1.1472,1.1565,1.1565,1.1737,1.1806,1.1806,1.1806,1.1806,1.1806,1.1806,1.1806,1.1806,1.1806,1.1806,1.1806,1.1806,1.1806,1.1806,1.1806,1.1806,1.1806,0.0,0.0,0.0,0.0,0.0,0.0,0.0,0.0,0.0,0.0,0.0,0.0,0.0,0.0,0.0,0.0,0.0,0.0,0.0,0.0,0.0,0.0,0.0,0.0,0.0,0.6404,0.6404,0.6404,0.6701,0.6894,0.7014,0.7239,0.7395,0.7503,0.7503,0.7458,0.737,0.7467,0.7503,0.7503,0.7503,0.0,0.0,0.0,0.0,0.0,0.7503,0.7503,0.0,0.7503,0.7503,0.7503,0.0,0.0,0.0,0.0,0.7735,0.7861,0.8089,0.83,0.8484,0.857,0.859,0.859,0.859,0.0,0.0,0.0,0.0,0.0,0.0,0.8879,0.9096,0.9096,0.9372,0.9632,0.9734,1.0011,1.0219,1.0278,1.0526,1.0692,1.0692,1.0692,1.0692,1.0692,1.0692,1.0692,1.0692,1.0692,1.0692,1.0692,1.0817,1.0928,1.1106,1.1281,1.137,1.1374,1.1561,1.165,1.1684,1.177,1.1806,1.1806,1.1806,1.1806,1.1806,1.1806,1.1806,1.1806,1.1806,1.1806,1.1806,1.1806,1.1806,1.1806,0.0,0.0,0.0,0.0,0.0,0.0,0.0,0.0,0.0,0.0,0.0,0.0,0.0,0.0,0.0,0.0,0.0,0.0,0.0,0.0,0.0,0.0,0.0,0.0,0.6404,0.6404,0.6404,0.6404,0.677,0.6963,0.7014,0.7308,0.7475,0.7503,0.7503,0.7403,0.7258,0.7419,0.7503,0.7503,0.7503,0.0,0.0,0.0,0.0,0.0,0.0,0.0,0.0,0.7503,0.7503,0.7503,0.7503,0.0,0.0,0.0,0.0,0.0,0.7927,0.8109,0.8322,0.8537,0.859,0.859,0.859,0.0,0.0,0.0,0.0,0.0,0.0,0.89,0.9104,0.9133,0.9389,0.9664,0.986,1.0072,1.0255,1.0385,1.0586,1.0692,1.0692,1.0692,1.0692,1.0692,1.0692,1.0692,1.0692,1.0692,1.0692,1.0692,1.0692,1.0765,1.0951,1.1098,1.1183,1.1159,1.137,1.1455,1.1464,1.165,1.1766,1.1766,1.1794,1.1806,1.1806,1.1806,1.1806,1.1806,1.1806,1.179,1.1766,1.1766,1.1715,1.1721,0.0,0.0,0.0,0.0,0.0,0.0,0.0,0.0,0.0,0.0,0.0,0.0,0.0,0.0,0.0,0.0,0.0,0.0,0.0,0.0,0.0,0.0,0.0,0.6404,0.6404,0.6404,0.6404,0.6404,0.6631,0.6827,0.701,0.7167,0.7342,0.7503,0.7503,0.7487,0.7462,0.7491,0.7503,0.7503,0.7503,0.0,0.0,0.0,0.0,0.0,0.0,0.0,0.0,0.7503,0.7503,0.7503,0.7503,0.0,0.0,0.0,0.0,0.0,0.7788,0.7947,0.8138,0.8505,0.859,0.859,0.859,0.0,0.0,0.0,0.0,0.0,0.0,0.8954,0.9145,0.9315,0.949,0.9664,0.986,1.0072,1.0255,1.0385,1.0586,1.0692,1.0692,1.0692,1.0692,1.0692,1.0692,1.0692,1.0692,1.0692,1.0692,1.0692,1.0692,1.0704,1.0764,1.0943,1.1037,1.1037,1.1183,1.1236,1.1244,1.1455,1.1541,1.1549,1.1737,1.1806,1.1806,1.1806,1.1806,1.1806,1.1806,1.1713,1.1541,1.1541,1.1443,1.128,0.0,0.0,0.0,0.0,0.0,0.0,0.0,0.0,0.0,0.0,0.0,0.0,0.0,0.0,0.0,0.0,0.0,0.0,0.0,0.0,0.0,0.0,0.6404,0.6404,0.6404,0.6404,0.6452,0.6566,0.6766,0.6945,0.7102,0.7281,0.7358,0.7346,0.7462,0.7431,0.735,0.7462,0.7503,0.7503,0.0,0.0,0.0,0.0,0.0,0.0,0.0,0.0,0.0,0.0,0.7863,0.7503,0.7503,0.0,0.0,0.0,0.0,0.0,0.7747,0.7906,0.8077,0.837,0.8513,0.859,0.0,0.0,0.0,0.0,0.0,0.0,0.0,0.897,0.9185,0.9458,0.9547,0.9701,1.0019,1.0133,1.0288,1.0542,1.0643,1.0692,1.0692,1.0692,1.0692,1.0692,1.0692,1.0692,1.0692,1.0692,1.0692,1.0692,1.0692,1.0692,1.0692,1.0777,1.085,1.085,1.1001,1.1086,1.109,1.1269,1.135,1.1354,1.1439,1.148,1.148,1.148,1.148,1.148,1.148,1.1423,1.135,1.135,1.1264,1.1195,0.0,0.0,0.0,0.0,0.0,0.0,0.0,0.0,0.0,0.0,0.0,0.0,0.0,0.0,0.0,0.0,0.0,0.0,0.0,0.0,0.6404,0.6404,0.6404,0.6404,0.6404,0.6404,0.6493,0.6696,0.6906,0.7084,0.727,0.7419,0.7411,0.7274,0.7423,0.7411,0.7293,0.7637,0.7787,0.7806,0.0,0.0,0.0,0.0,0.0,0.0,0.0,0.0,0.0,0.0,0.0,0.0,0.0,0.0,0.0,0.7787,0.7787,0.779,0.7786,0.7906,0.8057,0.8243,0.8452,0.0,0.0,0.0,0.0,0.0,0.0,0.0,0.8844,0.9068,0.9311,0.9559,0.9603,0.9729,1.0137,1.0186,1.032,1.0651,1.0692,1.0692,1.0692,1.0637,1.0637,1.0692,1.0582,1.0555,1.0692,1.0582,1.0527,1.061,1.0527,1.0527,1.061,1.061,1.0637,1.0692,1.0866,1.0935,1.0939,1.1082,1.1163,1.1134,1.1175,1.1195,1.1195,1.1195,1.1195,1.1195,1.1195,1.1167,1.1155,1.1114,1.107,1.107,0.0,0.0,0.0,0.0,0.0,0.0,0.0,0.0,0.0,0.0,0.0,0.0,0.0,0.0,0.0,0.0,0.0,0.0,0.0,0.0,0.6404,0.6404,0.6404,0.6404,0.6404,0.6404,0.6493,0.6696,0.6906,0.7163,0.7483,0.7495,0.7495,0.7483,0.7495,0.7495,0.7521,0.8299,0.8604,0.868,0.9429,0.0,0.0,0.0,0.0,0.0,0.0,0.0,0.0,0.0,0.0,0.0,0.0,0.0,0.8604,0.8604,0.8604,0.8497,0.7944,0.7906,0.8057,0.8243,0.8452,0.0,0.859,0.859,0.0,0.859,0.0,0.8692,0.9015,0.9336,0.9575,0.9599,0.9603,0.9729,1.0137,1.0186,1.032,1.0651,1.0692,1.0692,1.0692,1.0476,1.0421,1.0692,1.0174,1.0115,1.0665,1.017,1.0009,1.0312,1.0036,1.0009,1.0339,1.0339,1.0445,1.0692,1.0704,1.0712,1.0716,1.0931,1.1017,1.1025,1.1155,1.1195,1.1195,1.1195,1.1195,1.1195,1.1195,1.1126,1.0996,1.0794,1.0729,1.0729,0.0,0.0,0.0,0.0,0.0,0.0,0.0,0.0,0.0,0.0,0.0,0.0,0.0,0.0,0.0,0.0,0.0,0.0,0.0,0.0,0.6404,0.6404,0.6404,0.6404,0.6404,0.6404,0.6562,0.689,0.718,0.7369,0.7503,0.8016,0.8246,0.8265,0.8765,0.8988,0.9012,0.9315,0.9448,0.9466,0.9782,0.9895,0.0,0.0,0.0,0.0,0.0,0.0,0.0,0.0,0.8656,0.8394,0.9183,0.9448,0.9353,0.8851,0.8703,0.8574,0.7964,0.7906,0.8057,0.8243,0.8452,0.0,0.0,0.859,0.859,0.859,0.859,0.8696,0.9031,0.9364,0.9603,0.9603,0.9603,0.9729,1.0137,1.0034,1.003,1.0405,1.0284,1.0143,1.0143,1.0064,1.0036,1.0119,0.9926,0.9899,1.0119,0.9926,0.9871,0.9981,0.9871,0.9871,0.9981,0.9981,1.0036,1.0143,1.0335,1.0335,1.0147,1.0216,1.0243,1.0274,1.0532,1.0643,1.0643,1.0643,1.0755,1.0895,1.0895,1.0854,1.0789,1.0716,1.0692,1.0692,0.0,0.0,0.0,0.0,0.0,0.0,0.0,0.0,0.0,0.0,0.0,0.0,0.0,0.0,0.0,0.0,0.0,0.0,0.0,0.0,0.6404,0.6404,0.6404,0.6404,0.6404,0.646,0.6652,0.7006,0.759,0.8012,0.8275,0.8827,0.9074,0.9093,0.965,0.9895,0.9895,0.9895,0.9895,0.9895,0.9895,0.9895,0.0,0.0,0.0,0.0,0.0,0.0,0.0,0.0,0.9542,0.9226,0.0,1.0276,1.0121,0.932,0.9074,0.8909,0.8091,0.7923,0.8073,0.8338,0.0,0.0,0.859,0.859,0.859,0.859,0.868,0.883,0.9051,0.9364,0.9603,0.9603,0.9603,0.9709,1.0056,0.9864,0.9825,1.0163,0.9975,0.9789,0.9789,0.9734,0.9706,0.9789,0.9623,0.9596,0.9789,0.9623,0.9568,0.9678,0.9568,0.9568,0.9678,0.9678,0.9678,0.9678,0.9899,0.9926,0.9789,0.9789,0.9789,0.9816,1.0036,1.0147,1.0147,1.0147,1.0253,1.0417,1.0417,1.0417,1.0417,1.0417,1.0417,1.0417,0.0,0.0,0.0,0.0,0.0,0.0,0.0,0.0,0.0,0.0,0.0,0.0,0.0,0.0,0.0,0.0,0.0,0.0,0.0,0.6404,0.6404,0.6404,0.6404,0.6404,0.6404,0.6603,0.6816,0.701,0.8147,0.9112,0.9895,0.9914,0.9914,0.9914,0.9914,0.9914,0.9914,0.9914,0.9895,0.9895,0.9895,0.9895,0.9895,0.0,0.0,0.0,0.0,0.0,0.0,0.0,0.9914,1.0045,1.0863,0.0,1.0943,1.0139,0.9895,0.9616,0.8336,0.7991,0.8101,0.8497,0.0,0.0,0.859,0.859,0.859,0.859,0.8875,0.9096,0.91,0.9364,0.9603,0.9603,0.9603,0.9664,0.986,0.9788,0.9779,0.9972,0.9875,0.9789,0.9789,0.9541,0.9517,0.9761,0.9241,0.9158,0.9761,0.9213,0.9047,0.9379,0.9078,0.9047,0.9379,0.9406,0.9406,0.9406,0.9406,0.9544,0.9789,0.9789,0.9789,0.9789,0.9789,0.9789,0.9789,0.9789,0.9789,0.9789,0.9789,0.9789,0.9789,0.9789,0.9789,0.9789,0.0,0.0,0.0,0.0,0.0,0.0,0.0,0.0,0.0,0.0,0.0,0.0,0.0,0.0,0.0,0.0,0.0,0.0,0.0,0.6404,0.6404,0.6404,0.6404,0.6404,0.6404,0.7284,0.7828,0.7984,0.9024,0.9669,0.9914,1.0483,1.075,1.075,1.075,1.075,1.0713,1.0139,0.9895,0.9895,0.9895,0.9895,0.9895,0.0,0.0,0.0,0.0,0.0,0.0,0.0,0.0,0.0,1.1688,0.0,1.1663,1.0308,0.9895,0.9616,0.8336,0.7991,0.8101,0.8497,0.859,0.859,0.0,0.859,0.0,0.8723,0.8934,0.9133,0.9278,0.947,0.9603,0.9603,0.9603,0.9664,0.986,0.9633,0.9467,0.9621,0.9361,0.9158,0.9158,0.9103,0.9075,0.9158,0.8992,0.8964,0.9158,0.8992,0.8937,0.9047,0.8937,0.8937,0.9047,0.9047,0.9047,0.9047,0.9047,0.9103,0.9158,0.9158,0.9158,0.9185,0.9406,0.9517,0.9544,0.9734,0.9678,0.9544,0.9734,0.9789,0.9789,0.9789,0.9789,0.9789,0.0,0.0,0.0,0.0,0.0,0.0,0.0,0.0,0.0,0.0,0.5774,0.0,0.0,0.0,0.0,0.0,0.0,0.0,0.0,0.0,0.6839,0.6839,0.7097,0.7322,0.7499,0.8537,0.9202,0.9464,1.0092,1.0539,1.0851,1.1347,1.1409,1.1093,0.0,1.1093,1.1055,1.0233,1.0083,1.0351,1.0027,0.9895,0.9895,0.0,0.0,0.0,0.0,0.0,0.0,0.0,0.0,0.0,1.215,0.0,1.1978,1.0365,0.9965,0.9716,0.8378,0.8065,0.8174,0.8378,0.845,0.8428,0.8344,0.8388,0.8454,0.8517,0.8667,0.884,0.9036,0.9185,0.9278,0.9278,0.9278,0.9338,0.9436,0.9225,0.9108,0.9239,0.8997,0.8845,0.8906,0.8912,0.8912,0.8912,0.8912,0.8912,0.8912,0.8912,0.8912,0.8912,0.8912,0.8912,0.8912,0.8912,0.8912,0.8912,0.8912,0.8912,0.8912,0.8912,0.8912,0.8912,0.9103,0.9213,0.9213,0.9379,0.9351,0.9213,0.9379,0.943,0.943,0.943,0.943,0.943,0.0,0.0,0.0,0.0,0.0,0.0,0.0,0.0,0.0,0.0,0.5866,0.61,0.0,0.0,0.0,0.0,0.0,0.0,0.0,0.0,0.7587,0.7587,0.8166,0.876,0.93,1.0031,1.0663,1.1205,1.1205,1.1577,1.2305,0.0,1.1799,1.1093,0.0,1.0999,1.0937,1.0214,1.0327,1.0937,1.0196,0.9951,1.0008,1.0008,0.0,0.0,0.0,0.0,0.0,0.0,0.0,0.0,1.2305,1.2249,1.1885,1.0346,0.9991,0.9779,0.8351,0.8108,0.8247,0.818,0.8179,0.8113,0.7918,0.8006,0.8122,0.811,0.8217,0.8369,0.8579,0.8728,0.88,0.88,0.88,0.88,0.88,0.8747,0.8753,0.8877,0.8774,0.8737,0.8875,0.8902,0.8912,0.8912,0.8912,0.8912,0.8912,0.8912,0.8912,0.8912,0.8912,0.8912,0.8912,0.8912,0.8912,0.8912,0.8912,0.8912,0.8912,0.8912,0.8912,0.8912,0.8912,0.8912,0.8912,0.8912,0.8912,0.8912,0.8912,0.8912,0.8912,0.8912,0.8912,0.8912,0.0,0.0,0.0,0.0,0.0,0.0,0.0,0.0,0.0,0.0,0.0,0.0,0.0,0.0,0.0,0.0,0.0,0.0,0.0,0.0,0.828,0.828,0.8425,0.9008,1.0124,1.0309,1.0946,1.204,1.204,1.2139,0.0,0.0,0.0,1.1074,0.0,1.0158,1.0139,0.997,1.0008,1.0139,0.997,1.0276,1.0844,1.0844,1.1329,0.0,0.0,0.0,0.0,0.0,0.0,0.0,1.2305,1.1873,1.1161,1.0196,0.9602,0.9048,0.8029,0.7878,0.7994,0.7965,0.7962,0.79,0.7635,0.7613,0.776,0.8182,0.8291,0.8402,0.8696,0.8778,0.88,0.88,0.88,0.88,0.88,0.8747,0.8714,0.8749,0.8705,0.8723,0.873,0.8841,0.8912,0.8912,0.8912,0.8912,0.8912,0.8912,0.8912,0.8912,0.8912,0.8912,0.8912,0.8912,0.8912,0.8912,0.8912,0.8912,0.8912,0.8912,0.8912,0.8912,0.8912,0.8912,0.8912,0.8912,0.8912,0.8912,0.8912,0.8912,0.8912,0.8912,0.8912,0.8912,0.0,0.0,0.0,0.0,0.0,0.0,0.0,0.0,0.0,0.0,0.0,0.0,0.0,0.0,0.0,0.0,0.0,0.0,0.0,0.0,0.0,0.0,0.9628,1.0064,1.0854,1.1035,1.1512,1.2305,1.191,0.0,0.0,0.0,0.0,0.9943,0.0,0.9895,0.9933,1.0314,1.0707,1.1056,1.1056,1.1304,1.1669,1.1669,1.1706,1.1725,1.1725,0.0,0.0,0.0,0.0,0.0,0.0,0.0,1.037,0.9561,0.9223,0.8895,0.7951,0.7877,0.7983,0.7768,0.761,0.7477,0.7345,0.7301,0.7432,0.7882,0.7969,0.8065,0.835,0.8407,0.8407,0.8407,0.8407,0.8407,0.8407,0.8381,0.8412,0.8488,0.8508,0.8526,0.8594,0.8672,0.872,0.872,0.876,0.8801,0.8801,0.8872,0.8912,0.8912,0.8912,0.8912,0.8912,0.8912,0.8912,0.8912,0.8912,0.8912,0.8912,0.8912,0.8912,0.8912,0.8912,0.8912,0.8912,0.8912,0.8912,0.8912,0.8912,0.8912,0.8912,0.8912,0.8912,0.8912,0.0,0.0,0.0,0.0,0.0,0.0,0.0,0.0,0.0,0.0,0.0,0.0,0.0,0.0,0.0,0.0,0.0,0.0,0.0,0.0,0.0,0.0,1.0851,1.1129,1.1382,1.1734,1.1957,1.2095,0.0,0.0,0.0,0.0,0.0,0.8718,0.0,0.9763,0.9951,1.075,1.1558,1.2305,1.2305,1.2231,1.2095,1.2095,1.1595,1.0881,1.0881,1.0464,0.9895,0.9895,0.0,0.0,0.0,0.0,0.9566,0.8928,0.8862,0.8816,0.7974,0.7899,0.7981,0.7547,0.7257,0.7095,0.7095,0.7095,0.7198,0.7502,0.7584,0.7689,0.7959,0.7988,0.7988,0.7988,0.7988,0.7988,0.7988,0.7988,0.8064,0.8214,0.8281,0.8342,0.8461,0.8495,0.8509,0.8509,0.8601,0.8672,0.8672,0.8764,0.8831,0.8831,0.8831,0.8831,0.8831,0.8831,0.8831,0.8831,0.8831,0.8831,0.8835,0.8862,0.8885,0.8912,0.8912,0.8912,0.8912,0.8912,0.8912,0.8912,0.8912,0.8912,0.8912,0.8912,0.8912,0.8912,0.0,0.0,0.0,0.0,0.0,0.0,0.0,0.0,0.0,0.0,0.89,0.9332,0.0,0.0,0.0,0.0,0.0,0.0,0.0,0.0,0.0,0.0,1.0851,1.1129,1.1382,1.1734,1.1686,1.126,0.0,0.0,0.0,0.0,0.0,0.8703,0.0,0.9244,0.9951,1.075,1.1558,1.2305,1.2305,1.1873,1.126,1.126,1.0769,1.0064,1.0064,0.9989,0.9895,0.9895,0.9895,0.0,0.0,0.0,0.8865,0.8946,0.8573,0.811,0.792,0.7736,0.7525,0.7231,0.7117,0.7095,0.7095,0.7095,0.7168,0.7389,0.7529,0.7689,0.7959,0.7988,0.7988,0.7988,0.7988,0.7988,0.7988,0.7988,0.802,0.8044,0.8187,0.8304,0.8321,0.8437,0.8509,0.8509,0.8529,0.8539,0.8539,0.853,0.8543,0.8543,0.8543,0.8543,0.8543,0.8543,0.8543,0.8543,0.8543,0.8543,0.8547,0.8679,0.8787,0.8912,0.8912,0.8912,0.8912,0.8912,0.8912,0.8912,0.8912,0.8912,0.8912,0.8912,0.8912,0.8912,0.0,0.0,0.0,0.0,0.0,0.0,0.0,0.0,0.0,0.0,0.0,1.012,0.0,0.0,0.0,0.0,0.0,0.0,0.0,0.0,0.0,0.0,0.0,1.1376,1.1663,1.1964,1.1787,0.0,0.0,0.0,0.0,0.8246,0.8036,0.0,0.0,0.0,0.0,1.075,1.1298,1.1632,1.1632,1.1143,1.0426,1.0426,0.9919,0.9221,0.9221,0.8941,0.8556,0.8556,0.8556,0.8556,0.8556,0.0,0.0,0.0,0.8253,0.8123,0.7937,0.7694,0.7437,0.7165,0.7095,0.7095,0.7095,0.7095,0.7161,0.7362,0.7515,0.7662,0.7847,0.7956,0.7988,0.7988,0.7988,0.7988,0.7988,0.7988,0.7988,0.7988,0.8074,0.814,0.814,0.8197,0.8209,0.8209,0.8313,0.8389,0.8389,0.8464,0.8509,0.8509,0.8509,0.8509,0.8509,0.8509,0.8509,0.8509,0.8509,0.8509,0.8509,0.8554,0.8665,0.8787,0.8875,0.8912,0.8912,0.8912,0.8912,0.8912,0.8912,0.8912,0.8912,0.8912,0.8912,0.8912,0.0,0.0,0.0,0.0,0.0,0.0,0.0,0.0,0.0,0.0,0.0,0.0,0.0,0.0,0.0,0.0,0.0,0.0,0.0,0.0,0.0,0.0,0.0,0.0,1.1597,1.1859,0.0,0.0,0.0,0.0,0.8379,0.7787,0.7503,0.0,0.8131,0.8846,0.0,1.0244,1.0601,1.0807,1.0807,1.0314,0.9593,0.9593,0.9093,0.8399,0.8399,0.8016,0.7503,0.7503,0.7503,0.7511,0.7556,0.769,0.0,0.0,0.0,0.8325,0.8038,0.779,0.7547,0.7279,0.7143,0.7095,0.7095,0.7095,0.7151,0.7288,0.7465,0.7631,0.7736,0.7888,0.7988,0.7988,0.7988,0.7988,0.7988,0.7988,0.7988,0.7988,0.7988,0.7988,0.7988,0.7988,0.7988,0.7988,0.8147,0.8211,0.8211,0.8313,0.8367,0.8367,0.8367,0.8367,0.8367,0.8367,0.8367,0.8367,0.8367,0.8367,0.837,0.8437,0.8515,0.8608,0.877,0.8875,0.8912,0.8912,0.8912,0.8912,0.8912,0.8912,0.8912,0.8912,0.8912,0.8912,0.0,0.0,0.0,0.0,0.0,0.0,0.0,0.0,0.0,0.0,0.0,0.0,0.0,0.0,1.0609,1.0609,1.0609,1.0707,1.0955,1.0985,1.1102,1.1372,0.0,0.0,1.0773,1.1034,0.0,0.0,0.0,0.0,0.7557,0.7522,0.7503,0.7503,0.7542,0.8016,0.8756,0.0,0.0,0.997,0.997,0.9485,0.8756,0.8756,0.8265,0.7557,0.7557,0.7542,0.7503,0.7503,0.7503,0.7532,0.7731,0.7792,0.7865,0.0,0.0,0.0,0.8266,0.8025,0.7812,0.7547,0.7279,0.7095,0.7095,0.7095,0.7098,0.7105,0.7367,0.76,0.7607,0.782,0.7988,0.7988,0.7988,0.7988,0.7988,0.7988,0.7988,0.7988,0.7988,0.7988,0.7988,0.7988,0.7988,0.7988,0.802,0.8027,0.8027,0.8033,0.8037,0.8037,0.8037,0.8037,0.8037,0.8037,0.8037,0.8037,0.8037,0.8037,0.8044,0.8214,0.8311,0.8335,0.8598,0.8777,0.8912,0.8912,0.8912,0.8912,0.8912,0.8912,0.8912,0.8912,0.8912,0.8912,0.0,0.0,0.0,0.0,0.0,0.0,0.0,0.0,0.0,0.0,0.0,0.0,0.0,1.0609,1.0667,1.0838,1.1009,1.1156,1.1246,1.1252,1.1403,1.1714,1.1349,1.1087,1.0966,1.053,0.0,0.0,0.0,0.8284,0.7503,0.7503,0.7503,0.7503,0.7503,0.794,0.8703,0.8703,0.887,0.9131,0.9131,0.8637,0.7921,0.7921,0.7748,0.7484,0.7353,0.7464,0.7659,0.7493,0.7609,0.7833,0.7902,0.8024,0.8171,0.8415,0.8424,0.8292,0.8072,0.783,0.7569,0.7301,0.7165,0.7095,0.7095,0.7095,0.7095,0.7095,0.7305,0.7508,0.7584,0.7817,0.7988,0.7988,0.7988,0.7988,0.7988,0.7988,0.7988,0.7988,0.7988,0.7988,0.7988,0.7988,0.7988,0.7988,0.7988,0.7988,0.7988,0.7988,0.7988,0.7988,0.7988,0.7988,0.7988,0.7988,0.7988,0.7988,0.7988,0.7988,0.7992,0.8071,0.8177,0.8301,0.8406,0.8567,0.8767,0.8767,0.8825,0.8912,0.8912,0.8912,0.8912,0.8912,0.8912,0.8912,0.0,0.0,0.0,0.0,0.0,0.0,0.0,0.0,0.0,0.0,0.0,0.0,0.0,0.0,1.0945,1.1122,1.1299,1.1452,1.1553,1.1577,1.1703,1.2022,1.127,1.0783,1.0707,0.9919,0.9107,0.0,0.0,0.0,0.0,0.7503,0.7503,0.7503,0.7503,0.7787,0.8303,0.8303,0.8303,0.8303,0.8303,0.8017,0.7597,0.7597,0.7629,0.7643,0.743,0.7545,0.7725,0.7455,0.7552,0.7781,0.7919,0.8172,0.8406,0.8462,0.8336,0.8157,0.7962,0.7702,0.7459,0.7279,0.7165,0.7095,0.7095,0.7095,0.7095,0.7095,0.7261,0.7427,0.7506,0.7763,0.7956,0.7982,0.7988,0.7988,0.7988,0.7988,0.7988,0.7988,0.7988,0.7988,0.7988,0.7988,0.7988,0.7988,0.7988,0.7988,0.7988,0.7988,0.7988,0.7988,0.7988,0.7988,0.7988,0.7988,0.7988,0.7988,0.7988,0.7988,0.7988,0.7988,0.8071,0.8194,0.8194,0.836,0.8638,0.8689,0.8743,0.8838,0.8892,0.8912,0.8912,0.8912,0.8912,0.8912,0.0,0.0,0.0,0.0,0.0,0.0,0.0,0.0,0.0,0.0,0.0,0.0,0.0,0.0,0.0,1.1402,1.1415,1.1553,1.1899,1.1902,1.2022,1.2291,1.1502,1.0694,0.9914,0.9093,0.828,0.0,0.0,0.0,0.0,0.0,0.7503,0.7503,0.7503,0.7503,0.7503,0.7503,0.7503,0.7503,0.7507,0.7621,0.778,0.7784,0.787,0.795,0.7752,0.7694,0.7657,0.7392,0.7313,0.7388,0.7802,0.8227,0.8542,0.8266,0.8201,0.8135,0.0,0.0,0.0,0.7484,0.7301,0.7095,0.7095,0.7095,0.7095,0.7095,0.7258,0.7389,0.7393,0.7604,0.7824,0.7983,0.7985,0.7988,0.7988,0.7988,0.7988,0.7988,0.7988,0.7988,0.7988,0.7988,0.7988,0.7988,0.7988,0.7988,0.7988,0.7963,0.7963,0.7988,0.7939,0.7914,0.7939,0.7914,0.7914,0.7963,0.7963,0.7963,0.7988,0.7988,0.7988,0.7988,0.7988,0.8175,0.8505,0.8635,0.8703,0.8723,0.8845,0.8906,0.8912,0.8912,0.8912,0.8912,0.0,0.0,0.0,0.0,0.0,0.0,0.0,0.0,0.0,0.0,0.0,0.0,0.0,0.0,1.1768,1.1768,1.1937,1.2091,1.2178,1.2184,1.2218,1.2298,1.0969,1.0121,0.9914,0.8542,0.7729,0.0,0.0,0.0,0.0,0.0,0.0,0.0,0.7503,0.7503,0.7503,0.7503,0.7503,0.7515,0.765,0.7636,0.7517,0.7679,0.7631,0.7464,0.7274,0.7393,0.7599,0.737,0.7596,0.8003,0.8301,0.8366,0.8292,0.8223,0.7962,0.768,0.7617,0.0,0.0,0.0,0.0,0.0,0.7095,0.7095,0.7095,0.7095,0.7151,0.7238,0.7372,0.7461,0.7577,0.7807,0.7942,0.7988,0.7988,0.7988,0.7988,0.7988,0.7988,0.7988,0.7988,0.7988,0.7988,0.7988,0.7988,0.7988,0.7988,0.7263,0.7188,0.7963,0.6503,0.6054,0.6836,0.6079,0.6079,0.6836,0.6836,0.7238,0.7988,0.7988,0.7988,0.7988,0.7988,0.806,0.8148,0.833,0.852,0.8713,0.873,0.8814,0.8912,0.8912,0.8912,0.8912,0.0,0.0,0.0,0.0,0.0,0.0,0.0,0.0,0.0,0.0,0.0,0.0,0.0,0.0,0.0,1.2069,1.2204,1.2305,1.2305,1.2305,1.2305,1.2305,1.0757,0.9895,0.9895,0.8332,0.7503,0.0,0.0,0.0,0.0,0.0,0.0,0.0,0.0,0.0,0.7617,0.7617,0.7617,0.7629,0.764,0.7628,0.7605,0.7656,0.7611,0.7527,0.7289,0.7432,0.7664,0.7339,0.753,0.794,0.8102,0.812,0.805,0.794,0.7724,0.0,0.0,0.0,0.7095,0.7095,0.0,0.0,0.7095,0.7095,0.7095,0.7095,0.7095,0.7148,0.7258,0.7348,0.745,0.76,0.778,0.7942,0.7982,0.7988,0.7988,0.7988,0.7988,0.7988,0.7988,0.7988,0.7988,0.7988,0.7988,0.7988,0.7988,0.6989,0.6686,0.7313,0.5677,0.5102,0.5729,0.5102,0.5127,0.5729,0.5729,0.6282,0.7338,0.7338,0.7587,0.7988,0.7988,0.7988,0.7995,0.8136,0.8313,0.854,0.8662,0.8737,0.8825,0.8889,0.8912,0.8912,0.0,0.0,0.0,0.0,0.0,0.0,0.0,0.0,0.0,0.0,0.0,0.0,0.0,0.0,0.0,0.0,1.2169,1.2169,1.2169,1.2077,1.204,1.204,1.0571,0.9763,0.9763,0.8275,0.0,0.0,0.0,0.0,0.0,0.0,0.0,0.0,0.0,0.0,0.7804,0.782,0.7821,0.7797,0.756,0.7621,0.7845,0.7668,0.7678,0.7786,0.7547,0.7613,0.7742,0.7297,0.7301,0.7507,0.7529,0.768,0.7812,0.7573,0.7484,0.0,0.0,0.0,0.0,0.7095,0.7095,0.0,0.7095,0.7095,0.7095,0.7095,0.7095,0.7095,0.7095,0.7251,0.7376,0.7389,0.759,0.7797,0.7966,0.7978,0.7988,0.7988,0.7988,0.7988,0.7988,0.7988,0.7988,0.7988,0.7988,0.7939,0.7839,0.6811,0.6234,0.6234,0.5077,0.4499,0.4624,0.4499,0.4499,0.4624,0.4624,0.5177,0.6234,0.6234,0.6811,0.7814,0.7814,0.7889,0.7988,0.7988,0.813,0.8325,0.8577,0.8696,0.8703,0.8855,0.8912,0.8912,0.9149,0.0,0.0,0.0,0.0,0.0,0.0,0.0,0.0,0.0,0.0,0.0,0.0,0.0,0.0,0.0,1.1335,1.1335,1.1335,1.0726,1.0365,1.0365,0.9448,0.8927,0.8927,0.7997,0.0,0.0,0.0,0.0,0.0,0.0,0.0,0.0,0.0,0.0,0.7808,0.7906,0.7928,0.7875,0.7833,0.7741,0.7639,0.7559,0.7405,0.7253,0.7187,0.7209,0.7275,0.7393,0.7459,0.7529,0.7746,0.7702,0.7569,0.7507,0.7345,0.7165,0.7117,0.7095,0.7095,0.7095,0.7095,0.0,0.7095,0.7095,0.7095,0.7095,0.7095,0.7095,0.7095,0.7144,0.7202,0.7376,0.744,0.7573,0.7793,0.7939,0.7988,0.7988,0.7988,0.7988,0.7988,0.7988,0.7988,0.7988,0.7988,0.7615,0.6761,0.5704,0.5102,0.5102,0.3224,0.2647,0.3499,0.2647,0.2647,0.3524,0.3524,0.4074,0.5102,0.5102,0.5704,0.6711,0.6711,0.7213,0.7988,0.7988,0.813,0.8315,0.8485,0.8601,0.8703,0.8855,0.8912,0.8912,0.8691,0.0,0.0,0.0,0.0,0.0,0.0,0.0,0.0,0.0,0.0,0.0,0.0,0.0,0.0,0.0,0.0,0.0,0.0,0.0,0.9895,0.9895,0.9131,0.8703,0.8703,0.7902,0.0,0.0,0.0,0.0,0.0,0.0,0.0,0.0,0.0,0.0,0.7847,0.793,0.798,0.8025,0.7833,0.7676,0.7541,0.7361,0.7209,0.7095,0.7095,0.7095,0.7143,0.7415,0.7415,0.7323,0.7452,0.7411,0.7301,0.7301,0.7209,0.7095,0.7095,0.7095,0.7095,0.7095,0.7095,0.0,0.0,0.7095,0.7095,0.7095,0.7095,0.7095,0.7095,0.7095,0.7144,0.7244,0.7345,0.7444,0.7593,0.7784,0.7902,0.7902,0.7969,0.7988,0.7988,0.7988,0.7789,0.7238,0.7213,0.6734,0.5654,0.4576,0.3999,0.3999,0.2447,0.1869,0.2396,0.1869,0.1869,0.2396,0.2396,0.2973,0.3999,0.3999,0.4878,0.6412,0.6412,0.7011,0.7988,0.7988,0.806,0.817,0.8345,0.8492,0.8615,0.874,0.8845,0.8912,0.8217,0.0,0.0,0.0,0.0,0.0,0.0,0.0,0.0,0.0,0.0,0.0,0.0,0.9725,0.9725,0.0,0.0,0.0,0.9612,0.9461,0.9405,0.9442,0.8808,0.8475,0.8475,0.7825,0.0,0.0,0.0,0.0,0.0,0.0,0.0,0.0,0.0,0.0,0.7845,0.7879,0.7972,0.8035,0.7703,0.7538,0.7462,0.7209,0.7095,0.7095,0.7095,0.7095,0.7143,0.7345,0.7279,0.7095,0.7095,0.7095,0.7095,0.7095,0.7095,0.7095,0.7095,0.7095,0.7095,0.7095,0.7095,0.7095,0.0,0.0,0.0,0.7095,0.7095,0.7095,0.7095,0.7095,0.7095,0.7095,0.7244,0.7348,0.7348,0.7556,0.7736,0.7767,0.7854,0.7942,0.7966,0.7996,0.7565,0.6487,0.6412,0.5832,0.4549,0.3674,0.3098,0.2898,0.2044,0.1592,0.1592,0.1592,0.1592,0.1592,0.1592,0.2044,0.2898,0.2898,0.3952,0.5784,0.5784,0.6509,0.769,0.769,0.7814,0.803,0.8211,0.8366,0.8488,0.8645,0.8764,0.8872,0.76,0.8157,0.0,0.0,0.0,0.0,0.0,0.0,0.0,0.0,0.0,0.9461,0.8666,0.905,0.9088,0.8366,0.8309,0.8385,0.8552,0.7897,0.758,0.7768,0.7691,0.7638,0.7638,0.7542,0.0,0.0,0.0,0.0,0.0,0.0,0.0,0.0,0.7462,0.7586,0.7653,0.7828,0.7771,0.7569,0.7529,0.7511,0.7462,0.7209,0.7095,0.7095,0.7095,0.7095,0.7095,0.7143,0.7117,0.7095,0.7095,0.7095,0.7095,0.7095,0.7095,0.7095,0.7095,0.7095,0.7095,0.7095,0.7095,0.7095,0.7095,0.0,0.7095,0.7095,0.0,0.7095,0.7095,0.0,0.0,0.7095,0.7109,0.7144,0.7144,0.7316,0.7495,0.7607,0.7638,0.7699,0.78,0.7935,0.7565,0.6487,0.6412,0.5507,0.35,0.3274,0.2772,0.1818,0.1667,0.1592,0.1592,0.1592,0.1592,0.1592,0.1592,0.1667,0.1793,0.1793,0.2447,0.3575,0.3575,0.4703,0.6587,0.6587,0.7138,0.803,0.8211,0.8308,0.8355,0.8608,0.872,0.873,0.7503,0.7768,0.0,0.0,0.0,0.0,0.0,0.0,0.0,0.0,0.0,0.877,0.797,0.8103,0.8069,0.7614,0.7576,0.7636,0.7813,0.7493,0.0,0.7784,0.7673,0.7617,0.7617,0.7456,0.7336,0.0,0.7311,0.0,0.0,0.0,0.0,0.0,0.7154,0.7318,0.7538,0.7628,0.7591,0.7507,0.7507,0.7415,0.7257,0.7143,0.7095,0.7095,0.7095,0.7095,0.7095,0.7095,0.7095,0.7095,0.7095,0.7095,0.7095,0.7095,0.7095,0.7095,0.7095,0.7095,0.7095,0.7095,0.7095,0.7095,0.7095,0.7095,0.7095,0.7095,0.0,0.0,0.0,0.0,0.0,0.0,0.7095,0.7095,0.7095,0.7175,0.7295,0.7471,0.7546,0.7624,0.7682,0.7746,0.7088,0.549,0.5344,0.4453,0.237,0.227,0.207,0.1617,0.1592,0.1592,0.1592,0.1592,0.1592,0.1592,0.1592,0.1592,0.1592,0.1592,0.2196,0.3198,0.3198,0.4076,0.5529,0.6134,0.6661,0.7141,0.7858,0.8191,0.8321,0.8503,0.8635,0.873,0.7503,0.0,0.0,0.0,0.0,0.0,0.0,0.0,0.9012,0.8379,0.8271,0.8018,0.7382,0.7289,0.7219,0.7065,0.7065,0.7134,0.7287,0.7295,0.7449,0.7786,0.767,0.7587,0.7587,0.7405,0.7281,0.0,0.0,0.0,0.0,0.0,0.0,0.0,0.6965,0.7113,0.7393,0.7393,0.7393,0.7393,0.7393,0.7279,0.7095,0.7095,0.7095,0.7095,0.7095,0.7095,0.7095,0.7095,0.7095,0.7095,0.7095,0.7095,0.7095,0.7095,0.7095,0.7095,0.7095,0.7095,0.7095,0.7095,0.7095,0.7095,0.7095,0.7095,0.7095,0.7095,0.7095,0.0,0.0,0.0,0.7095,0.7095,0.0,0.7095,0.7095,0.7095,0.7158,0.7295,0.7444,0.7536,0.7536,0.7577,0.6878,0.5113,0.4754,0.3842,0.2077,0.1738,0.1592,0.1592,0.1592,0.1592,0.1592,0.1592,0.1592,0.1592,0.1592,0.1592,0.1592,0.1592,0.2019,0.2772,0.2772,0.3374,0.445,0.5529,0.6134,0.6512,0.7587,0.8084,0.8225,0.8396,0.852,0.8669,0.7503,0.7503,0.0,0.7503,0.7518,0.7542,0.7542,0.7557,0.7503,0.7277,0.7187,0.7067,0.6851,0.6763,0.6726,0.6726,0.6705,0.6788,0.6995,0.7015,0.7105,0.7323,0.7323,0.7302,0.7302,0.7302,0.7195,0.7002,0.0,0.0,0.0,0.0,0.0,0.0,0.7088,0.7092,0.7117,0.7117,0.7117,0.7117,0.7117,0.7117,0.7095,0.7095,0.7095,0.7095,0.7095,0.7095,0.7095,0.7095,0.7095,0.7095,0.7095,0.7095,0.7095,0.7095,0.7095,0.7095,0.7095,0.7095,0.7095,0.7095,0.7095,0.7095,0.7095,0.7095,0.7095,0.7095,0.7095,0.7095,0.7095,0.7095,0.7095,0.7095,0.7095,0.0,0.0,0.7095,0.7098,0.7102,0.7285,0.7403,0.7403,0.7536,0.7147,0.6028,0.5104,0.411,0.3013,0.2099,0.1592,0.1592,0.1592,0.1592,0.1592,0.1592,0.1592,0.1592,0.1592,0.1592,0.1592,0.1592,0.1617,0.1642,0.1642,0.227,0.3323,0.4398,0.5454,0.6512,0.7587,0.7992,0.804,0.8221,0.8393,0.8539,0.0,0.0,0.7192,0.7446,0.7503,0.7465,0.7315,0.7254,0.7206,0.7151,0.7198,0.72,0.7139,0.7104,0.705,0.6902,0.6902,0.6989,0.7176,0.7204,0.7339,0.7685,0.7519,0.7433,0.7433,0.7253,0.7141,0.7076,0.7106,0.0,0.0,0.0,0.0,0.0,0.7095,0.7095,0.7095,0.7095,0.7095,0.7095,0.7095,0.7181,0.7282,0.7158,0.7095,0.7095,0.7095,0.7095,0.7095,0.7095,0.7095,0.7095,0.7095,0.7095,0.7095,0.7095,0.7095,0.7095,0.7095,0.7095,0.7095,0.7095,0.7095,0.7095,0.7095,0.7095,0.7095,0.7095,0.7095,0.7095,0.7095,0.7095,0.7095,0.7095,0.7095,0.7095,0.0,0.7095,0.7095,0.7095,0.7164,0.7195,0.7195,0.7242,0.6603,0.4997,0.4591,0.3715,0.2154,0.1778,0.1596,0.1591,0.1592,0.1592,0.1592,0.1592,0.1592,0.1592,0.1592,0.1592,0.1592,0.1592,0.1592,0.1592,0.1592,0.1818,0.222,0.3299,0.3951,0.4452,0.6234,0.6936,0.7054,0.7957,0.8386,0.8546,0.7099,0.698,0.698,0.7249,0.732,0.7305,0.7172,0.7175,0.7139,0.7079,0.718,0.7241,0.716,0.7207,0.7172,0.7042,0.7042,0.7087,0.721,0.7238,0.7349,0.7602,0.7455,0.737,0.737,0.7187,0.7095,0.7095,0.7095,0.7095,0.0,0.0,0.0,0.0,0.7095,0.7095,0.7095,0.7095,0.7095,0.7095,0.7095,0.7178,0.7285,0.7241,0.7198,0.7192,0.7115,0.7095,0.7095,0.7095,0.7095,0.7095,0.7095,0.7095,0.7095,0.7095,0.7095,0.7095,0.7095,0.7095,0.7095,0.7095,0.7095,0.7095,0.7095,0.7095,0.7095,0.7095,0.7095,0.7095,0.7095,0.7095,0.7095,0.7095,0.7095,0.7095,0.0,0.7095,0.7095,0.7095,0.7095,0.7095,0.7095,0.7095,0.6462,0.4917,0.4497,0.364,0.2136,0.1779,0.1605,0.16,0.1611,0.1592,0.1592,0.1592,0.1592,0.1592,0.1592,0.1592,0.1592,0.1592,0.1592,0.1592,0.1592,0.1592,0.1693,0.2748,0.3198,0.3425,0.5557,0.6412,0.6545,0.7746,0.8313,0.8543,0.6895,0.6903,0.6887,0.6887,0.7001,0.7106,0.7106,0.721,0.721,0.7016,0.7112,0.7125,0.6939,0.7014,0.7095,0.7095,0.7095,0.7095,0.7095,0.7095,0.7095,0.7095,0.7095,0.7095,0.7095,0.7095,0.7095,0.7095,0.7095,0.7095,0.0,0.0,0.0,0.0,0.7095,0.7095,0.7095,0.7051,0.701,0.6972,0.6972,0.696,0.6987,0.719,0.725,0.7236,0.7106,0.7049,0.7049,0.7049,0.7049,0.7049,0.7119,0.7119,0.7115,0.7109,0.7105,0.7105,0.7098,0.7095,0.7095,0.7095,0.7095,0.7095,0.7095,0.7095,0.7095,0.7095,0.7095,0.7095,0.7095,0.7095,0.7095,0.7095,0.7095,0.7095,0.7095,0.7095,0.7095,0.7095,0.7095,0.7095,0.7095,0.7095,0.6719,0.5764,0.487,0.3938,0.2958,0.211,0.1641,0.1594,0.1598,0.159,0.159,0.1591,0.1592,0.1592,0.1592,0.1592,0.1592,0.1592,0.1592,0.1592,0.1592,0.1592,0.1667,0.2696,0.3123,0.3324,0.5432,0.6312,0.6537,0.7621,0.8228,0.8519,0.6817,0.679,0.6746,0.6746,0.69,0.7027,0.7027,0.7021,0.6978,0.6932,0.7037,0.7107,0.7063,0.7075,0.7095,0.7095,0.7095,0.7095,0.7095,0.7095,0.7095,0.7095,0.7095,0.7095,0.7095,0.7095,0.7095,0.7095,0.7095,0.7095,0.7095,0.0,0.0,0.0,0.7095,0.7095,0.7051,0.6365,0.5656,0.5027,0.5027,0.5097,0.523,0.5178,0.5232,0.5406,0.6047,0.6282,0.6282,0.6282,0.6282,0.6424,0.7224,0.7482,0.7461,0.7346,0.7312,0.7285,0.7151,0.7095,0.7095,0.7095,0.7095,0.7095,0.7095,0.7095,0.7095,0.7095,0.7095,0.7095,0.7095,0.7095,0.7095,0.7095,0.7095,0.7095,0.7095,0.7095,0.7095,0.7095,0.7095,0.7095,0.7095,0.7095,0.6719,0.5764,0.5479,0.4628,0.2978,0.2685,0.2246,0.1537,0.1567,0.1607,0.1607,0.1606,0.1592,0.1592,0.1592,0.1592,0.1592,0.1592,0.1592,0.1592,0.1592,0.1592,0.1617,0.1894,0.2019,0.2145,0.35,0.5004,0.6548,0.7762,0.8284,0.8389,0.6759,0.6781,0.6779,0.6779,0.6593,0.6418,0.6352,0.6705,0.6847,0.643,0.6803,0.694,0.6539,0.6498,0.6318,0.5913,0.5869,0.5869,0.5869,0.5869,0.5869,0.5869,0.5869,0.5869,0.5869,0.5869,0.6071,0.6498,0.6498,0.6697,0.7098,0.0,0.0,0.0,0.729,0.732,0.7249,0.6261,0.5519,0.4995,0.4528,0.4403,0.0,0.4504,0.453,0.4622,0.4728,0.5008,0.5291,0.5291,0.5291,0.541,0.6004,0.6196,0.6182,0.611,0.6091,0.6169,0.6533,0.6582,0.6655,0.7107,0.7168,0.7095,0.7095,0.7095,0.7095,0.7095,0.7095,0.7095,0.7095,0.7095,0.7095,0.7095,0.7095,0.7095,0.7095,0.7095,0.7095,0.7095,0.7095,0.7095,0.7095,0.7095,0.6719,0.5764,0.5697,0.4875,0.3007,0.2897,0.2464,0.1529,0.1536,0.1582,0.1596,0.1589,0.1604,0.1592,0.1592,0.1592,0.1592,0.1592,0.1592,0.1592,0.1465,0.1415,0.1415,0.1288,0.1314,0.154,0.2747,0.4502,0.6495,0.7201,0.7826,0.8318,0.6544,0.6564,0.6636,0.6918,0.616,0.5489,0.5403,0.6154,0.6435,0.5627,0.6231,0.6418,0.5606,0.5542,0.5203,0.4391,0.4324,0.4324,0.4324,0.4324,0.4318,0.4308,0.4306,0.4302,0.4312,0.4312,0.4763,0.5719,0.5719,0.622,0.7159,0.0,0.0,0.0,0.7539,0.7456,0.7147,0.6217,0.5653,0.5334,0.4411,0.4038,0.403,0.4124,0.4151,0.4037,0.3179,0.3475,0.4238,0.4238,0.4238,0.4262,0.4403,0.4452,0.4449,0.4391,0.4363,0.4573,0.5483,0.5647,0.5785,0.6775,0.6873,0.6767,0.6903,0.6931,0.694,0.7073,0.7095,0.7095,0.7095,0.7095,0.7095,0.7095,0.7095,0.7095,0.7095,0.6985,0.6962,0.7095,0.6985,0.0,0.7095,0.7095,0.6764,0.5941,0.5874,0.5072,0.3178,0.3075,0.2601,0.1521,0.1504,0.1533,0.1584,0.1592,0.1585,0.156,0.1539,0.1541,0.1491,0.1491,0.1491,0.1491,0.1237,0.1136,0.1136,0.0884,0.0934,0.1288,0.2596,0.4227,0.5882,0.6032,0.6905,0.8037,0.5703,0.5274,0.5292,0.7021,0.5781,0.4583,0.4737,0.4784,0.4741,0.4574,0.4696,0.475,0.4646,0.4631,0.4559,0.4395,0.4371,0.4371,0.4371,0.4371,0.4363,0.4312,0.4308,0.4297,0.4291,0.4312,0.4817,0.586,0.586,0.6419,0.7519,0.7546,0.756,0.0,0.7587,0.6673,0.5107,0.4916,0.3886,0.2342,0.2172,0.2095,0.2075,0.1881,0.1808,0.1734,0.1361,0.2159,0.3416,0.3416,0.3416,0.3564,0.4457,0.4728,0.4664,0.4326,0.4233,0.4242,0.434,0.4332,0.4417,0.4819,0.4861,0.5018,0.5843,0.5995,0.6163,0.694,0.7095,0.7095,0.7095,0.7095,0.7095,0.7095,0.7095,0.7095,0.7095,0.6432,0.6229,0.7007,0.6409,0.6251,0.7029,0.7095,0.7029,0.6874,0.6852,0.6027,0.4156,0.4058,0.3238,0.1466,0.1472,0.1515,0.152,0.1571,0.15,0.1259,0.1279,0.1162,0.0934,0.0934,0.0934,0.0934,0.0884,0.0859,0.0859,0.0808,0.0833,0.0985,0.209,0.2768,0.3218,0.4092,0.5258,0.6578,0.4872,0.4648,0.4673,0.5676,0.4614,0.367,0.3752,0.3253,0.3037,0.3558,0.4052,0.4184,0.373,0.3662,0.3472,0.295,0.2903,0.2903,0.2903,0.2903,0.289,0.2839,0.2838,0.2848,0.2842,0.2842,0.3365,0.4402,0.4402,0.4916,0.5936,0.6024,0.6051,0.6053,0.6112,0.5601,0.4649,0.3966,0.3105,0.2164,0.1469,0.1177,0.1162,0.1035,0.0985,0.0985,0.0859,0.1287,0.1967,0.1967,0.1967,0.2042,0.2568,0.2719,0.269,0.2491,0.2435,0.2554,0.3044,0.3112,0.3233,0.3929,0.4109,0.4272,0.471,0.5304,0.5728,0.5658,0.6425,0.7095,0.7095,0.7095,0.694,0.6451,0.6384,0.6207,0.5714,0.527,0.5137,0.56,0.5248,0.5336,0.6273,0.6384,0.6384,0.6384,0.683,0.6071,0.369,0.4044,0.342,0.1457,0.1427,0.1396,0.1295,0.1463,0.1372,0.0982,0.114,0.1051,0.0808,0.0808,0.0808,0.0783,0.0657,0.0581,0.0581,0.0581,0.0581,0.0656,0.1312,0.1914,0.2466,0.2992,0.3944,0.5154,0.4015,0.3903,0.3927,0.4371,0.3472,0.2785,0.3012,0.2172,0.1808,0.2591,0.3352,0.3523,0.2772,0.2702,0.2389,0.1594,0.1521,0.1521,0.1521,0.1521,0.1518,0.1512,0.1512,0.1509,0.1502,0.1502,0.2005,0.3043,0.3043,0.3542,0.4494,0.4584,0.4602,0.4555,0.4669,0.4549,0.4223,0.3171,0.2594,0.2293,0.1236,0.0808,0.0783,0.0732,0.0707,0.0707,0.0657,0.0631,0.0631,0.0631,0.0707,0.0808,0.0808,0.0808,0.0783,0.0732,0.0707,0.0909,0.1739,0.1895,0.2046,0.2929,0.3249,0.3357,0.3513,0.4314,0.4842,0.4263,0.5371,0.6448,0.6492,0.6514,0.6337,0.5786,0.5542,0.5203,0.4668,0.4423,0.4312,0.4312,0.4467,0.4801,0.5361,0.5764,0.583,0.5428,0.6273,0.5736,0.3334,0.389,0.351,0.1771,0.1726,0.1605,0.1401,0.1408,0.1175,0.0727,0.0925,0.0887,0.0627,0.0627,0.0629,0.0606,0.0404,0.0303,0.0303,0.0303,0.0303,0.0328,0.0556,0.1135,0.1888,0.1888,0.2615,0.3692,0.3111,0.2402,0.2371,0.4257,0.3006,0.2067,0.3024,0.2284,0.1623,0.1718,0.1812,0.1824,0.1731,0.1734,0.1683,0.1609,0.1584,0.1584,0.1584,0.1584,0.1596,0.1593,0.1592,0.1554,0.1503,0.1502,0.2042,0.3174,0.3174,0.3731,0.4752,0.4769,0.4662,0.4409,0.4441,0.377,0.2616,0.2491,0.1865,0.0985,0.0858,0.0808,0.0783,0.053,0.0429,0.0404,0.0152,0.0076,0.0076,0.0076,0.0404,0.0808,0.0808,0.0808,0.0758,0.0505,0.0429,0.0455,0.0555,0.058,0.0655,0.1007,0.1092,0.132,0.217,0.2394,0.2675,0.3492,0.3957,0.4285,0.451,0.4554,0.4801,0.5586,0.4981,0.469,0.5453,0.4848,0.4312,0.4312,0.5048,0.5272,0.4512,0.596,0.627,0.4556,0.5292,0.5339,0.4223,0.4245,0.3822,0.2799,0.2755,0.2623,0.238,0.1557,0.0904,0.0442,0.0474,0.0338,0.0074,0.0074,0.0075,0.0076,0.0051,0.0025,0.0025,0.0025,0.0025,0.0051,0.0076,0.0126,0.0227,0.0227,0.1058,0.2163,0.2159,0.1837,0.1831,0.2665,0.2122,0.1753,0.2168,0.1869,0.1612,0.16,0.1598,0.1603,0.159,0.1592,0.1592,0.1592,0.1592,0.1592,0.1592,0.1592,0.1611,0.1599,0.1598,0.1593,0.1556,0.1556,0.1709,0.1995,0.217,0.2368,0.2641,0.2636,0.2494,0.2241,0.2241,0.194,0.1438,0.1261,0.0959,0.0556,0.0379,0.0328,0.0303,0.0202,0.0152,0.0152,0.0051,0.0,0.0,0.0,0.0152,0.0328,0.0328,0.0328,0.0303,0.0202,0.0152,0.0152,0.0152,0.0152,0.0177,0.0303,0.0452,0.0647,0.1033,0.1656,0.2109,0.1898,0.2496,0.3309,0.4154,0.4312,0.4245,0.4048,0.3714,0.3377,0.3154,0.2797,0.2551,0.2551,0.2886,0.3199,0.3444,0.4645,0.5336,0.5161,0.6005,0.5891,0.4376,0.4312,0.4133,0.3757,0.2597,0.2084,0.226,0.1492,0.0777,0.0162,0.0326,0.0262,0.0,0.0,0.0,0.0,0.0,0.0,0.0,0.0,0.0,0.0,0.0,0.0,0.0,0.0,0.0328,0.0782,0.161,0.1602,0.1592,0.1592,0.1592,0.1592,0.1592,0.1592,0.1592,0.1592,0.1592,0.1592,0.1592,0.1592,0.1592,0.1592,0.1592,0.1592,0.1592,0.1592,0.1592,0.1592,0.1592,0.1566,0.1491,0.1491,0.1339,0.1086,0.1263,0.126,0.1077,0.1077,0.0929,0.0682,0.0682,0.0631,0.0556,0.0354,0.0278,0.0278,0.0076,0.0,0.0,0.0,0.0,0.0,0.0,0.0,0.0,0.0,0.0,0.0,0.0,0.0,0.0,0.0,0.0,0.0,0.0,0.0,0.0,0.0,0.0152,0.0277,0.0273,0.095,0.1383,0.0744,0.1296,0.2171,0.3062,0.3307,0.3242,0.2844,0.2598,0.2308,0.1905,0.1838,0.1838,0.1838,0.233,0.2731,0.2889,0.4002,0.4759,0.4872,0.5736,0.5692,0.4376,0.4312,0.4178,0.389,0.2485,0.1837,0.2104,0.13,0.0587,0.0,0.0183,0.0187,0.0,0.0,0.0,0.0,0.0,0.0,0.0,0.0,0.0,0.0,0.0,0.0,0.0,0.0,0.0,0.0,0.1591,0.1591,0.1592,0.1592,0.1592,0.1592,0.1592,0.1592,0.1592,0.1592,0.1592,0.1592,0.1592,0.1592,0.1592,0.1592,0.1592,0.1592,0.1592,0.1592,0.1592,0.1592,0.1592,0.1465,0.1212,0.1212,0.1061,0.0808,0.0808,0.08,0.081,0.081,0.067,0.0404,0.0404,0.0253,0.0,0.0,0.0,0.0,0.0,0.0,0.0,0.0,0.0,0.0,0.0,0.0,0.0,0.0,0.0,0.0,0.0,0.0,0.0,0.0,0.0,0.0,0.0,0.0,0.0,0.0,0.0,0.0,0.0,0.0025,0.0097,0.035,0.041,0.0493,0.0695,0.0964,0.1435,0.2351,0.1905,0.1771,0.2732,0.2889,0.2889,0.2889,0.4516,0.4917,0.3068,0.4583,0.4917,0.3068,0.3801,0.4334,0.4312,0.4312,0.3866,0.2956,0.2643,0.2373,0.2104,0.0986,0.0269,0.0,0.0,0.0,0.0,0.0,0.0,0.0,0.0,0.0,0.0,0.0,0.0,0.0,0.0,0.0,0.0,0.0,0.0,0.0,0.1592,0.1465,0.1395,0.1618,0.1519,0.1447,0.1647,0.152,0.139,0.1388,0.1205,0.1049,0.1049,0.1385,0.1516,0.1339,0.1339,0.1237,0.1061,0.1061,0.1061,0.1061,0.1061,0.101,0.0934,0.0934,0.0808,0.053,0.0707,0.0705,0.0526,0.0526,0.0377,0.0126,0.0126,0.0076,0.0,0.0,0.0,0.0,0.0,0.0,0.0,0.0,0.0,0.0,0.0,0.0,0.0,0.0,0.0,0.0,0.0,0.0,0.0,0.0,0.0,0.0,0.0,0.0,0.0,0.0,0.0,0.0,0.0,0.0,0.0073,0.035,0.0391,0.0456,0.0652,0.0762,0.0986,0.1457,0.1345,0.1345,0.1816,0.1883,0.1883,0.1883,0.2396,0.253,0.1928,0.3044,0.3535,0.2935,0.3779,0.4312,0.4312,0.351,0.322,0.3576,0.2082,0.1478,0.1902,0.0896,0.0269,0.0,0.0,0.0,0.0,0.0,0.0,0.0,0.0,0.0,0.0,0.0,0.0,0.0,0.0,0.0,0.0,0.0,0.0,0.0,0.1315,0.116,0.1113,0.1335,0.1233,0.1159,0.133,0.1226,0.112,0.1119,0.0933,0.08,0.08,0.1098,0.1234,0.1073,0.104,0.0985,0.0808,0.0808,0.0808,0.0808,0.0808,0.0758,0.0657,0.0657,0.053,0.0253,0.0429,0.0404,0.0253,0.0253,0.0152,0.0,0.0,0.0,0.0,0.0,0.0,0.0,0.0,0.0,0.0,0.0,0.0,0.0,0.0,0.0,0.0,0.0,0.0,0.0,0.0,0.0,0.0,0.0,0.0,0.0,0.0,0.0,0.0,0.0,0.0,0.0,0.0,0.0,0.0049,0.0212,0.0256,0.0299,0.0405,0.0516,0.0673,0.0919,0.0942,0.1054,0.1368,0.1345,0.1457,0.1905,0.1973,0.1973,0.1973,0.2531,0.2732,0.2376,0.2886,0.3175,0.3108,0.2707,0.2618,0.2839,0.1388,0.0807,0.1276,0.0583,0.0157,0.0,0.0,0.0,0.0,0.0,0.0,0.0,0.0,0.0,0.0,0.0,0.0,0.0,0.0,0.0,0.0,0.0,0.0,0.0,0.0854,0.0774,0.0774,0.0801,0.0775,0.0775,0.0803,0.0776,0.0776,0.0776,0.075,0.075,0.075,0.0749,0.0743,0.0757,0.0769,0.076,0.0734,0.0734,0.0733,0.0732,0.0732,0.0631,0.0379,0.0379,0.0253,0.0,0.0,0.0,0.0,0.0,0.0,0.0,0.0,0.0,0.0,0.0,0.0,0.0,0.0,0.0,0.0,0.0,0.0,0.0,0.0,0.0,0.0,0.0,0.0,0.0,0.0,0.0,0.0,0.0,0.0,0.0,0.0,0.0,0.0,0.0,0.0,0.0,0.0,0.0,0.0,0.0,0.0,0.0,0.0,0.0202,0.0448,0.065,0.0673,0.083,0.1278,0.1188,0.148,0.2621,0.2755,0.2755,0.2778,0.2755,0.2374,0.1458,0.1368,0.1278,0.1099,0.1904,0.1949,0.1076,0.0605,0.0381,0.0381,0.0135,0.0,0.0,0.0,0.0,0.0,0.0,0.0,0.0,0.0,0.0,0.0,0.0,0.0,0.0,0.0,0.0,0.0,0.0,0.0,0.0,0.0827,0.064,0.0562,0.0841,0.0653,0.0574,0.083,0.0665,0.0499,0.0499,0.0305,0.0194,0.0194,0.0192,0.019,0.0189,0.0373,0.0419,0.0207,0.0181,0.0179,0.0177,0.0202,0.0152,0.0101,0.0101,0.0076,0.0,0.0,0.0,0.0,0.0,0.0,0.0,0.0,0.0,0.0,0.0,0.0,0.0,0.0,0.0,0.0,0.0,0.0,0.0,0.0,0.0,0.0,0.0,0.0,0.0,0.0,0.0,0.0,0.0,0.0,0.0,0.0,0.0,0.0,0.0,0.0,0.0,0.0,0.0,0.0,0.0,0.0,0.0,0.0,0.0045,0.018,0.0426,0.0471,0.0561,0.083,0.083,0.0896,0.1188,0.121,0.13,0.1502,0.1345,0.1277,0.1391,0.1076,0.0942,0.1099,0.0964,0.0784,0.0583,0.0269,0.009,0.009,0.0022,0.0,0.0,0.0,0.0,0.0,0.0,0.0,0.0,0.0,0.0,0.0,0.0,0.0,0.0,0.0,0.0,0.0,0.0,0.0,0.0,0.0464,0.0328,0.0274,0.0469,0.0332,0.0278,0.0448,0.0336,0.0224,0.0224,0.0084,0.0,0.0,0.0,0.0,0.0,0.0135,0.0159,0.0,0.0,0.0,0.0,0.0,0.0,0.0,0.0,0.0,0.0,0.0,0.0,0.0,0.0,0.0,0.0,0.0,0.0,0.0,0.0,0.0,0.0,0.0,0.0,0.0,0.0,0.0,0.0,0.0,0.0,0.0,0.0,0.0,0.0,0.0,0.0,0.0,0.0,0.0,0.0,0.0,0.0,0.0,0.0,0.0,0.0,0.0,0.0,0.0,0.0,0.0,0.0,0.0,0.0,0.009,0.0359,0.0292,0.0337,0.065,0.0628,0.0605,0.0695,0.0695,0.0762,0.0897,0.0785,0.0807,0.1054,0.0852,0.0718,0.0785,0.0538,0.0403,0.0403,0.0135,0.0,0.0,0.0,0.0,0.0,0.0,0.0,0.0,0.0,0.0,0.0,0.0,0.0,0.0,0.0,0.0,0.0,0.0,0.0,0.0,0.0,0.0,0.0,-0.0504,-0.0532,-0.0532,-0.0532,-0.0392,-0.0336,-0.0504,-0.0392,-0.0336,-0.0532,-0.0392,-0.028,-0.028,-0.028,-0.0196,-0.0028,-0.0164,-0.0188,0.0,0.0,0.0,0.0,0.0,0.0,0.0,0.0,0.0,0.0,0.0,0.0,0.0,0.0,0.0,0.0,0.0,0.0,0.0,0.0,0.0,0.0,0.0,0.0,0.0,0.0,0.0,0.0,0.0,0.0,0.0,0.0,0.0,0.0,0.0,0.0,0.0,0.0,0.0,0.0,0.0,0.0,0.0,0.0,0.0,0.0,0.0,0.0,0.0,0.0,0.0,0.0,0.0,0.0,0.0067,0.0292,0.0157,0.0135,0.0538,0.0448,0.0404,0.0583,0.0583,0.0605,0.065,0.0628,0.0628,0.0695,0.0628,0.0538,0.0403,0.0359,0.0336,0.0336,0.0112,0.0,0.0,0.0,0.0,0.0,0.0,0.0,0.0,0.0,0.0,0.0,0.0,0.0,0.0,0.0,0.0,0.0,0.0,0.0,0.0,0.0,0.0,0.0,-0.3022,-0.305,-0.305,-0.305,-0.2211,-0.1875,-0.2882,-0.2183,-0.1875,-0.291,-0.2155,-0.1512,-0.1512,-0.1512,-0.112,-0.0084,-0.092,-0.1078,-0.0055,0.0,0.0,0.0,0.0,0.0,0.0,0.0,0.0,0.0,0.0,0.0,0.0,0.0,0.0,0.0,0.0,0.0,0.0,0.0,0.0,0.0,0.0,0.0,0.0,0.0,0.0,0.0,0.0,0.0,0.0,0.0,0.0,0.0,0.0,0.0,0.0,0.0,0.0,0.0,0.0,0.0,0.0,0.0,0.0,0.0,0.0,0.0,0.0,0.0,0.0,0.0,0.0,0.0,0.0022,0.0045,0.0022,0.0022,0.009,0.009,0.0067,0.0112,0.0112,0.0202,0.0426,0.0247,0.0269,0.0673,0.0337,0.0202,0.0381,0.018,0.0067,0.0067,0.0022,0.0,0.0,0.0,0.0,0.0,0.0,0.0,0.0,0.0,0.0,0.0,0.0,0.0,0.0,0.0,0.0,0.0,0.0,0.0,0.0,0.0,0.0,0.0,-0.3608,-0.3608,-0.3608,-0.3608,-0.3134,-0.2966,-0.3525,-0.3134,-0.2966,-0.3525,-0.3106,-0.277,-0.277,-0.277,-0.2547,-0.1987,-0.2435,-0.2539,-0.1967,-0.0721,0.0,0.0,0.0,0.0,0.0,0.0,0.0,0.0,0.0,0.0,0.0,0.0,0.0,0.0,0.0,0.0,0.0,0.0,0.0,0.0,0.0,0.0,0.0,0.0,0.0,0.0,0.0,0.0,0.0,0.0,0.0,0.0,0.0,0.0,0.0,0.0,0.0,0.0,0.0,0.0,0.0,0.0,0.0,0.0,0.0,0.0,0.0,0.0,0.0,0.0,0.0,0.0,0.0,0.0,0.0,0.0,0.0,0.0,0.0,0.0,0.0,0.0045,0.018,0.0067,0.009,0.0314,0.0112,0.0045,0.018,0.0067,0.0,0.0,0.0,0.0,0.0,0.0,0.0,0.0,0.0,0.0,0.0,0.0,0.0,0.0,0.0,0.0,0.0,0.0,0.0,0.0,0.0,0.0,0.0,0.0,0.0,0.0,-0.4446,-0.4446,-0.4446,-0.4446,-0.4195,-0.4111,-0.439,-0.4195,-0.4111,-0.439,-0.4195,-0.4027,-0.4027,-0.4027,-0.3916,-0.3636,-0.386,-0.3888,-0.3608,-0.1875,-0.0836,-0.0826,-0.0576,-0.0299,0.0,0.0,0.0,0.0,0.0,0.0,0.0,0.0,0.0,0.0,0.0,0.0,0.0,0.0,0.0,0.0,0.0,0.0,0.0,0.0,0.0,0.0,0.0,0.0,0.0,0.0,0.0,0.0,0.0,0.0,0.0,0.0,0.0,0.0,0.0,0.0,0.0,0.0,0.0,0.0,0.0,0.0,0.0,0.0,0.0,0.0,0.0,0.0,0.0,0.0,0.0,0.0,0.0,0.0,0.0,0.0,0.0,0.0,0.0,0.0,0.0,0.0,0.0,0.0,0.0,0.0,0.0,0.0,0.0,0.0,0.0,0.0,0.0,0.0,0.0,0.0,0.0,0.0,0.0,0.0,0.0,0.0,0.0,0.0,0.0,0.0,0.0,0.0,0.0,0.0,0.0,0.0,-0.693,-0.693,-0.693,-0.693,-0.601,-0.565,-0.6763,-0.5984,-0.5676,-0.6791,-0.5956,-0.526,-0.526,-0.526,-0.481,-0.3692,-0.4615,-0.4782,-0.3664,-0.3441,-0.3327,-0.3323,-0.2256,-0.1147,-0.0027,0.0,0.0,0.0,0.0,0.0,0.0,0.0,0.0,0.0,0.0,0.0,0.0,0.0,0.0,0.0,0.0,0.0,0.0,0.0,0.0,0.0,0.0,0.0,0.0,0.0,0.0,0.0,0.0,0.0,0.0,0.0,0.0,0.0,0.0,0.0,0.0,0.0,0.0,0.0,0.0,0.0,0.0,0.0,0.0,0.0,0.0,0.0,0.0,0.0,0.0,0.0,0.0,0.0,0.0,0.0,0.0,0.0,0.0,0.0,0.0,0.0,0.0,0.0,0.0,0.0,0.0,0.0,0.0,0.0,0.0,0.0,0.0,0.0,0.0,0.0,0.0,0.0,0.0,0.0,0.0,0.0,0.0,0.0,0.0,0.0,0.0,0.0,0.0,0.0,0.0,0.0,-0.721,-0.721,-0.721,-0.721,-0.6818,-0.668,-0.7127,-0.6818,-0.668,-0.7127,-0.6791,-0.6513,-0.6513,-0.6513,-0.6346,-0.5868,-0.626,-0.6318,-0.5868,-0.5144,-0.4392,-0.3636,-0.317,-0.2688,-0.2247,-0.2236,-0.1865,-0.1109,-0.1123,-0.0743,0.0,0.0,0.0,0.0,0.0,0.0,0.0,0.0,0.0,0.0,0.0,0.0,0.0,0.0,0.0,0.0,0.0,0.0,0.0,0.0,0.0,0.0,0.0,0.0,0.0,0.0,0.0,0.0,0.0,0.0,0.0,0.0,0.0,0.0,0.0,0.0,0.0,0.0,0.0,0.0,0.0,0.0,0.0,0.0,0.0,0.0,0.0,0.0,0.0,0.0,0.0,0.0,0.0,0.0,0.0,0.0,0.0,0.0,0.0,0.0,0.0,0.0,0.0,0.0,0.0,0.0,0.0,0.0,0.0,0.0,0.0,0.0,0.0,0.0,0.0,0.0,0.0,0.0,0.0,0.0,0.0,0.0,0.0,0.0,0.0,0.0,-0.721,-0.721,-0.721,-0.721,-0.721,-0.721,-0.721,-0.721,-0.721,-0.721,-0.721,-0.721,-0.721,-0.721,-0.721,-0.721,-0.721,-0.721,-0.721,-0.6429,-0.5258,-0.3664,-0.3971,-0.3999,-0.3608,-0.3595,-0.3188,-0.2365,-0.2364,-0.1752,-0.0564,-0.0564,-0.0373,0.0,0.0,0.0,0.0,0.0,0.0,0.0,0.0,0.0,0.0,0.0,0.0,0.0,0.0,0.0,0.0,0.0,0.0,0.0,0.0,0.0,0.0,0.0,0.0,0.0,0.0,0.0,0.0,0.0,0.0,0.0,0.0,0.0,0.0,0.0,0.0,0.0,0.0,0.0,0.0,0.0,0.0,0.0,0.0,0.0,0.0,0.0,0.0,0.0,0.0,0.0,0.0,0.0,0.0,0.0,0.0,0.0,0.0,0.0,0.0,0.0,0.0,0.0,0.0,0.0,0.0,0.0,0.0,0.0,0.0,0.0,0.0,0.0,0.0,0.0,0.0,0.0,0.0,0.0,0.0,0.0,0.0,0.0,-0.721,-0.721,-0.721,-0.721,-0.721,-0.721,-0.721,-0.721,-0.721,-0.721,-0.721,-0.721,-0.721,-0.721,-0.721,-0.721,-0.721,-0.721,-0.721,-0.721,-0.6119,-0.372,-0.4782,-0.4868,-0.3664,-0.3636,-0.3636,-0.3608,-0.3608,-0.2995,-0.1801,-0.1801,-0.1164,-0.0027,0.0,0.0,0.0,0.0,0.0,0.0,0.0,0.0,0.0,0.0,0.0,0.0,0.0,0.0,0.0,0.0,0.0,0.0,0.0,0.0,0.0,0.0,0.0,0.0,0.0,0.0,0.0,0.0,0.0,0.0,0.0,0.0,0.0,0.0,0.0,0.0,0.0,0.0,0.0,0.0,0.0,0.0,0.0,0.0,0.0,0.0,0.0,0.0,0.0,0.0,0.0,0.0,0.0,0.0,0.0,0.0,0.0,0.0,0.0,0.0,0.0,0.0,0.0,0.0,0.0,0.0,0.0,0.0,0.0,0.0,0.0,0.0,0.0,0.0,0.0,0.0,0.0,0.0,0.0,0.0,0.0,0.0,-0.721,-0.721,-0.721,-0.721,-0.721,-0.721,-0.721,-0.721,-0.721,-0.721,-0.721,-0.721,-0.721,-0.721,-0.721,-0.721,-0.721,-0.721,-0.721,-0.721,-0.6874,-0.6149,-0.6485,-0.6485,-0.6149,-0.6119,-0.5704,-0.4868,-0.4868,-0.4241,-0.3054,-0.2194,-0.1597,-0.1219,-0.038,0.0,0.0,0.0,0.0,0.0,0.0,0.0,0.0,0.0,0.0,0.0,0.0,0.0,0.0,0.0,0.0,0.0,0.0,0.0,0.0,0.0,0.0,0.0,0.0,0.0,0.0,0.0,0.0,0.0,0.0,0.0,0.0,0.0,0.0,0.0,0.0,0.0,0.0,0.0,0.0,0.0,0.0,0.0,0.0,0.0,0.0,0.0,0.0,0.0,0.0,0.0,0.0,0.0,0.0,0.0,0.0,0.0,0.0,0.0,0.0,0.0,0.0,0.0,0.0,0.0,0.0,0.0,0.0,0.0,0.0,0.0,0.0,0.0,0.0,0.0,0.0,0.0,0.0,0.0,0.0,0.0,-0.721,-0.721,-0.721,-0.721,-0.721,-0.721,-0.721,-0.721,-0.721,-0.721,-0.721,-0.721,-0.721,-0.721,-0.721,-0.721,-0.721,-0.721,-0.721,-0.721,-0.721,-0.721,-0.721,-0.721,-0.721,-0.721,-0.6849,-0.6123,-0.6123,-0.5481,-0.4308,-0.3553,-0.2977,-0.2453,-0.1242,-0.0714,-0.068,-0.0189,0.0,0.0,0.0,0.0,0.0,0.0,0.0,0.0,0.0,0.0,0.0,0.0,0.0,0.0,0.0,0.0,0.0,0.0,0.0,0.0,0.0,0.0,0.0,0.0,0.0,0.0,0.0,0.0,0.0,0.0,0.0,0.0,0.0,0.0,0.0,0.0,0.0,0.0,0.0,0.0,0.0,0.0,0.0,0.0,0.0,0.0,0.0,0.0,0.0,0.0,0.0,0.0,0.0,0.0,0.0,0.0,0.0,0.0,0.0,0.0,0.0,0.0,0.0,0.0,0.0,0.0,0.0,0.0,0.0,0.0,0.0,0.0,0.0,0.0,0.0,0.0,0.0,0.0,-0.721,-0.721,-0.721,-0.721,-0.721,-0.721,-0.721,-0.721,-0.721,-0.721,-0.721,-0.721,-0.721,-0.721,-0.721,-0.721,-0.721,-0.721,-0.721,-0.721,-0.721,-0.721,-0.721,-0.721,-0.721,-0.721,-0.721,-0.721,-0.721,-0.6624,-0.5566,-0.5455,-0.481,-0.372,-0.2491,-0.1959,-0.1874,-0.0662,-0.0165,-0.0164,-0.0054,0.0,0.0,0.0,0.0,0.0,0.0,0.0,0.0,0.0,0.0,0.0,0.0,0.0,0.0,0.0,0.0,0.0,0.0,0.0,0.0,0.0,0.0,0.0,0.0,0.0,0.0,0.0,0.0,0.0,0.0,0.0,0.0,0.0,0.0,0.0,0.0,0.0,0.0,0.0,0.0,0.0,0.0,0.0,0.0,0.0,0.0,0.0,0.0,0.0,0.0,0.0,0.0,0.0,0.0,0.0,0.0,0.0,0.0,0.0,0.0,0.0,0.0,0.0,0.0,0.0,0.0,0.0,0.0,0.0,0.0,0.0,0.0,0.0,0.0,0.0,-0.721,-0.721,-0.721,-0.721,-0.721,-0.721,-0.721,-0.721,-0.721,-0.721,-0.721,-0.721,-0.721,-0.721,-0.721,-0.721,-0.721,-0.721,-0.721,-0.721,-0.721,-0.721,-0.721,-0.721,-0.721,-0.721,-0.721,-0.721,-0.721,-0.7071,-0.6793,-0.5845,-0.526,-0.4951,-0.3748,-0.3217,-0.3132,-0.1925,-0.1421,-0.1335,-0.0384,0.0,0.0,0.0,0.0,0.0,0.0,0.0,0.0,0.0,0.0,0.0,0.0,0.0,0.0,0.0,0.0,0.0,0.0,0.0,0.0,0.0,0.0,0.0,0.0,0.0,0.0,0.0,0.0,0.0,0.0,0.0,0.0,0.0,0.0,0.0,0.0,0.0,0.0,0.0,0.0,0.0,0.0,0.0,0.0,0.0,0.0,0.0,0.0,0.0,0.0,0.0,0.0,0.0,0.0,0.0,0.0,0.0,0.0,0.0,0.0,0.0,0.0,0.0,0.0,0.0,0.0,0.0,0.0,0.0,0.0,0.0,0.0,0.0,0.0,0.0,-0.721,-0.721,-0.721,-0.721,-0.721,-0.721,-0.721,-0.721,-0.721,-0.721,-0.721,-0.721,-0.721,-0.721,-0.721,-0.721,-0.721,-0.721,-0.721,-0.721,-0.721,-0.721,-0.721,-0.721,-0.721,-0.721,-0.721,-0.721,-0.721,-0.721,-0.7182,-0.6541,-0.6262,-0.6207,-0.5005,-0.4447,-0.4392,-0.316,-0.2658,-0.2545,-0.1332,-0.0858,-0.0802,-0.0219,0.0,0.0,0.0,0.0,0.0,0.0,0.0,0.0,0.0,0.0,0.0,0.0,0.0,0.0,0.0,0.0,0.0,0.0,0.0,0.0,0.0,0.0,0.0,0.0,0.0,0.0,0.0,0.0,0.0,0.0,0.0,0.0,0.0,0.0,0.0,0.0,0.0,0.0,0.0,0.0,0.0,0.0,0.0,0.0,0.0,0.0,0.0,0.0,0.0,0.0,0.0,0.0,0.0,0.0,0.0,0.0,0.0,0.0,0.0,0.0,0.0,0.0,0.0,0.0,0.0,0.0,0.0,0.0,0.0,0.0,0.0,0.0,-0.721,-0.721,-0.721,-0.721,-0.721,-0.721,-0.721,-0.721,-0.721,-0.721,-0.721,-0.721,-0.721,-0.721,-0.721,-0.721,-0.721,-0.721,-0.721,-0.721,-0.721,-0.721,-0.721,-0.721,-0.721,-0.721,-0.721,-0.721,-0.721,-0.721,-0.721,-0.721,-0.721,-0.7154,-0.6151,-0.5706,-0.5622,-0.4419,-0.3916,-0.3776,-0.2379,-0.1791,-0.1679,-0.0448,0.0,0.0,0.0,0.0,0.0,0.0,0.0,0.0,0.0,0.0,0.0,0.0,0.0,0.0,0.0,0.0,0.0,0.0,0.0,0.0,0.0,0.0,0.0,0.0,0.0,0.0,0.0,0.0,0.0,0.0,0.0,0.0,0.0,0.0,0.0,0.0,0.0,0.0,0.0,0.0,0.0,0.0,0.0,0.0,0.0,0.0,0.0,0.0,0.0,0.0,0.0,0.0,0.0,0.0,0.0,0.0,0.0,0.0,0.0,0.0,0.0,0.0,0.0,0.0,0.0,0.0,0.0,0.0,0.0,0.0,0.0,0.0,-0.721,-0.721,-0.721,-0.721,-0.721,-0.721,-0.721,-0.721,-0.721,-0.721,-0.721,-0.721,-0.721,-0.721,-0.721,-0.721,-0.721,-0.721,-0.721,-0.721,-0.721,-0.721,-0.721,-0.721,-0.721,-0.721,-0.721,-0.721,-0.721,-0.721,-0.721,-0.721,-0.721,-0.7182,-0.7043,-0.696,-0.6877,-0.5676,-0.5146,-0.4951,-0.2714,-0.1791,-0.1679,-0.0448,0.0,0.0,0.0,0.0,0.0,0.0,0.0,0.0,0.0,0.0,0.0,0.0,0.0,0.0,0.0,0.0,0.0,0.0,0.0,0.0,0.0,0.0,0.0,0.0,0.0,0.0,0.0,0.0,0.0,0.0,0.0,0.0,0.0,0.0,0.0,0.0,0.0,0.0,0.0,0.0,0.0,0.0,0.0,0.0,0.0,0.0,0.0,0.0,0.0,0.0,0.0,0.0,0.0,0.0,0.0,0.0,0.0,0.0,0.0,0.0,0.0,0.0,0.0,0.0,0.0,0.0,0.0,0.0,0.0,0.0,0.0,0.0,-0.721,-0.721,-0.721,-0.721,-0.721,-0.721,-0.721,-0.721,-0.721,-0.721,-0.721,-0.721,-0.721,-0.721,-0.721,-0.721,-0.721,-0.721,-0.721,-0.721,-0.721,-0.721,-0.721,-0.721,-0.721,-0.721,-0.721,-0.721,-0.721,-0.721,-0.721,-0.721,-0.721,-0.721,-0.721,-0.721,-0.7154,-0.6624,-0.6402,-0.6262,-0.4501,-0.3413,-0.2686,-0.1456,-0.0588,0.0,0.0,0.0,0.0,0.0,0.0,0.0,0.0,0.0,0.0,0.0,0.0,0.0,0.0,0.0,0.0,0.0,0.0,0.0,0.0,0.0,0.0,0.0,0.0,0.0,0.0,0.0,0.0,0.0,0.0,0.0,0.0,0.0,0.0,0.0,0.0,0.0,0.0,0.0,0.0,0.0,0.0,0.0,0.0,0.0,0.0,0.0,0.0,0.0,0.0,0.0,0.0,0.0,0.0,0.0,0.0,0.0,0.0,0.0,0.0,0.0,0.0,0.0,0.0,0.0,0.0,0.0,0.0,0.0,0.0,0.0]},{"header":{"parameterUnit":"m.s-1","parameterCategory":1,"la1":30.6,"la2":28.766,"lo1":-90.7593,"lo2":-88.6598,"dy":0.0162,"dx":0.0183,"nx":116,"ny":114,"refTime":"2023-10-18T06:00:00:Z","depth":0,"parameterNumber":3,"parameterNumberName":"V-component_of_WINDS"},"data":[0.0,0.0,0.0,0.0,0.0,0.0,0.0,0.0,0.0,0.0,0.0,0.0,0.0,0.0,0.0,0.0,0.0,0.0,0.0,0.0,0.0,0.0,0.0,0.0,0.0,0.0,0.0,0.0,0.0,0.0,0.0,0.0,0.0,0.0,0.0,0.0,0.0,0.0,0.0,0.0,0.0,0.0,0.0,0.0,0.0,0.0,0.0,0.0,0.0,0.0,0.0,0.0,0.0,0.0,0.0,0.0,0.0,0.0,0.0,0.0,0.0,0.0,0.0,0.0,0.0,0.0,0.0,0.0,0.0,0.0,0.0,0.0,0.0,0.0,0.0,0.0,0.0,0.0,0.0,0.0,0.0,0.0,0.0,0.0,0.0,0.0,0.0,0.0,0.0,0.0,0.0,0.0,0.0,0.0,0.0,0.0,0.0,0.0,0.0,0.0,0.0,0.0,0.0,0.0,0.0,0.0,0.0,0.0,0.0,0.0,0.0,0.0,0.0,0.0,0.0,0.0,0.0,0.0,0.0,0.0,0.0,0.0,0.0,0.0,0.0,0.0,0.0,0.0,0.0,0.0,0.0,0.0,0.0,0.0,0.0,0.0,0.0,0.0,0.0,0.0,0.0,0.0,0.0,0.0,0.0,0.0,0.0,0.0,0.0,0.0,0.0,0.0,0.0,0.0,0.0,0.0,0.0,0.0,0.0,0.0,0.0,0.0,0.0,0.0,0.0,0.0,0.0,0.0,0.0,0.0,0.0,0.0,0.0,0.0,0.0,0.0,0.0,0.0,0.0,0.0,0.0,0.0,0.0,0.0,0.0,0.0,0.0,0.0,0.0,0.0,0.0,0.0,0.0,0.0,0.0,0.0,0.0,0.0,0.0,0.0,0.0,0.0,0.0,0.0,0.0,0.0,0.0,0.0,0.0,0.0,0.0,0.0,0.0,0.0,0.0,0.0,0.0,0.0,0.0,0.0,0.0,0.0,0.0,0.0,0.0,0.0,0.0,0.0,0.0,0.0,0.0,0.0,0.0,0.0,0.0,0.0,0.0,0.0,0.0,0.0,0.0,0.0,0.0,0.0,0.0,0.0,0.0,0.0,0.0,0.0,0.0,0.0,0.0,0.0,0.0,0.0,0.0,0.0,0.0,0.0,0.0,0.0,0.0,0.0,0.0,0.0,0.0,0.0,0.0,0.0,0.0,0.0,0.0,0.0,0.0,0.0,0.0,0.0,0.0,0.0,0.0,0.0,0.0,0.0,0.0,0.0,0.0,0.0,0.0,0.0,0.0,0.0,0.0,0.0,0.0,0.0,0.0,0.0,0.0,0.0,0.0,0.0,0.0,0.0,0.0,0.0,0.0,0.0,0.0,0.0,0.0,0.0,0.0,0.0,0.0,0.0,0.0,0.0,0.0,0.0,0.0,0.0,0.0,0.0,0.0,0.0,0.0,0.0,0.0,0.0,0.0,0.0,0.0,0.0,0.0,0.0,0.0,0.0,0.0,0.0,0.0,0.0,0.0,0.0,0.0,0.0,0.0,0.0,0.0,0.0,0.0,0.0,0.0,0.0,0.0,0.0,0.0,0.0,0.0,0.0,0.0,0.0,0.0,0.0,0.0,0.0,0.0,0.0,0.0,0.0,0.0,0.0,0.0,0.0,0.0,0.0,0.0,0.0,0.0,0.0,0.0,0.0,0.0,0.0,0.0,0.0,0.0,0.0,0.0,0.0,0.0,0.0,0.0,0.0,0.0,0.0,0.0,0.0,0.0,0.0,0.0,0.0,0.0,0.0,0.0,0.0,0.0,0.0,0.0,0.0,0.0,0.0,0.0,0.0,0.0,0.0,0.0,0.0,0.0,0.0,0.0,0.0,0.0,0.0,0.0,0.0,0.0,0.0,0.0,0.0,0.0,0.0,0.0,0.0,0.0,0.0,0.0,0.0,0.0,0.0,0.0,0.0,0.0,0.0,0.0,0.0,0.0,0.0,0.0,0.0,0.0,0.0,0.0,0.0,0.0,0.0,0.0,0.0,0.0,0.0,0.0,0.0,0.0,0.0,0.0,0.0,0.0,0.0,0.0,0.0,0.0,0.0,0.0,0.0,0.0,0.0,0.0,0.0,0.0,0.0,0.0,0.0,0.0,0.0,0.0,0.0,0.0,0.0,0.0,0.0,0.0,0.0,0.0,0.0,0.0,0.0,0.0,0.0,0.0,0.0,0.0,0.0,0.0,0.0,0.0,0.0,0.0,0.0,0.0,0.0,0.0,0.0,0.0,0.0,0.0,0.0,0.0,0.0,0.0,0.0,0.0,0.0,0.0,0.0,0.0,0.0,0.0,0.0,0.0,0.0,0.0,0.0,0.0,0.0,0.0,0.0,0.0,0.0,0.0,0.0,0.0,0.0,0.0,0.0,0.0,0.0,0.0,0.0,0.0,0.0,0.0,0.0,0.0,0.0,0.0,0.0,0.0,0.0,0.0,0.0,0.0,0.0,0.0,0.0,0.0,0.0,0.0,0.0,0.0,0.0,0.0,0.0,0.0,0.0,0.0,0.0,0.0,0.0,0.0,0.0,0.0,0.0,0.0,0.0,0.0,0.0,0.0,0.0,0.0,0.0,0.0,0.0,0.0,0.0,0.0,0.0,0.0,0.0,0.0,0.0,0.0,0.0,0.0,0.0,0.0,0.0,0.0,0.0,0.0,0.0,0.0,0.0,0.0,0.0,0.0,0.0,0.0,0.0,0.0,0.0,0.0,0.0,0.0,0.0,0.0,0.0,0.0,0.0,0.0,0.0,0.0,0.0,0.0,0.0,0.0,0.0,0.0,0.0,0.0,0.0,0.0,0.0,0.0,0.0,0.0,0.0,0.0,0.0,0.0,0.0,0.0,0.0,0.0,0.0,0.0,0.0,0.0,0.0,0.0,0.0,0.0,0.0,0.0,0.0,0.0,0.0,0.0,0.0,0.0,0.0,0.0,0.0,0.0,0.0,0.0,0.0,0.0,0.0,0.0,0.0,0.0,0.0,0.0,0.0,0.0,0.0,0.0,0.0,0.0,0.0,0.0,0.0,0.0,0.0,0.0,0.0,0.0,0.0,0.0,0.0,0.0,0.0,0.0,0.0,0.0,0.0,0.0,0.0,0.0,0.0,0.0,0.0,0.0,0.0,0.0,0.0,0.0,0.0,0.0,0.0,0.0,0.0,0.0,0.0,0.0,0.0,0.0,0.0,0.0,0.0,0.0,0.0,0.0,0.0,0.0,0.0,0.0,0.0,0.0,0.0,0.0,0.0,0.0,0.0,0.0,0.0,0.0,0.0,0.0,0.0,0.0,0.0,0.0,0.0,0.0,0.0,0.0,0.0,0.0,0.0,0.0,0.0,0.0,0.0,0.0,0.0,0.0,0.0,0.0,0.0,0.0,0.0,0.0,0.0,0.0,0.0,0.0,0.0,0.0,0.0,0.0,0.0,0.0,0.0,0.0,0.0,0.0,0.0,0.0,0.0,0.0,0.0,0.0,0.0,0.0,0.0,0.0,0.0,0.0,0.0,0.0,0.0,0.0,0.0,0.0,0.0,0.0,0.0,0.0,0.0,0.0,0.0,0.0,0.0,0.0,0.0,0.0,0.0,0.0,0.0,0.0,0.0,0.0,0.0,0.0,0.0,0.0,0.0,0.0,0.0,0.0,0.0,0.0,0.0,0.0,0.0,0.0,0.0,0.0,0.0,0.0,0.0,0.0,0.0,0.0,0.0,0.0,0.0,0.0,0.0,0.0,0.0,0.0,0.0,0.0,0.0,0.0,0.0,0.0,0.0,0.0,0.0,0.0,0.0,0.0,0.0,0.0,0.0,0.0,0.0,0.0,0.0,0.0,0.0,0.0,0.0,0.0,0.0,0.0,0.0,0.0,0.0,0.0,0.0,0.0,0.0,0.0,0.0,0.0,0.0,0.0,0.0,0.0,0.0,0.0,0.0,0.0,0.0,0.0,0.0,0.0,0.0,0.0,0.0,0.0,0.0,0.0,0.0,0.0,0.0,0.0,0.0,0.0,0.0,0.0,0.0,0.0,0.0,0.0,0.0,0.0,0.0,0.0,0.0,0.0,0.0,0.0,0.0,0.0,0.0,0.0,0.0,0.0,0.0,0.0,0.0,0.0,0.0,0.0,0.0,0.0,0.0,0.0,0.0,0.0,0.0,0.0,0.0,0.0,0.0,0.0,0.0,0.0,0.0,0.0,0.0,0.0,0.0,0.0,0.0,0.0,0.0,0.0,0.0,0.0,0.0,0.0,0.0,0.0,0.0,0.0,0.0,0.0,0.0,0.0,0.0,0.0,0.0,0.0,0.0,0.0,0.0,0.0,0.0,0.0,0.0,0.0,0.0,0.0,0.0,0.0,0.0,0.0,0.0,0.0,0.0,0.0,0.0,0.0,0.0,0.0,0.0,0.0,0.0,0.0,0.0,0.0,0.0,0.0,0.0,0.0,0.0,0.0,0.0,0.0,0.0,0.0,0.0,0.0,0.0,0.0,0.0,0.0,0.0,0.0,0.0,0.0,0.0,0.0,0.0,0.0,0.0,0.0,0.0,0.0,0.0,0.0,0.0,0.0,0.0,0.0,0.0,0.0,0.0,0.0,0.0,0.0,0.0,0.0,0.0,0.0,0.0,0.0,0.0,0.0,0.0,0.0,0.0,0.0,0.0,0.0,0.0,0.0,0.0,0.0,0.0,0.0,0.0,0.0,0.0,0.0,0.0,0.0,0.0,0.0,0.0,0.0,0.0,0.0,0.0,0.0,0.0,0.0,0.0,0.0,0.0,0.0,0.0,0.0,0.0,0.0,0.0,0.0,0.0,0.0,0.0,0.0,0.0,0.0,0.0,0.0,0.0,0.0,0.0,0.0,0.0,0.0,0.0,0.0,0.0,0.0,0.0,0.0,0.0,0.0,0.0,0.0,0.0,0.0,0.0,0.0,0.0,0.0,0.0,0.0,0.0,0.0,0.0,0.0,0.0,0.0,0.0,0.0,0.0,0.0,0.0,0.0,0.0,0.0,0.0,0.0,0.0,0.0,0.0,0.0,0.0,0.0,0.0,0.0,0.0,0.0,0.0,0.0,0.0,0.0,0.0,0.0,0.0,0.0,0.0,0.0,0.0,0.0,0.0,0.0,0.0,0.0,0.0,0.0,0.0,0.0,0.0,0.0,0.0,0.0,0.0,0.0,0.0,0.0,0.0,0.0,0.0,0.0,0.0,0.0,0.0,0.0,0.0,0.0,0.0,0.0,0.0,0.0,0.0,0.0,0.0,0.0,0.0,0.0,0.0,0.0,0.0,0.0,0.0,0.0,0.0,0.0,0.0,0.0,0.0,0.0,0.0,0.0,0.0,0.0,0.0,0.0,0.0,0.0,0.0,0.0,0.0,0.0,0.0,0.0,0.0,0.0,0.0,0.0,0.0,0.0,0.0,0.0,0.0,0.0,0.0,0.0,0.0,0.0,0.0,0.0,0.0,0.0,0.0,0.0,0.0,0.0,0.0,0.0,0.0,0.0,0.0,0.0,0.0,0.0,0.0,0.0,0.0,0.0,0.0,0.0,0.0,0.0,0.0,0.0,0.0,0.0,0.0,0.0,0.0,0.0,0.0,0.0,0.0,0.0,0.0,0.0,0.0,0.0,0.0,0.0,0.0,0.0,0.0,0.0,0.0,0.0,0.0,0.0,0.0,0.0,0.0,0.0,0.0,0.0,0.0,0.0,0.0,0.0,0.0,0.0,0.0,0.0,0.0,0.0,0.0,0.0,0.0,0.0,0.0,0.0,0.0,0.0,0.0,0.0,0.0,0.0,0.0,0.0,0.0,0.0,0.0,0.0,0.0,0.0,0.0,0.0,0.0,0.0,0.0,0.0,0.0,0.0,0.0,0.0,0.0,0.0,0.0,0.0,0.0,0.0,0.0,0.0,0.0,0.0,0.0,0.0,0.0,0.0,0.0,0.0,0.0,0.0,0.0,0.0,0.0,0.0,0.0,0.0,0.0,0.0,0.0,0.0,0.0,0.0,0.0,0.0,0.0,0.0,0.0,0.0,0.0,0.0,0.0,0.0,0.0,0.0,0.0,0.0,0.0,2.6918,2.6173,0.0,0.0,0.0,0.0,0.0,0.0,0.0,0.0,0.0,0.0,0.0,0.0,0.0,0.0,0.0,0.0,0.0,0.0,0.0,0.0,0.0,0.0,0.0,0.0,0.0,0.0,0.0,0.0,0.0,0.0,0.0,0.0,0.0,0.0,0.0,0.0,0.0,0.0,0.0,0.0,0.0,0.0,0.0,0.0,0.0,0.0,0.0,0.0,0.0,0.0,0.0,0.0,0.0,0.0,0.0,0.0,0.0,0.0,0.0,0.0,0.0,0.0,0.0,0.0,0.0,0.0,0.0,0.0,0.0,0.0,0.0,0.0,0.0,0.0,0.0,0.0,0.0,0.0,0.0,0.0,0.0,0.0,0.0,0.0,0.0,0.0,0.0,0.0,0.0,0.0,0.0,0.0,0.0,0.0,0.0,0.0,0.0,0.0,0.0,0.0,0.0,0.0,0.0,0.0,0.0,0.0,0.0,0.0,0.0,0.0,0.0,0.0,0.0,0.0,2.8051,2.7646,0.0,0.0,0.0,0.0,0.0,0.0,0.0,0.0,0.0,0.0,0.0,0.0,0.0,0.0,0.0,0.0,0.0,0.0,0.0,0.0,0.0,0.0,0.0,0.0,0.0,0.0,0.0,0.0,0.0,0.0,0.0,0.0,0.0,0.0,0.0,0.0,0.0,0.0,0.0,0.0,0.0,0.0,0.0,0.0,0.0,0.0,0.0,0.0,0.0,0.0,0.0,0.0,0.0,0.0,0.0,0.0,0.0,0.0,0.0,0.0,0.0,0.0,0.0,0.0,0.0,0.0,0.0,0.0,0.0,0.0,0.0,0.0,0.0,0.0,0.0,0.0,0.0,0.0,0.0,0.0,0.0,0.0,0.0,0.0,0.0,0.0,0.0,0.0,0.0,0.0,0.0,0.0,0.0,0.0,0.0,0.0,0.0,0.0,0.0,0.0,0.0,0.0,0.0,0.0,0.0,0.0,0.0,0.0,2.9829,2.9893,2.9912,2.9889,3.0128,3.0522,2.9513,2.9534,3.0187,2.918,0.0,0.0,0.0,0.0,0.0,0.0,0.0,0.0,0.0,0.0,0.0,0.0,0.0,0.0,0.0,0.0,0.0,0.0,0.0,0.0,0.0,0.0,0.0,0.0,0.0,0.0,0.0,0.0,0.0,0.0,0.0,0.0,0.0,0.0,0.0,0.0,0.0,0.0,3.42,3.4407,3.4128,3.3416,0.0,0.0,0.0,0.0,0.0,0.0,0.0,0.0,0.0,0.0,0.0,0.0,0.0,0.0,0.0,0.0,0.0,0.0,0.0,0.0,0.0,0.0,0.0,0.0,0.0,0.0,0.0,0.0,0.0,0.0,0.0,0.0,0.0,0.0,0.0,0.0,0.0,0.0,0.0,0.0,0.0,0.0,0.0,0.0,3.0335,2.9866,0.0,0.0,0.0,0.0,0.0,0.0,0.0,0.0,0.0,0.0,0.0,0.0,0.0,2.9336,2.9273,2.9892,3.051,3.115,3.1543,3.2095,3.2764,3.2644,3.2688,3.2867,3.2696,0.0,3.0113,2.9962,0.0,0.0,0.0,0.0,0.0,0.0,0.0,0.0,0.0,0.0,0.0,0.0,0.0,0.0,0.0,0.0,0.0,0.0,0.0,0.0,0.0,0.0,0.0,0.0,0.0,0.0,0.0,0.0,0.0,0.0,0.0,0.0,0.0,0.0,0.0,0.0,3.4572,3.4643,3.4718,3.4673,3.4504,3.4231,3.4037,3.3746,3.3393,3.3393,0.0,0.0,0.0,0.0,0.0,0.0,0.0,0.0,0.0,0.0,0.0,0.0,0.0,0.0,0.0,0.0,0.0,0.0,0.0,0.0,0.0,0.0,0.0,0.0,0.0,0.0,0.0,0.0,0.0,0.0,0.0,0.0,0.0,0.0,0.0,0.0,0.0,0.0,0.0,3.0992,3.0824,3.0628,3.0551,3.0447,0.0,0.0,0.0,0.0,0.0,0.0,0.0,0.0,0.0,3.0521,3.1216,3.1621,3.1643,3.1906,3.219,3.2518,3.2732,3.2997,3.3298,3.3238,3.3238,3.3298,3.3298,3.2788,3.1933,3.1588,3.1297,3.0985,0.0,0.0,0.0,0.0,2.9968,3.0187,0.0,0.0,0.0,0.0,0.0,0.0,0.0,0.0,0.0,0.0,0.0,0.0,0.0,0.0,0.0,3.1352,0.0,0.0,0.0,0.0,0.0,0.0,0.0,0.0,0.0,0.0,0.0,0.0,3.4773,3.4875,3.5125,3.4893,3.4746,3.4627,3.4474,3.4105,3.3605,3.3527,3.3491,0.0,0.0,0.0,0.0,0.0,0.0,0.0,0.0,0.0,0.0,0.0,0.0,0.0,0.0,0.0,0.0,0.0,0.0,0.0,0.0,0.0,0.0,0.0,0.0,0.0,0.0,0.0,0.0,0.0,0.0,0.0,0.0,0.0,0.0,0.0,0.0,0.0,0.0,3.1144,3.1078,3.1055,3.1065,3.1055,0.0,0.0,0.0,0.0,0.0,0.0,3.0733,3.1932,3.2465,3.2074,3.298,3.3539,3.3677,3.3803,3.4053,3.4455,3.4575,3.4698,3.4836,3.4836,3.4836,3.4836,3.4836,3.4872,3.4797,3.3337,3.2713,3.2613,3.1612,3.1411,3.1649,3.1217,3.1262,3.1533,0.0,0.0,0.0,0.0,0.0,0.0,0.0,0.0,0.0,0.0,0.0,0.0,0.0,0.0,3.0548,3.1423,3.2172,3.2993,0.0,0.0,0.0,0.0,0.0,0.0,0.0,0.0,0.0,3.5164,3.5164,3.5187,3.5196,3.512,3.4936,3.4689,3.4679,3.4483,3.4142,3.3881,3.3787,3.376,0.0,0.0,0.0,0.0,0.0,0.0,0.0,0.0,0.0,0.0,0.0,0.0,0.0,0.0,0.0,0.0,0.0,0.0,0.0,0.0,0.0,0.0,0.0,0.0,0.0,0.0,0.0,0.0,0.0,0.0,0.0,0.0,0.0,0.0,0.0,0.0,0.0,0.0,0.0,3.123,3.1401,0.0,0.0,0.0,0.0,3.2595,3.2932,3.3423,3.4195,3.4337,3.4223,3.3884,3.3936,3.4113,3.4449,3.4892,3.5842,3.7299,3.7737,3.8327,3.9006,3.9006,3.9006,3.9006,3.9006,3.9006,3.8698,3.4914,3.3317,3.3238,3.3183,3.3096,3.3019,3.3105,3.3148,3.3191,0.0,0.0,0.0,0.0,0.0,0.0,0.0,0.0,0.0,0.0,0.0,0.0,0.0,3.0663,3.1328,3.2203,3.3047,3.3891,3.4713,0.0,0.0,0.0,0.0,0.0,0.0,0.0,3.5197,3.5204,3.5194,3.52,3.52,3.5133,3.5057,3.495,3.495,3.4894,3.4747,3.4307,3.4123,3.4111,3.3974,3.3806,0.0,0.0,0.0,0.0,0.0,0.0,0.0,0.0,0.0,0.0,0.0,0.0,0.0,0.0,0.0,0.0,0.0,0.0,0.0,0.0,0.0,0.0,0.0,0.0,0.0,0.0,0.0,0.0,0.0,0.0,0.0,0.0,0.0,0.0,0.0,0.0,0.0,3.2635,3.277,0.0,3.341,3.3501,3.3661,3.4004,3.4114,3.453,3.5358,3.5859,3.6293,3.6686,3.7153,3.7473,3.7596,3.7753,3.8115,3.8664,3.8841,3.9054,3.9297,3.9297,3.9297,3.9297,3.9297,3.9297,3.9188,3.7784,3.7003,3.6622,3.5864,3.5521,3.5363,3.4423,3.4063,3.4038,0.0,0.0,0.0,0.0,0.0,0.0,0.0,0.0,0.0,0.0,0.0,3.0208,3.0208,3.093,3.1744,3.2619,3.3509,3.4335,3.5148,0.0,0.0,0.0,0.0,0.0,0.0,3.5205,3.5205,3.5205,3.5482,3.5641,3.5641,3.5859,3.5983,3.5983,3.5983,3.5826,3.5542,3.518,3.4806,3.4418,3.4294,3.4092,3.3859,0.0,0.0,0.0,0.0,0.0,0.0,0.0,0.0,0.0,0.0,0.0,0.0,0.0,0.0,0.0,0.0,0.0,0.0,0.0,0.0,0.0,0.0,0.0,0.0,0.0,0.0,0.0,0.0,0.0,0.0,0.0,0.0,0.0,0.0,3.2625,3.3123,3.382,3.3997,3.435,3.5044,3.5215,3.55,3.6049,3.6211,3.6639,3.7414,3.7911,3.836,3.8766,3.9239,3.9564,3.9666,3.9829,4.0176,4.0679,4.0844,4.1057,4.1317,4.1317,4.1317,4.1317,4.1317,4.1317,4.1314,4.1141,4.0898,4.0425,3.8416,3.763,3.751,3.6491,3.6114,3.6098,0.0,0.0,0.0,0.0,0.0,0.0,0.0,0.0,0.0,0.0,3.0208,3.0208,3.0208,3.0949,3.1782,3.2619,3.3528,3.4373,3.5148,3.5205,0.0,0.0,0.0,0.0,3.5205,3.5224,3.5244,3.5244,3.6099,3.6538,3.6557,3.7349,3.7697,3.7697,3.7697,3.7273,3.6538,3.6538,3.5855,3.4727,3.4448,3.4201,3.3999,0.0,0.0,0.0,0.0,0.0,0.0,0.0,0.0,0.0,0.0,0.0,0.0,0.0,0.0,0.0,0.0,0.0,0.0,0.0,0.0,0.0,0.0,0.0,0.0,0.0,0.0,0.0,0.0,0.0,0.0,0.0,0.0,0.0,3.36,3.3842,3.4245,3.4746,3.511,3.5482,3.5982,3.6336,3.7167,3.8741,3.922,3.9767,4.0501,4.0528,4.0374,4.0043,4.0034,4.0194,4.0549,4.0994,4.1981,4.3461,4.3927,4.4548,4.5291,4.5291,4.5291,4.5291,4.5291,4.5291,4.5261,4.4813,4.4614,4.4285,4.0806,3.9437,3.9437,3.9385,3.9342,3.9317,0.0,0.0,0.0,0.0,0.0,0.0,0.0,0.0,0.0,0.0,3.0208,3.0208,3.0208,3.148,3.2451,3.2676,3.404,3.4957,3.5186,0.0,0.0,0.0,0.0,0.0,3.5205,3.5817,3.6137,3.6137,3.6963,3.7368,3.7368,3.7597,3.7697,3.7697,3.7697,3.7578,3.7368,3.7368,3.6847,3.5943,3.5229,3.4807,3.4564,0.0,0.0,0.0,0.0,0.0,0.0,0.0,0.0,0.0,0.0,0.0,0.0,0.0,0.0,0.0,0.0,0.0,0.0,0.0,0.0,0.0,0.0,0.0,0.0,0.0,0.0,0.0,0.0,0.0,0.0,0.0,3.505,3.5166,3.4787,3.5058,3.5796,3.708,3.7328,3.7868,3.9103,3.9319,3.9554,3.9996,4.0149,4.0537,4.1325,4.1361,4.1849,4.2919,4.2956,4.3276,4.394,4.4087,4.4353,4.4776,4.4915,4.5091,4.5291,4.5291,4.5291,4.5291,4.5291,4.5291,4.5281,4.517,4.5101,4.4939,4.3277,4.2649,4.2508,4.1382,4.0435,3.9702,0.0,0.0,0.0,0.0,0.0,0.0,0.0,0.0,0.0,0.0,3.0208,3.0208,3.0208,3.171,3.2695,3.2695,3.4278,3.5266,3.519,0.0,0.0,0.0,0.0,3.5377,3.574,3.6233,3.6672,3.7001,3.7846,3.8247,3.8247,3.8629,3.8782,3.8782,3.8782,3.8591,3.8247,3.8247,3.7769,3.6925,3.6078,3.5384,3.4841,3.4768,3.4535,3.4211,3.4031,3.3891,3.378,3.3626,0.0,0.0,0.0,0.0,0.0,0.0,0.0,0.0,0.0,0.0,0.0,0.0,0.0,0.0,0.0,0.0,0.0,0.0,0.0,0.0,0.0,0.0,0.0,0.0,3.6657,3.6949,3.7368,3.7072,3.7395,3.8971,3.9152,3.9659,4.0872,4.0999,4.1153,4.1488,4.1823,4.2203,4.2674,4.3018,4.3633,4.4566,4.4603,4.482,4.5291,4.5291,4.5472,4.5798,4.5798,4.5979,4.6305,4.6305,4.6305,4.6305,4.6305,4.6305,4.6305,4.6305,4.6305,4.6181,0.0,0.0,0.0,0.0,4.2729,4.2129,0.0,0.0,0.0,0.0,0.0,0.0,0.0,0.0,0.0,0.0,0.0,3.0206,3.0192,3.171,3.2695,3.2695,3.4333,3.5321,0.0,0.0,0.0,3.5246,3.5227,3.5635,3.6491,3.6608,3.7039,3.785,3.8725,3.914,3.9159,3.9943,4.0306,4.0306,4.0306,3.9866,3.914,3.914,3.8648,3.7769,3.7077,3.6103,3.505,3.4912,3.4663,3.439,3.43,3.4099,3.3881,3.3815,0.0,0.0,0.0,0.0,0.0,0.0,0.0,0.0,0.0,0.0,0.0,0.0,0.0,0.0,0.0,0.0,0.0,0.0,0.0,0.0,0.0,0.0,0.0,0.0,3.84,3.8979,4.0429,3.946,3.9097,4.0474,4.0637,4.099,4.1886,4.1958,4.2293,4.3109,4.3833,4.425,4.425,4.491,0.0,0.0,0.0,4.5472,4.5562,4.5562,4.5924,4.6639,4.6639,4.7055,4.7833,4.7833,4.787,4.796,4.796,4.796,4.796,4.796,4.7924,4.7671,4.616,4.5526,4.5436,4.5436,4.5381,4.5291,0.0,0.0,0.0,0.0,0.0,0.0,0.0,0.0,0.0,3.0288,3.0288,3.027,3.0202,3.171,3.2695,3.2695,3.4263,3.5266,0.0,0.0,3.5516,3.5516,3.5415,3.5773,3.6649,3.7191,3.7884,3.8744,3.9618,4.0057,4.0057,4.0229,4.0306,4.0306,4.0306,4.021,4.0057,4.0057,3.9542,3.8725,3.8586,3.7571,3.6105,3.5395,3.5072,3.4992,3.4718,3.4548,3.4375,3.3941,3.3773,3.3678,3.3473,0.0,0.0,0.0,0.0,0.0,0.0,0.0,0.0,0.0,0.0,0.0,0.0,0.0,0.0,0.0,0.0,0.0,0.0,0.0,0.0,3.9089,3.9677,4.0392,4.1325,4.1198,4.1126,4.1433,4.1469,4.204,4.3498,4.3643,4.3969,4.4784,4.4983,4.5073,4.5073,4.5218,4.5599,4.625,4.6269,4.6576,4.7218,4.7236,4.7308,4.7471,4.7471,0.0,4.8666,4.8666,4.9021,4.9648,4.9648,4.9648,4.9648,4.9648,4.9257,4.8576,4.7616,4.6838,4.6269,4.6269,4.5852,4.5291,0.0,0.0,0.0,0.0,0.0,0.0,0.0,0.0,0.0,0.0,3.0397,3.0552,3.0966,3.2105,3.3029,3.3458,3.4664,0.0,0.0,3.5588,3.5607,3.5607,3.5531,3.6093,3.7363,3.7735,3.8546,3.9858,4.0212,4.0396,4.0396,4.0333,4.0306,4.0306,4.0306,4.0306,4.0306,4.0306,4.0057,3.9618,3.9179,3.8247,3.7001,3.618,3.5581,3.5164,3.4964,3.4768,3.4569,3.4292,3.4023,3.378,3.3636,3.3517,3.3393,0.0,0.0,0.0,0.0,0.0,0.0,0.0,0.0,0.0,0.0,0.0,0.0,0.0,0.0,3.82,3.82,0.0,4.0085,4.0492,4.0863,4.1515,4.2728,4.2891,4.2891,4.2891,4.2891,4.3389,4.4584,4.4693,4.4874,4.5273,4.5671,4.5906,4.5906,4.6287,4.6693,4.7102,4.7091,4.729,4.7707,4.8105,4.8304,4.8304,4.8713,4.9112,4.9492,4.9492,4.972,5.0101,5.0101,5.0101,5.0101,5.0101,4.9865,4.9456,4.9057,4.8152,4.7091,4.7091,4.6848,4.6504,0.0,0.0,0.0,0.0,0.0,0.0,0.0,0.0,0.0,0.0,3.0528,3.0776,3.1478,3.2421,3.3429,0.0,0.0,0.0,0.0,3.5667,3.5653,3.5653,3.5633,3.6333,3.7857,3.803,3.8873,4.0442,4.0504,4.0542,4.0538,4.0434,4.0359,4.0346,4.0346,4.0324,4.0306,4.0306,4.0306,4.0248,3.9542,3.8629,3.7636,3.6982,3.6082,3.5185,3.5114,3.4927,3.4693,3.4626,3.431,3.3934,3.3822,3.3643,3.351,3.3607,3.3621,0.0,0.0,0.0,0.0,0.0,0.0,0.0,0.0,3.7769,3.8319,3.8499,3.9094,3.961,3.9688,4.0316,4.1034,4.1696,4.2069,4.2732,4.4011,4.4406,4.458,4.4676,4.448,4.4639,4.5454,4.5526,4.5599,4.5743,4.6377,4.6729,4.6729,4.7345,4.7749,4.7814,4.797,4.8094,4.8176,4.8959,4.9336,4.9259,4.9905,5.0261,5.0336,5.0336,5.0408,5.0572,5.0572,5.0572,5.0572,5.0572,5.0463,5.0336,5.0336,4.9449,4.817,4.817,4.817,4.817,0.0,0.0,0.0,0.0,0.0,0.0,0.0,0.0,0.0,0.0,0.0,0.0,0.0,0.0,0.0,0.0,0.0,0.0,3.5696,3.5799,3.5869,3.5869,3.5745,3.6147,3.7093,3.776,3.858,3.9547,4.0311,4.0675,4.0675,4.0659,4.0581,4.0484,4.0484,4.0413,4.0306,4.0306,4.0306,4.0287,4.0191,3.9159,3.7697,3.7597,3.6581,3.5189,3.5123,3.5075,3.4992,3.4694,3.4556,3.4433,3.3947,3.3787,3.3851,3.4337,0.0,3.4635,3.545,3.6182,3.6922,3.7729,3.8001,3.8064,0.0,3.8322,3.8774,3.9546,3.9962,4.0333,4.074,4.1464,4.2042,4.2134,4.3398,4.4407,4.4527,4.5477,4.6292,4.67,4.5818,4.549,4.6287,4.6377,4.6657,4.7381,4.7508,4.7562,4.7562,4.7652,4.7847,4.8219,4.8936,4.9469,4.9823,5.0638,5.0841,5.0503,5.0595,5.0827,5.1169,5.1169,5.1568,5.2226,5.2226,5.2226,5.2226,5.2226,5.1821,5.1169,5.1169,5.0626,4.9829,4.9829,4.9829,4.9829,0.0,0.0,0.0,0.0,0.0,0.0,0.0,0.0,0.0,0.0,0.0,0.0,0.0,0.0,0.0,0.0,0.0,0.0,3.5829,3.5875,3.591,3.591,3.5845,3.6216,3.709,3.7428,3.8246,3.9626,3.9917,4.0316,4.0801,4.073,4.0665,4.0605,4.0538,4.0472,4.0413,4.0337,4.0019,3.9542,3.9542,3.8529,3.7001,3.7001,3.6256,3.5197,3.5177,3.5438,0.0,0.0,3.5092,3.5277,3.4866,3.4624,3.4594,3.5133,3.5305,0.0,3.6478,3.7355,3.8099,3.86,3.8748,3.8899,3.9375,3.9564,3.9859,4.067,4.1297,4.1761,4.194,4.2649,4.3354,4.3859,4.4525,4.532,4.6228,4.6772,4.7333,4.8012,4.7647,4.7398,4.7542,4.7549,4.7695,4.8014,4.8221,4.8337,4.8337,4.8337,4.8642,4.9326,4.9677,5.0148,5.0784,5.1601,5.1918,5.1739,5.2229,5.2538,5.2688,5.2688,5.2745,5.2831,5.2606,5.2498,5.2498,5.2498,5.2299,5.2002,5.2002,5.1792,5.1387,5.0445,5.0101,5.0101,0.0,0.0,0.0,0.0,0.0,0.0,0.0,0.0,0.0,0.0,0.0,0.0,0.0,0.0,0.0,0.0,0.0,0.0,0.0,3.591,3.591,3.591,3.591,3.6201,3.6824,3.7077,3.7818,3.9083,3.9223,3.9621,4.0243,4.0386,4.0292,4.0042,4.0182,4.007,3.9788,3.967,3.9243,3.8648,3.8648,3.7784,3.65,3.65,3.6118,3.5564,3.5537,3.586,0.0,0.0,3.6046,3.6303,3.5992,3.5709,3.5594,3.6123,3.636,3.666,3.7517,3.8221,3.8763,3.9051,3.9327,3.9676,4.0264,4.0636,4.1088,4.1843,4.256,4.3074,4.3202,4.3695,4.4379,4.5252,4.5554,4.6173,4.7564,4.8055,4.8434,4.8936,4.9019,4.8919,4.8668,4.8514,4.8448,4.8448,4.8667,4.8909,4.9166,4.9194,4.9635,5.0619,5.0844,5.1306,5.2013,5.2787,5.3128,5.303,5.3609,5.3814,5.373,5.373,5.3567,5.3267,5.2853,5.2667,5.2656,5.2556,5.2498,5.2498,5.2498,5.2498,5.2353,5.1187,5.0753,5.0753,0.0,0.0,0.0,0.0,0.0,0.0,0.0,0.0,0.0,0.0,0.0,0.0,0.0,0.0,0.0,0.0,0.0,0.0,0.0,3.591,3.591,3.591,3.591,3.591,3.5949,3.6766,3.7233,3.7272,3.8127,3.8555,3.8594,3.9429,3.9312,3.841,3.9243,3.9007,3.7989,3.7962,3.7877,3.7736,3.7736,3.7234,3.65,3.65,3.6481,3.6458,3.6391,0.0,0.0,0.0,3.7523,3.75,3.7224,3.6958,0.0,3.7304,3.7776,3.821,3.855,3.8681,3.8778,3.9112,3.9781,4.0369,4.0388,4.1251,4.2278,4.3075,4.3589,4.4003,4.4455,4.4554,4.4856,4.5737,4.648,4.7226,4.8065,4.9189,4.9821,4.9502,4.9532,4.9547,4.9465,4.9052,4.879,4.879,4.8799,4.9194,5.0114,5.016,5.0736,5.2001,5.2724,5.3343,5.381,5.4498,5.4654,5.433,5.4294,5.4113,5.3805,5.3805,5.3796,5.3749,5.3277,5.3086,5.3054,5.2667,5.2498,5.2498,5.2498,5.2498,5.248,5.2444,5.2426,5.2426,0.0,0.0,0.0,0.0,0.0,0.0,0.0,0.0,0.0,0.0,0.0,0.0,0.0,0.0,0.0,0.0,0.0,0.0,0.0,3.591,3.591,3.591,3.591,3.591,3.591,3.6181,3.6629,3.7194,3.7487,3.7935,3.8519,3.8792,3.876,3.8442,3.8656,3.8513,3.8158,3.7978,3.7578,3.703,3.6933,3.6409,3.5645,3.5645,3.6003,3.6576,0.0,0.0,0.0,3.7759,3.8012,3.8428,3.8155,3.8001,3.8021,3.848,3.8607,3.8711,3.9216,3.9358,3.957,4.0431,4.09,4.1417,4.2477,4.3016,4.3517,4.4336,4.446,4.4644,4.5341,4.5026,4.5297,4.724,4.7476,4.7884,4.9261,4.9802,5.0012,4.9901,4.9907,4.9914,4.9894,4.9554,4.9309,4.928,4.9473,5.0012,5.0955,5.0943,5.1663,5.325,5.3552,5.3993,5.4682,5.4912,5.4981,5.4862,5.484,5.4761,5.4658,5.439,5.4263,5.4238,5.3814,5.3627,5.3626,5.3473,5.3299,5.3086,5.2993,5.2795,5.2559,5.2515,5.2498,5.2498,0.0,0.0,0.0,0.0,0.0,0.0,0.0,0.0,0.0,0.0,0.0,0.0,0.0,0.0,0.0,0.0,0.0,0.0,0.0,0.0,3.591,3.591,3.591,3.591,3.591,3.591,3.6162,3.6746,3.6746,3.7019,3.7584,3.7896,3.7876,3.7582,3.7807,3.7708,3.7357,3.7193,3.6762,3.6227,3.6144,3.574,3.5205,3.5205,3.574,0.0,0.0,0.0,0.0,3.8697,3.8969,3.9362,3.92,3.9047,3.8961,3.9177,3.9104,3.9049,3.9555,3.9932,4.0363,4.1214,4.1895,4.2634,4.3661,4.4132,4.4508,4.5033,4.4918,4.4922,4.5578,4.5161,4.5489,4.78,4.789,4.8216,4.9891,5.0139,5.0139,5.0139,5.0158,5.0164,5.0145,4.9967,4.9814,4.9717,5.0211,5.09,5.1828,5.2112,5.2937,5.4394,5.4393,5.4641,5.5188,5.514,5.5101,5.5101,5.5128,5.5142,5.5135,5.488,5.4746,5.4731,5.4295,5.4098,5.4089,5.3958,5.3768,5.3568,5.3491,5.3293,5.3073,5.3017,5.3004,5.295,0.0,0.0,0.0,0.0,0.0,0.0,0.0,0.0,0.0,0.0,0.0,0.0,0.0,0.0,0.0,0.0,0.0,0.0,0.0,0.0,0.0,3.591,3.591,3.591,3.591,3.591,3.591,3.591,3.591,3.591,3.5929,3.6746,3.6688,3.5947,3.6763,3.6589,3.5696,3.5687,3.5576,3.5398,3.5391,3.5315,3.5205,3.5205,0.0,0.0,0.0,0.0,0.0,4.0019,4.0306,4.0306,4.0306,4.0029,3.9664,3.9414,3.9307,3.9327,3.9685,4.0399,4.1127,4.1536,4.2787,4.3923,4.3961,4.4601,4.5203,4.5203,4.4994,4.491,4.5262,4.5036,4.5448,4.7451,4.7737,4.8281,4.9914,5.0181,5.0219,5.0219,5.0267,5.0278,5.0206,5.0267,5.0249,5.012,5.0901,5.1789,5.2666,5.3537,5.4422,5.5377,5.528,5.5261,5.5396,5.5214,5.5127,5.5127,5.5182,5.5216,5.5216,5.5216,5.5216,5.5196,5.4739,5.4543,5.4519,5.4143,5.3958,5.394,5.394,5.3922,5.3904,5.3904,5.3895,5.3767,0.0,0.0,0.0,0.0,0.0,0.0,0.0,0.0,0.0,0.0,0.0,0.0,0.0,0.0,0.0,0.0,0.0,0.0,0.0,0.0,0.0,0.0,0.0,0.0,0.0,0.0,0.0,0.0,0.0,3.591,3.591,3.6123,3.6103,3.5907,3.6031,3.5933,3.5689,3.5538,3.5441,3.5388,0.0,3.5227,3.5205,0.0,0.0,0.0,0.0,0.0,0.0,4.0019,4.0306,4.0306,4.0306,4.0078,3.9878,4.0017,3.9889,3.9915,4.0802,4.1191,4.1683,4.3022,4.3671,4.4138,4.4798,4.5109,4.5262,4.5262,4.5023,4.5021,4.5765,4.5311,4.5381,4.7144,4.7618,4.8153,4.9234,4.9897,5.0278,5.0278,5.029,5.0296,5.0278,5.029,5.029,5.0255,5.1014,5.1859,5.2723,5.3544,5.4422,5.5377,5.5364,5.5364,5.5396,5.5345,5.5325,5.5325,5.5345,5.5358,5.5358,5.5358,5.5358,5.5332,5.5221,5.5161,5.5154,5.5059,5.4836,5.4569,5.4457,5.427,5.4039,5.395,5.3895,5.3868,0.0,0.0,0.0,0.0,0.0,0.0,0.0,0.0,0.0,0.0,0.0,0.0,0.0,0.0,0.0,0.0,0.0,0.0,0.0,0.0,0.0,0.0,0.0,0.0,0.0,0.0,0.0,0.0,0.0,0.0,0.0,3.591,3.5875,3.5804,3.5739,3.5676,3.565,0.0,0.0,0.0,0.0,0.0,0.0,0.0,0.0,0.0,0.0,0.0,0.0,3.9446,3.9733,3.9809,4.0191,4.0191,4.0103,4.0253,4.0186,4.0203,4.0817,4.1514,4.2297,4.3247,4.4031,4.4704,4.5187,4.5302,4.5302,4.5302,4.5034,4.5001,4.564,4.5227,4.5267,4.6699,4.7106,4.766,4.8913,4.9486,4.9901,5.0264,5.0302,5.0302,5.0302,5.0302,5.0302,5.0302,5.1399,5.2271,5.2772,5.3958,5.4868,5.5377,5.5396,5.5396,5.5396,5.5396,5.5396,5.5396,5.5396,5.5396,5.5396,5.5396,5.5396,5.5396,5.5396,5.5396,5.5396,5.5396,5.5266,5.5059,5.4978,5.4843,5.4658,5.4585,5.4569,5.4569,0.0,0.0,0.0,0.0,0.0,0.0,0.0,0.0,0.0,0.0,0.0,0.0,0.0,0.0,0.0,0.0,0.0,0.0,0.0,0.0,0.0,0.0,0.0,0.0,0.0,0.0,0.0,0.0,0.0,0.0,0.0,0.0,0.0,0.0,0.0,0.0,0.0,0.0,0.0,0.0,0.0,0.0,0.0,0.0,0.0,0.0,0.0,0.0,0.0,0.0,3.8897,3.914,4.0038,4.0306,4.0306,4.0306,4.0306,4.0325,4.0439,4.1509,4.266,4.2775,4.3883,4.4996,4.5111,4.513,4.5168,4.5283,4.5081,4.4957,4.5246,4.5057,4.5185,4.6181,4.6418,4.7073,4.8703,4.9028,4.9391,5.0206,5.0302,5.0302,5.0302,5.0302,5.0302,5.0302,5.1754,5.2696,5.2792,5.4448,5.5396,5.5396,5.5396,5.5396,5.5396,5.5396,5.5396,5.5396,5.5396,5.5396,5.5396,5.5396,5.5396,5.5396,5.5396,5.5396,5.5396,5.5396,5.5396,5.5396,5.5396,5.5396,5.5396,5.5396,5.5396,5.5396,0.0,0.0,0.0,0.0,0.0,0.0,0.0,0.0,0.0,0.0,0.0,0.0,0.0,0.0,0.0,0.0,0.0,0.0,0.0,0.0,0.0,0.0,0.0,0.0,0.0,0.0,0.0,0.0,0.0,0.0,0.0,0.0,0.0,0.0,0.0,0.0,0.0,0.0,0.0,0.0,0.0,0.0,0.0,0.0,0.0,0.0,0.0,0.0,0.0,0.0,3.84,3.914,4.0038,4.0306,4.0306,4.0306,4.0306,4.0458,4.1113,4.15,4.1901,4.2622,4.3023,4.3405,4.4069,4.4241,4.4432,4.5149,4.5251,4.5235,4.5297,4.5251,4.5273,4.5488,4.6061,4.6858,4.787,4.864,4.9391,5.0206,5.0302,5.0302,5.0302,5.0302,5.0302,5.0302,5.1232,5.2098,5.2753,5.4448,5.5396,5.5396,5.5396,5.5396,5.5396,5.5396,5.5396,5.5396,5.5396,5.5396,5.5396,5.5396,5.5396,5.5396,5.5396,5.5396,5.5396,5.5396,5.5396,5.5396,5.5396,5.5396,5.5396,5.5396,5.5396,5.5396,0.0,0.0,0.0,0.0,0.0,0.0,0.0,0.0,0.0,0.0,0.0,0.0,0.0,0.0,0.0,0.0,0.0,0.0,0.0,0.0,0.0,0.0,0.0,0.0,0.0,0.0,3.591,3.591,0.0,3.5854,3.5797,3.5797,3.5711,3.5538,0.0,0.0,0.0,0.0,0.0,0.0,0.0,0.0,0.0,0.0,0.0,0.0,0.0,0.0,0.0,0.0,3.7345,3.7918,3.9217,3.9924,4.0306,4.0306,4.0306,4.0382,4.0764,4.117,4.1595,4.2011,4.245,4.2908,4.3286,4.3381,4.361,4.4451,4.4628,4.4762,4.5225,4.5302,4.5302,4.5302,4.5627,4.6175,4.701,4.787,4.8735,4.9582,5.0054,5.0302,5.0302,5.0302,5.0302,5.0302,5.1117,5.1939,5.2753,5.4448,5.5396,5.5396,5.5396,5.5396,5.5396,5.5396,5.5396,5.5396,5.5396,5.5396,5.5396,5.5396,5.5396,5.5396,5.5396,5.5396,5.5396,5.5396,5.5396,5.5396,5.5396,5.5396,5.5396,5.5396,5.5396,5.5396,0.0,0.0,0.0,0.0,0.0,0.0,0.0,0.0,0.0,0.0,0.0,0.0,0.0,0.0,0.0,0.0,0.0,0.0,0.0,0.0,0.0,0.0,0.0,0.0,0.0,0.0,0.0,3.5869,3.5869,0.0,0.0,0.0,0.0,0.0,3.5398,3.533,3.5205,0.0,0.0,0.0,0.0,3.5205,0.0,0.0,0.0,0.0,0.0,0.0,0.0,0.0,3.6347,3.6767,3.8243,3.9312,4.0057,4.0248,4.0306,4.0306,4.0306,4.0764,4.1246,4.1246,4.1762,4.2316,4.2488,4.2526,4.2756,4.3572,4.3873,4.4202,4.4895,4.5168,4.5302,4.5302,4.5302,4.5588,4.6385,4.7259,4.8118,4.8989,4.9805,5.0302,5.0302,5.0302,5.0302,5.0302,5.1117,5.2034,5.304,5.4543,5.5396,5.5396,5.5396,5.5396,5.5396,5.5396,5.5396,5.5396,5.5396,5.5396,5.5396,5.5396,5.5396,5.5396,5.5396,5.5396,5.5396,5.5396,5.5396,5.5396,5.5396,5.5396,5.5396,5.5396,5.5396,5.5396,0.0,0.0,0.0,0.0,0.0,0.0,0.0,0.0,0.0,0.0,0.0,0.0,0.0,0.0,0.0,0.0,0.0,0.0,0.0,0.0,0.0,0.0,0.0,0.0,0.0,0.0,0.0,3.5729,3.5729,0.0,0.0,0.0,0.0,0.0,0.0,3.533,3.5205,3.5205,0.0,0.0,0.0,0.0,0.0,0.0,0.0,0.0,0.0,3.5205,3.5205,0.0,3.5855,3.6653,3.754,3.8419,3.9274,4.0076,4.0306,4.0306,4.0306,4.0344,4.042,4.042,4.0478,4.0726,4.1457,4.1614,4.1863,4.2737,4.3496,4.4025,4.4102,4.4762,4.5302,4.5302,4.5302,4.5588,4.6385,4.7259,4.8118,4.8989,4.9805,5.0302,5.0302,5.0302,5.0302,5.0302,5.1117,5.2302,5.3894,5.4887,5.5396,5.5396,5.5396,5.5396,5.5396,5.5396,5.5396,5.5396,5.5396,5.5396,5.5396,5.5396,5.5396,5.5396,5.5396,5.5396,5.5396,5.5396,5.5396,5.5396,5.5396,5.5396,5.5396,5.5396,5.5396,5.5396,0.0,0.0,0.0,0.0,0.0,0.0,0.0,0.0,0.0,0.0,0.0,0.0,0.0,0.0,0.0,0.0,0.0,0.0,0.0,0.0,0.0,0.0,0.0,0.0,0.0,0.0,3.4909,3.4868,3.5384,0.0,0.0,0.0,0.0,0.0,0.0,3.5254,3.5205,3.5205,0.0,0.0,0.0,0.0,0.0,0.0,0.0,0.0,0.0,0.0,3.5205,3.5205,3.5435,3.5874,3.6714,3.7559,0.0,3.9885,4.0306,4.0306,4.0306,4.0306,4.0306,4.0306,4.0306,4.0382,4.0707,4.0783,4.1017,4.1839,4.2278,4.2789,4.3815,4.4279,4.4685,4.5206,4.5302,4.5416,4.5736,4.6953,4.7927,4.8277,4.95,5.0302,5.0302,5.0302,5.0302,5.0302,5.1117,5.2092,5.3263,5.4142,5.4868,5.5377,5.5396,5.5396,5.5396,5.5396,5.5396,5.5396,5.5396,5.5396,5.5396,5.5396,5.5396,5.5396,5.5396,5.5396,5.5396,5.5396,5.5396,5.5396,5.5396,5.5396,5.5396,5.5396,5.5396,5.5396,0.0,0.0,0.0,0.0,0.0,0.0,0.0,0.0,0.0,0.0,0.0,0.0,0.0,0.0,0.0,0.0,0.0,0.0,0.0,0.0,0.0,0.0,0.0,0.0,0.0,0.0,3.404,3.4235,3.4864,3.5219,0.0,0.0,3.5285,3.5205,0.0,0.0,0.0,0.0,0.0,0.0,0.0,0.0,0.0,0.0,0.0,0.0,0.0,0.0,0.0,0.0,0.0,3.5358,0.0,0.0,0.0,0.0,4.0095,4.0306,4.0306,4.0306,4.0306,4.0306,4.0306,4.0306,4.0306,4.0306,4.0458,4.1036,4.1328,4.1934,4.3381,4.3834,4.4298,0.0,0.0,4.5302,4.5302,4.6748,4.7794,4.7794,4.9284,5.0302,5.0302,5.0302,5.0302,5.0302,5.0869,5.1576,5.2403,5.3244,5.4237,5.5358,5.5396,5.5396,5.5396,5.5396,5.5396,5.5396,5.5396,5.5396,5.5396,5.5396,5.5396,5.5396,5.5396,5.5396,5.5396,5.5396,5.5396,5.5396,5.5396,5.5396,5.5396,5.5396,5.5396,5.5396,0.0,0.0,0.0,0.0,0.0,0.0,0.0,0.0,0.0,0.0,0.0,0.0,0.0,0.0,0.0,0.0,0.0,0.0,0.0,0.0,0.0,0.0,0.0,0.0,0.0,0.0,3.3437,3.4106,3.4106,3.4489,3.5209,3.5209,3.5209,3.5205,0.0,0.0,0.0,0.0,0.0,0.0,0.0,0.0,0.0,0.0,0.0,0.0,0.0,0.0,0.0,0.0,0.0,0.0,0.0,3.7058,3.7865,0.0,3.9618,4.0306,4.0306,4.0306,4.0306,4.0306,4.0306,4.0306,4.0306,4.0306,4.0306,4.0306,4.096,4.1767,4.2641,4.3457,4.4298,4.5168,4.5302,0.0,4.5302,4.6748,4.7794,4.7794,4.9284,5.0302,5.0302,5.0302,5.0302,5.0302,5.0302,5.0678,5.1576,5.2384,5.3607,5.5339,5.5396,5.5396,5.5396,5.5396,5.5396,5.5396,5.5396,5.5396,5.5396,5.5396,5.5396,5.5396,5.5396,5.5396,5.5396,5.5396,5.5396,5.5396,5.5396,5.5396,5.5396,5.5396,5.5396,5.5396,0.0,0.0,0.0,0.0,0.0,0.0,0.0,0.0,0.0,0.0,0.0,0.0,0.0,0.0,0.0,0.0,0.0,0.0,0.0,0.0,0.0,0.0,0.0,0.0,0.0,0.0,0.0,3.2248,3.3454,3.4156,3.4392,3.4942,3.5205,3.5205,3.5205,3.5205,0.0,0.0,0.0,0.0,0.0,0.0,3.5205,0.0,0.0,0.0,0.0,0.0,0.0,0.0,0.0,0.0,0.0,0.0,0.0,3.7865,3.914,4.0306,4.0306,4.0306,4.0306,4.0306,4.0306,4.0306,4.0306,4.0306,4.0306,4.0306,4.0497,4.0941,4.1762,4.2603,4.3457,4.4279,4.4914,4.5302,4.5302,4.6233,4.7125,4.7736,4.9284,5.0302,5.0302,5.0302,5.0302,5.0302,5.0302,5.0678,5.1557,5.1843,5.276,5.4467,5.5091,5.5396,5.5396,5.5396,5.5396,5.5396,5.5396,5.5396,5.5396,5.5396,5.5396,5.5396,5.5396,5.5396,5.5396,5.5396,5.5396,5.5396,5.5396,5.5396,5.5396,5.5396,5.5396,5.5396,0.0,0.0,0.0,0.0,0.0,0.0,0.0,0.0,0.0,0.0,0.0,0.0,0.0,0.0,0.0,0.0,0.0,0.0,0.0,0.0,0.0,0.0,0.0,0.0,0.0,0.0,3.1117,3.1442,3.284,3.3681,3.401,3.4827,3.5205,3.5205,3.5205,3.5205,0.0,0.0,0.0,0.0,0.0,0.0,3.5205,0.0,0.0,0.0,0.0,0.0,0.0,0.0,0.0,0.0,0.0,0.0,0.0,0.0,3.8453,3.9885,4.021,4.0306,4.0306,4.0306,4.0306,4.0306,4.0306,4.0306,4.0306,4.0306,4.0306,4.0554,4.1347,4.2202,4.3056,4.3873,4.4723,4.5302,4.5302,4.5984,4.6953,4.8157,4.948,5.0302,5.0302,5.0302,5.0302,5.0302,5.0302,5.055,5.1079,5.1423,5.2073,5.3129,5.4288,5.49,5.49,5.5244,5.5396,5.5396,5.5396,5.5396,5.5396,5.5396,5.5396,5.5396,5.5396,5.5396,0.0,5.5396,5.5396,5.5396,5.5396,5.5396,5.5396,5.5396,5.5396,5.5396,0.0,0.0,0.0,0.0,0.0,0.0,0.0,0.0,0.0,0.0,0.0,0.0,0.0,0.0,0.0,0.0,0.0,0.0,0.0,0.0,0.0,0.0,0.0,0.0,0.0,3.0208,3.0609,3.1408,3.2222,3.3066,3.3933,3.4732,3.5148,3.5205,3.5205,3.5205,3.5205,3.5205,3.5205,3.5205,3.5205,3.5205,0.0,0.0,0.0,0.0,0.0,0.0,0.0,0.0,0.0,0.0,0.0,0.0,0.0,0.0,0.0,0.0,0.0,4.0248,4.0306,4.0306,4.0306,4.0306,4.0306,4.0306,0.0,4.0306,4.0306,4.0535,4.1285,4.2163,4.3037,4.3796,4.4685,4.5302,4.5302,4.6042,4.7188,4.8817,4.9767,5.0302,5.0302,5.0302,5.0302,5.0302,5.0302,5.0302,5.0302,5.106,5.1519,5.1519,5.3072,5.3951,5.4008,5.4861,5.5301,5.5301,5.5358,5.5396,5.5396,5.5396,5.5396,5.5396,5.5396,5.5396,5.5396,5.5396,5.5396,5.5396,5.5396,5.5396,5.5396,5.5396,5.5396,5.5396,0.0,0.0,0.0,0.0,0.0,0.0,0.0,0.0,0.0,0.0,0.0,0.0,0.0,0.0,0.0,0.0,0.0,0.0,0.0,0.0,0.0,0.0,0.0,0.0,0.0,3.0208,3.0303,3.0513,3.1369,3.2206,3.3024,3.3872,3.4617,3.5205,3.5205,3.5205,3.5205,3.5205,3.5205,3.5205,3.5205,3.5205,0.0,0.0,0.0,0.0,3.5205,3.5205,0.0,0.0,0.0,0.0,0.0,0.0,0.0,0.0,3.6787,3.7417,3.8892,0.0,4.0306,4.0306,4.0306,4.0306,0.0,0.0,0.0,0.0,0.0,0.0,0.0,4.18,4.287,4.3056,4.4322,4.5302,4.5302,4.6577,4.766,4.8061,4.9398,5.0302,5.0302,5.0302,5.0302,5.0302,5.0302,5.0302,5.0302,5.0493,5.0608,5.0608,5.1633,5.2474,5.3097,5.397,5.4409,5.4409,5.5072,5.5396,5.5396,5.5396,5.5396,5.5396,5.5396,5.5396,5.5396,5.5396,5.5396,5.5396,5.5396,5.5396,5.5396,5.5396,5.5396,5.5396,0.0,0.0,0.0,0.0,0.0,0.0,0.0,0.0,0.0,0.0,0.0,0.0,0.0,0.0,0.0,0.0,0.0,0.0,0.0,0.0,0.0,0.0,0.0,0.0,0.0,3.0208,3.0208,3.0208,3.1442,3.226,3.2734,3.3964,3.4789,3.5205,3.5205,3.4995,3.4674,3.5033,3.5205,3.5205,3.5205,0.0,0.0,0.0,0.0,0.0,3.5205,3.5205,0.0,3.5205,3.5205,3.5205,0.0,0.0,0.0,0.0,3.6194,3.6787,3.8056,3.9049,3.9809,4.021,4.0306,4.0306,4.0306,0.0,0.0,0.0,0.0,0.0,0.0,4.1662,4.2794,4.2794,4.4213,4.5436,4.5793,4.6972,4.7946,4.8353,4.9519,5.0302,5.0302,5.0302,5.0302,5.0302,5.0302,5.0302,5.0302,5.0302,5.0302,5.0302,5.0755,5.141,5.2251,5.3072,5.3492,5.3511,5.439,5.4811,5.4823,5.5224,5.5396,5.5396,5.5396,5.5396,5.5396,5.5396,5.5396,5.5396,5.5396,5.5396,5.5396,5.5396,5.5396,5.5396,0.0,0.0,0.0,0.0,0.0,0.0,0.0,0.0,0.0,0.0,0.0,0.0,0.0,0.0,0.0,0.0,0.0,0.0,0.0,0.0,0.0,0.0,0.0,0.0,3.0208,3.0208,3.0208,3.0208,3.1767,3.2585,3.2734,3.4288,3.5072,3.5205,3.5205,3.4827,3.4239,3.4904,3.5205,3.5205,3.5205,0.0,0.0,0.0,0.0,0.0,0.0,0.0,0.0,3.5205,3.5205,3.5205,3.5205,0.0,0.0,0.0,0.0,0.0,3.7292,3.8151,3.9045,4.0057,4.0306,4.0306,4.0306,0.0,0.0,0.0,0.0,0.0,0.0,4.1757,4.2832,4.2966,4.4289,4.5588,4.6385,4.7259,4.8118,4.8989,4.9805,5.0302,5.0302,5.0302,5.0302,5.0302,5.0302,5.0302,5.0302,5.0302,5.0302,5.0302,5.0302,5.0646,5.1385,5.2212,5.2614,5.2639,5.3492,5.3894,5.3932,5.4811,5.5205,5.5205,5.5339,5.5396,5.5396,5.5396,5.5396,5.5396,5.5396,5.532,5.5205,5.5205,5.5116,5.4995,0.0,0.0,0.0,0.0,0.0,0.0,0.0,0.0,0.0,0.0,0.0,0.0,0.0,0.0,0.0,0.0,0.0,0.0,0.0,0.0,0.0,0.0,0.0,3.0208,3.0208,3.0208,3.0208,3.0208,3.1197,3.2034,3.2714,3.3719,3.4541,3.5205,3.5205,3.5129,3.5014,3.5148,3.5205,3.5205,3.5205,0.0,0.0,0.0,0.0,0.0,0.0,0.0,0.0,3.5205,3.5205,3.5205,3.5205,0.0,0.0,0.0,0.0,0.0,3.6443,3.7287,3.8285,3.9904,4.0306,4.0306,4.0306,0.0,0.0,0.0,0.0,0.0,0.0,4.2125,4.3023,4.3706,4.4647,4.5588,4.6385,4.7259,4.8118,4.8989,4.9805,5.0302,5.0302,5.0302,5.0302,5.0302,5.0302,5.0302,5.0302,5.0302,5.0302,5.0302,5.0302,5.0359,5.0506,5.1347,5.1786,5.1786,5.2614,5.3002,5.304,5.3894,5.4295,5.4333,5.5072,5.5396,5.5396,5.5396,5.5396,5.5396,5.5396,5.4957,5.4295,5.4295,5.3836,5.3212,0.0,0.0,0.0,0.0,0.0,0.0,0.0,0.0,0.0,0.0,0.0,0.0,0.0,0.0,0.0,0.0,0.0,0.0,0.0,0.0,0.0,0.0,3.0208,3.0208,3.0208,3.0208,3.0437,3.0892,3.1748,3.2588,3.3414,3.4254,3.4617,3.456,3.5014,3.4961,3.4579,3.5014,3.5205,3.5205,0.0,0.0,0.0,0.0,0.0,0.0,0.0,0.0,0.0,0.0,3.5107,3.5205,3.5205,0.0,0.0,0.0,0.0,0.0,3.6252,3.7096,3.7999,3.9274,3.9943,4.0306,0.0,0.0,0.0,0.0,0.0,0.0,0.0,4.2202,4.3214,4.4494,4.5034,4.576,4.701,4.7545,4.8271,4.9595,5.0073,5.0302,5.0302,5.0302,5.0302,5.0302,5.0302,5.0302,5.0302,5.0302,5.0302,5.0302,5.0302,5.0302,5.0302,5.0703,5.0907,5.0907,5.1754,5.2155,5.2174,5.3015,5.3397,5.3416,5.3817,5.4008,5.4008,5.4008,5.4008,5.4008,5.4008,5.3741,5.3397,5.3397,5.3135,5.2811,0.0,0.0,0.0,0.0,0.0,0.0,0.0,0.0,0.0,0.0,0.0,0.0,0.0,0.0,0.0,0.0,0.0,0.0,0.0,0.0,3.0208,3.0208,3.0208,3.0208,3.0208,3.0208,3.0628,3.1503,3.2317,3.3238,3.4296,3.4904,3.4866,3.4315,3.4923,3.4866,3.4312,3.4897,3.5124,3.5119,0.0,0.0,0.0,0.0,0.0,0.0,0.0,0.0,0.0,0.0,0.0,0.0,0.0,0.0,0.0,3.5124,3.5124,3.5323,3.6243,3.7096,3.7903,3.8782,3.9656,0.0,0.0,0.0,0.0,0.0,0.0,0.0,4.1609,4.266,4.3806,4.5092,4.5302,4.5894,4.7564,4.7794,4.8424,5.0111,5.0302,5.0302,5.0302,5.0314,5.0314,5.0302,5.0325,5.0331,5.0302,5.0325,5.0337,5.0319,5.0337,5.0337,5.0319,5.0319,5.0314,5.0302,5.0984,5.1308,5.1328,5.2136,5.2518,5.2524,5.2715,5.2811,5.2811,5.2811,5.2811,5.2811,5.2811,5.2677,5.248,5.2289,5.2218,5.2218,0.0,0.0,0.0,0.0,0.0,0.0,0.0,0.0,0.0,0.0,0.0,0.0,0.0,0.0,0.0,0.0,0.0,0.0,0.0,0.0,3.0208,3.0208,3.0208,3.0208,3.0208,3.0208,3.0628,3.1503,3.2317,3.352,3.511,3.5167,3.5167,3.511,3.5167,3.5167,3.5102,3.4986,3.4912,3.4894,3.4658,0.0,0.0,0.0,0.0,0.0,0.0,0.0,0.0,0.0,0.0,0.0,0.0,0.0,3.4912,3.4912,3.4912,3.514,3.6209,3.7096,3.7903,3.8782,3.9656,0.0,4.0306,4.0306,0.0,4.0306,0.0,4.0783,4.2412,4.4041,4.5168,4.5283,4.5302,4.5894,4.7564,4.7794,4.8424,5.0111,5.0302,5.0302,5.0302,5.0367,5.0379,5.0302,5.0429,5.0421,5.0308,5.041,5.0462,5.0401,5.0457,5.0462,5.0396,5.0396,5.0354,5.0302,5.0359,5.0397,5.0417,5.1289,5.1691,5.1729,5.248,5.2811,5.2811,5.2811,5.2811,5.2811,5.2811,5.2346,5.1595,5.0779,5.0474,5.0474,0.0,0.0,0.0,0.0,0.0,0.0,0.0,0.0,0.0,0.0,0.0,0.0,0.0,0.0,0.0,0.0,0.0,0.0,0.0,0.0,3.0208,3.0208,3.0208,3.0208,3.0208,3.0208,3.0873,3.2241,3.3597,3.4575,3.5205,3.5072,3.5019,3.5014,3.4832,3.4755,3.4769,3.4689,3.4653,3.4648,3.454,3.4508,0.0,0.0,0.0,0.0,0.0,0.0,0.0,0.0,3.4879,3.4963,3.4724,3.4653,3.4679,3.4851,3.4908,3.5121,3.6205,3.7096,3.7903,3.8782,3.9656,0.0,0.0,4.0306,4.0306,4.0306,4.0306,4.0802,4.2488,4.4174,4.5302,4.5302,4.5302,4.5894,4.7564,4.7846,4.8485,5.0163,5.0407,5.0416,5.0416,5.0451,5.0457,5.044,5.0478,5.0484,5.044,5.0478,5.0489,5.0468,5.0489,5.0489,5.0468,5.0468,5.0457,5.0416,5.0376,5.0376,5.0435,5.0779,5.0913,5.0927,5.1193,5.131,5.131,5.131,5.1287,5.1257,5.1257,5.1066,5.076,5.0417,5.0302,5.0302,0.0,0.0,0.0,0.0,0.0,0.0,0.0,0.0,0.0,0.0,0.0,0.0,0.0,0.0,0.0,0.0,0.0,0.0,0.0,0.0,3.0208,3.0208,3.0208,3.0208,3.0208,3.0475,3.1293,3.2695,3.4327,3.5053,3.4972,3.4836,3.4773,3.4768,3.4577,3.4508,3.4508,3.4508,3.4508,3.4508,3.4508,3.4508,0.0,0.0,0.0,0.0,0.0,0.0,0.0,0.0,3.4627,3.4733,0.0,3.4416,3.4442,3.4708,3.4773,3.5078,3.6497,3.7273,3.798,3.9121,0.0,0.0,4.0306,4.0306,4.0306,4.0306,4.0726,4.1433,4.2584,4.4174,4.5302,4.5302,4.5302,4.5799,4.7182,4.7682,4.8427,4.9814,5.029,5.0505,5.0505,5.0516,5.0521,5.0505,5.0537,5.0542,5.0505,5.0537,5.0548,5.0527,5.0548,5.0548,5.0527,5.0527,5.0527,5.0527,5.0484,5.0478,5.0505,5.0505,5.0505,5.05,5.0457,5.0435,5.0435,5.0435,5.0393,5.0359,5.0359,5.0359,5.0359,5.0359,5.0359,5.0359,0.0,0.0,0.0,0.0,0.0,0.0,0.0,0.0,0.0,0.0,0.0,0.0,0.0,0.0,0.0,0.0,0.0,0.0,0.0,3.0208,3.0208,3.0208,3.0208,3.0208,3.0208,3.1064,3.1897,3.2714,3.4179,3.4763,3.4508,3.4502,3.4502,3.4502,3.4502,3.4502,3.4502,3.4502,3.4508,3.4508,3.4508,3.4508,3.4508,0.0,0.0,0.0,0.0,0.0,0.0,0.0,3.4502,3.4464,3.4256,0.0,3.4251,3.4437,3.4508,3.4971,3.7122,3.7697,3.8113,3.9866,0.0,0.0,4.0306,4.0306,4.0306,4.0306,4.1643,4.2794,4.2813,4.4174,4.5302,4.5302,4.5302,4.5588,4.6385,4.7318,4.8198,4.9015,4.9931,5.0505,5.0505,5.0553,5.0577,5.0511,5.0628,5.0643,5.0511,5.0633,5.0663,5.0603,5.0678,5.0663,5.0603,5.0598,5.0598,5.0598,5.0598,5.0572,5.0505,5.0505,5.0505,5.0505,5.0505,5.0505,5.0505,5.0505,5.0505,5.0505,5.0505,5.0505,5.0505,5.0505,5.0505,5.0505,0.0,0.0,0.0,0.0,0.0,0.0,0.0,0.0,0.0,0.0,0.0,0.0,0.0,0.0,0.0,0.0,0.0,0.0,0.0,3.0208,3.0208,3.0208,3.0208,3.0208,3.0208,3.1473,3.2528,3.3335,3.42,3.4572,3.4502,3.4354,3.4292,3.4292,3.4292,3.4292,3.4303,3.4437,3.4508,3.4508,3.4508,3.4508,3.4508,0.0,0.0,0.0,0.0,0.0,0.0,0.0,0.0,0.0,3.4004,0.0,3.3992,3.4386,3.4508,3.4971,3.7122,3.7697,3.8113,3.9866,4.0306,4.0306,0.0,4.0306,0.0,4.1036,4.203,4.2966,4.3534,4.4551,4.5302,4.5302,4.5302,4.5588,4.6385,4.735,4.828,4.9066,5.005,5.0643,5.0643,5.0653,5.0658,5.0643,5.0673,5.0678,5.0643,5.0673,5.0683,5.0663,5.0683,5.0683,5.0663,5.0663,5.0663,5.0663,5.0663,5.0653,5.0643,5.0643,5.0643,5.0638,5.0598,5.0577,5.0572,5.0516,5.0527,5.0572,5.0516,5.0505,5.0505,5.0505,5.0505,5.0505,0.0,0.0,0.0,0.0,0.0,0.0,0.0,0.0,0.0,0.0,2.7166,0.0,0.0,0.0,0.0,0.0,0.0,0.0,0.0,0.0,3.0072,3.0072,2.9992,3.028,3.094,3.1723,3.2695,3.3838,3.4206,3.4337,3.4219,3.4099,3.4099,3.4203,0.0,3.4203,3.4215,3.4409,3.4453,3.4394,3.447,3.4508,3.4508,0.0,0.0,0.0,0.0,0.0,0.0,0.0,0.0,0.0,3.3842,0.0,3.3883,3.437,3.4752,3.541,3.7213,3.7941,3.8557,3.9951,4.0295,4.03,4.0337,4.0328,4.0534,4.1399,4.2245,4.3087,4.3924,4.4771,4.535,4.535,4.535,4.5517,4.5995,4.6914,4.7832,4.8662,4.9601,5.0322,5.0668,5.0707,5.0707,5.0707,5.0707,5.0707,5.0707,5.0707,5.0707,5.0707,5.0707,5.0707,5.0707,5.0707,5.0707,5.0707,5.0707,5.0707,5.0707,5.0707,5.0707,5.0707,5.0653,5.0633,5.0633,5.0603,5.0608,5.0633,5.0603,5.0573,5.0573,5.0573,5.0573,5.0573,0.0,0.0,0.0,0.0,0.0,0.0,0.0,0.0,0.0,0.0,2.7307,2.8095,0.0,0.0,0.0,0.0,0.0,0.0,0.0,0.0,2.9872,2.9872,2.9698,3.0363,3.2037,3.1815,3.2515,3.4167,3.4167,3.4042,3.3807,0.0,3.3966,3.4203,0.0,3.4233,3.4233,3.4414,3.4381,3.4233,3.442,3.4491,3.4475,3.4475,0.0,0.0,0.0,0.0,0.0,0.0,0.0,0.0,3.3807,3.3827,3.3915,3.4375,3.513,3.6101,3.7379,3.8351,3.922,4.0092,4.0311,4.0325,4.0383,4.0366,4.0602,4.16,4.2395,4.3181,4.4135,4.4902,4.5405,4.5405,4.5405,4.5405,4.5405,4.6211,4.7084,4.7895,4.8827,4.9707,5.0495,5.0649,5.0707,5.0707,5.0707,5.0707,5.0707,5.0707,5.0707,5.0707,5.0707,5.0707,5.0707,5.0707,5.0707,5.0707,5.0707,5.0707,5.0707,5.0707,5.0707,5.0707,5.0707,5.0707,5.0707,5.0707,5.0707,5.0707,5.0707,5.0707,5.0707,5.0707,5.0707,5.0707,0.0,0.0,0.0,0.0,0.0,0.0,0.0,0.0,0.0,0.0,0.0,0.0,0.0,0.0,0.0,0.0,0.0,0.0,0.0,0.0,2.9667,2.9667,2.9626,3.029,3.1745,3.1727,3.2421,3.3881,3.3881,3.3867,0.0,0.0,0.0,3.4209,0.0,3.4431,3.4437,3.4486,3.4475,3.4437,3.4486,3.4416,3.4262,3.4262,3.4105,0.0,0.0,0.0,0.0,0.0,0.0,0.0,3.3807,3.394,3.416,3.442,3.5218,3.6291,3.747,3.8399,3.9293,4.0155,4.0375,4.0407,4.0458,4.0462,4.0871,4.2342,4.2778,4.3353,4.4868,4.529,4.5405,4.5405,4.5405,4.5405,4.5405,4.6211,4.6873,4.7065,4.8443,4.9471,4.9668,5.0303,5.0707,5.0707,5.0707,5.0707,5.0707,5.0707,5.0707,5.0707,5.0707,5.0707,5.0707,5.0707,5.0707,5.0707,5.0707,5.0707,5.0707,5.0707,5.0707,5.0707,5.0707,5.0707,5.0707,5.0707,5.0707,5.0707,5.0707,5.0707,5.0707,5.0707,5.0707,5.0707,0.0,0.0,0.0,0.0,0.0,0.0,0.0,0.0,0.0,0.0,0.0,0.0,0.0,0.0,0.0,0.0,0.0,0.0,0.0,0.0,0.0,0.0,2.9689,3.0409,3.1523,3.1936,3.268,3.3807,3.3927,0.0,0.0,0.0,0.0,3.4534,0.0,3.4508,3.4497,3.4405,3.4285,3.4153,3.4153,3.4093,3.4011,3.4011,3.3998,3.3992,3.3992,0.0,0.0,0.0,0.0,0.0,0.0,0.0,3.4388,3.4622,3.5663,3.6872,3.7606,3.8718,3.9793,4.0313,4.0443,4.0467,4.0491,4.0499,4.0972,4.2657,4.2998,4.3517,4.5192,4.5499,4.5499,4.5499,4.5499,4.5499,4.5499,4.5921,4.6372,4.6795,4.7645,4.8355,4.874,4.9183,4.9452,4.9452,4.9841,5.0072,5.0072,5.0476,5.0707,5.0707,5.0707,5.0707,5.0707,5.0707,5.0707,5.0707,5.0707,5.0707,5.0707,5.0707,5.0707,5.0707,5.0707,5.0707,5.0707,5.0707,5.0707,5.0707,5.0707,5.0707,5.0707,5.0707,5.0707,5.0707,0.0,0.0,0.0,0.0,0.0,0.0,0.0,0.0,0.0,0.0,0.0,0.0,0.0,0.0,0.0,0.0,0.0,0.0,0.0,0.0,0.0,0.0,2.9763,3.0577,3.1378,3.2185,3.3019,3.3862,0.0,0.0,0.0,0.0,0.0,3.4884,0.0,3.4545,3.4491,3.4292,3.4049,3.3807,3.3807,3.3834,3.3862,3.3862,3.4036,3.425,3.425,3.436,3.4508,3.4508,0.0,0.0,0.0,0.0,3.4641,3.4992,3.6217,3.7533,3.7921,3.9152,4.0351,4.0474,4.0507,4.0496,4.0496,4.0496,4.0954,4.2547,4.3008,4.3605,4.5282,4.5594,4.5594,4.5594,4.5594,4.5594,4.5594,4.5594,4.5879,4.6586,4.6812,4.7158,4.7832,4.8024,4.8101,4.8101,4.8779,4.9183,4.9183,4.9861,5.0245,5.0245,5.0245,5.0245,5.0245,5.0245,5.0245,5.0245,5.0245,5.0245,5.0265,5.0418,5.0553,5.0707,5.0707,5.0707,5.0707,5.0707,5.0707,5.0707,5.0707,5.0707,5.0707,5.0707,5.0707,5.0707,0.0,0.0,0.0,0.0,0.0,0.0,0.0,0.0,0.0,0.0,2.9283,2.9209,0.0,0.0,0.0,0.0,0.0,0.0,0.0,0.0,0.0,0.0,2.9763,3.0577,3.1378,3.2185,3.3116,3.4148,0.0,0.0,0.0,0.0,0.0,3.4908,0.0,3.4728,3.4491,3.4292,3.4049,3.3807,3.3807,3.394,3.4148,3.4148,3.4286,3.4459,3.4459,3.4481,3.4508,3.4508,3.4508,0.0,0.0,0.0,3.4988,3.5713,3.6768,3.7852,3.871,3.9683,4.0478,4.0492,4.0492,4.0496,4.0496,4.0496,4.0781,4.1773,4.2562,4.3605,4.5282,4.5594,4.5594,4.5594,4.5594,4.5594,4.5594,4.5594,4.5629,4.5763,4.6432,4.6947,4.7043,4.7697,4.8101,4.8101,4.8216,4.8274,4.8274,4.8375,4.8452,4.8452,4.8452,4.8452,4.8452,4.8452,4.8452,4.8452,4.8452,4.8452,4.8471,4.9221,4.9995,5.0707,5.0707,5.0707,5.0707,5.0707,5.0707,5.0707,5.0707,5.0707,5.0707,5.0707,5.0707,5.0707,0.0,0.0,0.0,0.0,0.0,0.0,0.0,0.0,0.0,0.0,0.0,2.9132,0.0,0.0,0.0,0.0,0.0,0.0,0.0,0.0,0.0,0.0,0.0,3.1256,3.2045,3.2871,3.3577,0.0,0.0,0.0,0.0,3.5019,3.5068,0.0,0.0,0.0,0.0,3.4292,3.4136,3.4023,3.4023,3.4166,3.4371,3.4371,3.4521,3.4714,3.4714,3.4807,3.4884,3.4884,3.4884,3.4884,3.4884,0.0,0.0,0.0,3.7321,3.8628,3.9563,4.0168,4.0495,4.0504,4.0496,4.0496,4.0496,4.0496,4.0743,4.1619,4.2485,4.3451,4.4648,4.5263,4.5594,4.5594,4.5594,4.5594,4.5594,4.5594,4.5594,4.5594,4.5936,4.6163,4.6163,4.649,4.6706,4.6706,4.7144,4.7428,4.7428,4.7851,4.8101,4.8101,4.8101,4.8101,4.8101,4.8101,4.8101,4.8101,4.8101,4.8101,4.8101,4.8509,4.9144,4.9995,5.0495,5.0707,5.0707,5.0707,5.0707,5.0707,5.0707,5.0707,5.0707,5.0707,5.0707,5.0707,0.0,0.0,0.0,0.0,0.0,0.0,0.0,0.0,0.0,0.0,0.0,0.0,0.0,0.0,0.0,0.0,0.0,0.0,0.0,0.0,0.0,0.0,0.0,0.0,3.2691,3.3489,0.0,0.0,0.0,0.0,3.4987,3.5124,3.5205,0.0,3.5046,3.4832,0.0,3.4446,3.4338,3.4274,3.4274,3.4405,3.4593,3.4593,3.4768,3.4982,3.4982,3.5072,3.5205,3.5205,3.5205,3.5244,3.5454,3.5984,0.0,0.0,0.0,3.9483,4.018,4.0428,4.0474,4.0503,4.0508,4.0496,4.0496,4.0496,4.0685,4.1335,4.2335,4.3278,4.3874,4.4878,4.5594,4.5594,4.5594,4.5594,4.5594,4.5594,4.5594,4.5594,4.5594,4.5594,4.5594,4.5594,4.5594,4.5594,4.6201,4.6567,4.6567,4.7144,4.7451,4.7451,4.7451,4.7451,4.7451,4.7451,4.7451,4.7451,4.7451,4.7451,4.7471,4.7697,4.8139,4.8817,4.9899,5.0495,5.0707,5.0707,5.0707,5.0707,5.0707,5.0707,5.0707,5.0707,5.0707,5.0707,0.0,0.0,0.0,0.0,0.0,0.0,0.0,0.0,0.0,0.0,0.0,0.0,0.0,0.0,2.8999,2.8999,2.8999,2.9317,3.0099,3.013,3.0503,3.1299,0.0,0.0,3.2972,3.377,0.0,0.0,0.0,0.0,3.5174,3.5201,3.5205,3.5205,3.5197,3.5072,3.4875,0.0,0.0,3.4486,3.4486,3.4643,3.4875,3.4875,3.5014,3.5174,3.5174,3.5197,3.5205,3.5205,3.5205,3.5339,3.6175,3.6462,3.6806,0.0,0.0,0.0,4.0293,4.0342,4.0424,4.0474,4.0503,4.0496,4.0496,4.0496,4.0516,4.0554,4.1916,4.3104,4.3143,4.4494,4.5594,4.5594,4.5594,4.5594,4.5594,4.5594,4.5594,4.5594,4.5594,4.5594,4.5594,4.5594,4.5594,4.5594,4.5629,4.5667,4.5667,4.5706,4.5725,4.5725,4.5725,4.5725,4.5725,4.5725,4.5725,4.5725,4.5725,4.5725,4.5763,4.6586,4.6985,4.712,4.8759,4.9938,5.0707,5.0707,5.0707,5.0707,5.0707,5.0707,5.0707,5.0707,5.0707,5.0707,0.0,0.0,0.0,0.0,0.0,0.0,0.0,0.0,0.0,0.0,0.0,0.0,0.0,2.8999,2.9207,2.9726,3.0246,3.065,3.095,3.0968,3.1329,3.213,3.2613,3.3136,3.3751,3.4176,0.0,0.0,0.0,3.501,3.5205,3.5205,3.5205,3.5205,3.5205,3.5089,3.4908,3.4908,3.4846,3.4758,3.4758,3.4884,3.5094,3.5094,3.5132,3.5209,3.5257,3.5593,3.6031,3.6026,3.6381,3.6852,3.7177,3.765,3.8338,3.9484,4.0061,4.0308,4.0353,4.04,4.047,4.0499,4.0504,4.0496,4.0496,4.0496,4.0496,4.0496,4.1431,4.2446,4.3008,4.4474,4.5594,4.5594,4.5594,4.5594,4.5594,4.5594,4.5594,4.5594,4.5594,4.5594,4.5594,4.5594,4.5594,4.5594,4.5594,4.5594,4.5594,4.5594,4.5594,4.5594,4.5594,4.5594,4.5594,4.5594,4.5594,4.5594,4.5594,4.5594,4.5614,4.5917,4.6374,4.6928,4.7524,4.8586,4.988,4.988,5.0207,5.0707,5.0707,5.0707,5.0707,5.0707,5.0707,5.0707,0.0,0.0,0.0,0.0,0.0,0.0,0.0,0.0,0.0,0.0,0.0,0.0,0.0,0.0,3.002,3.0558,3.1097,3.1519,3.1794,3.1806,3.2155,3.2974,3.326,3.3687,3.4285,3.4521,3.4744,0.0,0.0,0.0,0.0,3.5205,3.5205,3.5205,3.5205,3.5124,3.5005,3.5005,3.5005,3.5005,3.5005,3.5252,3.5645,3.5645,3.5797,3.6054,3.6119,3.6474,3.6935,3.6951,3.733,3.7821,3.8072,3.8757,3.9546,4.0133,4.0299,4.0316,4.0375,4.0445,4.0491,4.0503,4.0504,4.0496,4.0496,4.0496,4.0496,4.0496,4.1181,4.1985,4.2566,4.4028,4.5263,4.5556,4.5594,4.5594,4.5594,4.5594,4.5594,4.5594,4.5594,4.5594,4.5594,4.5594,4.5594,4.5594,4.5594,4.5594,4.5594,4.5594,4.5594,4.5594,4.5594,4.5594,4.5594,4.5594,4.5594,4.5594,4.5594,4.5594,4.5594,4.5594,4.5917,4.6471,4.6471,4.7413,4.899,4.9279,4.9745,5.0284,5.0592,5.0707,5.0707,5.0707,5.0707,5.0707,0.0,0.0,0.0,0.0,0.0,0.0,0.0,0.0,0.0,0.0,0.0,0.0,0.0,0.0,0.0,3.1433,3.147,3.1794,3.2583,3.2644,3.2974,3.377,3.4068,3.4309,3.4502,3.4768,3.4991,0.0,0.0,0.0,0.0,0.0,3.5205,3.5205,3.5205,3.5205,3.5205,3.5205,3.5205,3.5205,3.5224,3.5759,3.6504,3.6523,3.7024,3.7706,3.7787,3.7819,3.7846,3.7919,3.7954,3.8119,3.8893,3.9663,4.0296,4.0293,4.0307,4.032,0.0,0.0,0.0,4.0506,4.0499,4.0496,4.0496,4.0496,4.0496,4.0496,4.1162,4.1773,4.1793,4.3124,4.4513,4.5417,4.5575,4.5594,4.5594,4.5594,4.5594,4.5594,4.5594,4.5594,4.5594,4.5594,4.5594,4.5594,4.5594,4.5594,4.5594,4.5599,4.5599,4.5594,4.5603,4.5607,4.5603,4.5607,4.5607,4.5599,4.5599,4.5599,4.5594,4.5594,4.5594,4.5594,4.5594,4.6513,4.8082,4.8971,4.9356,4.9471,5.0322,5.0668,5.0707,5.0707,5.0707,5.0707,0.0,0.0,0.0,0.0,0.0,0.0,0.0,0.0,0.0,0.0,0.0,0.0,0.0,0.0,3.2277,3.2277,3.2797,3.322,3.3458,3.3476,3.3568,3.3788,3.4202,3.4442,3.4502,3.4908,3.5136,0.0,0.0,0.0,0.0,0.0,0.0,0.0,3.5205,3.5205,3.5205,3.5205,3.5205,3.5263,3.5893,3.6315,3.6639,3.7224,3.7613,3.7845,3.7862,3.8257,3.8754,3.8818,3.9192,3.9669,3.9907,4.0113,4.0308,4.0302,4.0375,4.0449,4.0481,0.0,0.0,0.0,0.0,0.0,4.0496,4.0496,4.0496,4.0496,4.0685,4.1046,4.1677,4.2177,4.297,4.4417,4.5186,4.5594,4.5594,4.5594,4.5594,4.5594,4.5594,4.5594,4.5594,4.5594,4.5594,4.5594,4.5594,4.5594,4.5594,4.5696,4.5708,4.5599,4.5731,4.5793,4.5742,4.579,4.579,4.5742,4.5742,4.57,4.5594,4.5594,4.5594,4.5594,4.5594,4.5859,4.636,4.724,4.8317,4.9413,4.9668,5.0149,5.0707,5.0707,5.0707,5.0707,0.0,0.0,0.0,0.0,0.0,0.0,0.0,0.0,0.0,0.0,0.0,0.0,0.0,0.0,0.0,3.3103,3.3532,3.3807,3.3807,3.3807,3.3807,3.3807,3.4249,3.4508,3.4508,3.4958,3.5205,0.0,0.0,0.0,0.0,0.0,0.0,0.0,0.0,0.0,3.574,3.574,3.574,3.5797,3.6334,3.6975,3.7697,3.8165,3.8593,3.8947,3.8973,3.9264,3.9657,3.9718,4.002,4.0379,4.0387,4.0363,4.0357,4.0379,4.0441,0.0,0.0,0.0,4.0496,4.0496,0.0,0.0,4.0496,4.0496,4.0496,4.0496,4.0496,4.0666,4.1162,4.1542,4.2119,4.3104,4.4263,4.5186,4.5556,4.5594,4.5594,4.5594,4.5594,4.5594,4.5594,4.5594,4.5594,4.5594,4.5594,4.5594,4.5594,4.5739,4.5764,4.5688,4.5821,4.5889,4.5835,4.5889,4.5886,4.5835,4.5835,4.5782,4.5684,4.5684,4.5643,4.5594,4.5594,4.5594,4.5633,4.6144,4.7144,4.8432,4.9125,4.9707,5.0207,5.0572,5.0707,5.0707,0.0,0.0,0.0,0.0,0.0,0.0,0.0,0.0,0.0,0.0,0.0,0.0,0.0,0.0,0.0,0.0,3.3835,3.3835,3.3835,3.3868,3.3881,3.3881,3.4307,3.4545,3.4545,3.4972,0.0,0.0,0.0,0.0,0.0,0.0,0.0,0.0,0.0,0.0,3.6519,3.6596,3.6695,3.678,3.685,3.7774,3.9104,3.9218,3.9734,4.0409,4.0474,4.0462,4.0417,4.048,4.0499,4.0502,4.0497,4.0449,4.0424,4.0489,4.0506,0.0,0.0,0.0,0.0,4.0496,4.0496,0.0,4.0496,4.0496,4.0496,4.0496,4.0496,4.0496,4.0496,4.1123,4.1696,4.1773,4.3047,4.4359,4.5321,4.5537,4.5594,4.5594,4.5594,4.5594,4.5594,4.5594,4.5594,4.5594,4.5594,4.5603,4.562,4.5746,4.5808,4.5808,4.5892,4.5932,4.592,4.5932,4.5932,4.592,4.592,4.5881,4.5808,4.5808,4.5746,4.5625,4.5625,4.5612,4.5594,4.5594,4.6105,4.7062,4.8644,4.9317,4.9514,5.038,5.0707,5.0707,3.1775,0.0,0.0,0.0,0.0,0.0,0.0,0.0,0.0,0.0,0.0,0.0,0.0,0.0,0.0,0.0,3.4124,3.4124,3.4124,3.4279,3.437,3.437,3.4653,3.4831,3.4831,3.5076,0.0,0.0,0.0,0.0,0.0,0.0,0.0,0.0,0.0,0.0,3.6538,3.7196,3.791,3.8599,3.8608,3.8806,3.9184,3.9935,4.0322,4.0488,4.05,4.0496,4.0484,4.0503,4.0491,4.0497,4.0437,4.0445,4.047,4.0502,4.0491,4.0504,4.0492,4.0496,4.0496,4.0496,4.0496,0.0,4.0496,4.0496,4.0496,4.0496,4.0496,4.0496,4.0496,4.0646,4.0973,4.1696,4.2062,4.2812,4.434,4.5167,4.5594,4.5594,4.5594,4.5594,4.5594,4.5594,4.5594,4.5594,4.5594,4.5658,4.5753,4.5838,4.5889,4.5889,4.6098,4.6174,4.6059,4.6174,4.6174,4.6057,4.6057,4.5992,4.5889,4.5889,4.5838,4.576,4.576,4.5704,4.5594,4.5594,4.6105,4.7005,4.7966,4.8779,4.9514,5.038,5.0707,5.0707,3.2794,0.0,0.0,0.0,0.0,0.0,0.0,0.0,0.0,0.0,0.0,0.0,0.0,0.0,0.0,0.0,0.0,0.0,0.0,0.0,3.4508,3.4508,3.4758,3.4908,3.4908,3.5098,0.0,0.0,0.0,0.0,0.0,0.0,0.0,0.0,0.0,0.0,3.7827,3.8229,3.8897,3.9665,3.9265,3.9376,3.9839,4.033,4.0496,4.0496,4.0496,4.0496,4.0508,4.0499,4.0499,4.0495,4.0452,4.0479,4.0499,4.0499,4.0496,4.0496,4.0496,4.0496,4.0496,4.0496,4.0496,0.0,0.0,4.0496,4.0496,4.0496,4.0496,4.0496,4.0496,4.0496,4.0646,4.1085,4.1523,4.2081,4.2927,4.4143,4.4955,4.4955,4.534,4.5594,4.5594,4.5594,4.5629,4.57,4.5704,4.5737,4.5844,4.5944,4.5998,4.5998,4.6205,4.6271,4.6207,4.6271,4.6271,4.6207,4.6207,4.6135,4.5998,4.5998,4.5933,4.5803,4.5803,4.5715,4.5594,4.5594,4.5859,4.6336,4.7178,4.8005,4.8856,4.9726,5.0322,5.0707,3.3821,0.0,0.0,0.0,0.0,0.0,0.0,0.0,0.0,0.0,0.0,0.0,0.0,3.4556,3.4556,0.0,0.0,0.0,3.4588,3.4629,3.4645,3.4634,3.4841,3.4964,3.4964,3.5115,0.0,0.0,0.0,0.0,0.0,0.0,0.0,0.0,0.0,0.0,3.9104,3.9276,3.9736,4.0281,3.9629,3.982,4.051,4.0496,4.0496,4.0496,4.0496,4.0496,4.0508,4.0491,4.0503,4.0496,4.0496,4.0496,4.0496,4.0496,4.0496,4.0496,4.0496,4.0496,4.0496,4.0496,4.0496,4.0496,0.0,0.0,0.0,4.0496,4.0496,4.0496,4.0496,4.0496,4.0496,4.0496,4.1085,4.1542,4.1542,4.2854,4.3874,4.4047,4.4686,4.5186,4.5321,4.5494,4.5667,4.5793,4.5803,4.5841,4.5928,4.6045,4.6107,4.6139,4.6244,4.6301,4.6301,4.6301,4.6301,4.6301,4.6301,4.6244,4.6139,4.6139,4.6042,4.5867,4.5867,4.577,4.5646,4.5646,4.5625,4.5686,4.6567,4.7293,4.7985,4.9029,4.9861,5.0476,3.5005,3.4899,0.0,0.0,0.0,0.0,0.0,0.0,0.0,0.0,0.0,3.4629,3.4837,3.4759,3.4749,3.493,3.4944,3.4925,3.4865,3.5079,3.5189,3.5128,3.5145,3.5176,3.5176,3.5197,0.0,0.0,0.0,0.0,0.0,0.0,0.0,0.0,3.8502,3.8916,3.9142,3.9923,4.0332,4.047,4.0378,4.0401,4.051,4.0496,4.0496,4.0496,4.0496,4.0496,4.0496,4.0508,4.0492,4.0496,4.0496,4.0496,4.0496,4.0496,4.0496,4.0496,4.0496,4.0496,4.0496,4.0496,4.0496,4.0496,4.0496,0.0,4.0496,4.0496,0.0,4.0496,4.0496,0.0,0.0,4.0496,4.0573,4.0646,4.0646,4.1489,4.2369,4.3143,4.3316,4.3662,4.4378,4.5148,4.5667,4.5793,4.5803,4.5882,4.6078,4.6095,4.6147,4.6273,4.6298,4.6301,4.6301,4.6301,4.6301,4.6301,4.6301,4.6298,4.6274,4.6274,4.6205,4.6072,4.6072,4.5951,4.5778,4.5778,4.5715,4.5686,4.6567,4.6966,4.7235,4.8817,4.9452,4.9668,3.5205,3.5128,0.0,0.0,0.0,0.0,0.0,0.0,0.0,0.0,0.0,3.4851,3.5043,3.5012,3.504,3.5161,3.517,3.5357,3.5798,3.5926,0.0,3.6623,3.6687,3.6718,3.6718,3.6751,3.6775,0.0,3.7179,0.0,0.0,0.0,0.0,0.0,3.9077,3.9484,3.9939,4.03,4.0466,4.0502,4.0502,4.0499,4.0507,4.0508,4.0496,4.0496,4.0496,4.0496,4.0496,4.0496,4.0496,4.0496,4.0496,4.0496,4.0496,4.0496,4.0496,4.0496,4.0496,4.0496,4.0496,4.0496,4.0496,4.0496,4.0496,4.0496,4.0496,4.0496,0.0,0.0,0.0,0.0,0.0,0.0,4.0496,4.0496,4.0496,4.0819,4.1373,4.2235,4.2797,4.3239,4.3566,4.3932,4.4438,4.5116,4.5153,4.5466,4.6189,4.6214,4.6243,4.63,4.6301,4.6301,4.6301,4.6301,4.6301,4.6301,4.6301,4.6301,4.6301,4.6301,4.6237,4.61,4.61,4.6011,4.5859,4.5822,4.5768,4.5735,4.6033,4.6451,4.7043,4.8221,4.8971,4.951,3.5205,0.0,0.0,0.0,0.0,0.0,0.0,0.0,3.4769,3.4987,3.5213,3.5432,3.559,3.5828,3.5982,3.6033,3.6033,3.6278,3.6845,3.6883,3.7131,3.774,3.7804,3.7821,3.7821,3.7877,3.7901,0.0,0.0,0.0,0.0,0.0,0.0,0.0,3.9627,3.9958,4.0503,4.0503,4.0503,4.0503,4.0503,4.0503,4.0496,4.0496,4.0496,4.0496,4.0496,4.0496,4.0496,4.0496,4.0496,4.0496,4.0496,4.0496,4.0496,4.0496,4.0496,4.0496,4.0496,4.0496,4.0496,4.0496,4.0496,4.0496,4.0496,4.0496,4.0496,4.0496,4.0496,0.0,0.0,0.0,4.0496,4.0496,0.0,4.0496,4.0496,4.0496,4.0723,4.1373,4.222,4.2739,4.2739,4.297,4.3423,4.4237,4.4532,4.5051,4.5851,4.6159,4.6301,4.6301,4.6301,4.6301,4.6301,4.6301,4.6301,4.6301,4.6301,4.6301,4.6301,4.6301,4.6245,4.6147,4.6147,4.6087,4.5957,4.5859,4.5822,4.5789,4.5643,4.5994,4.6644,4.7466,4.8317,4.9163,3.5205,3.5205,0.0,3.5205,3.5182,3.5197,3.5197,3.5174,3.5205,3.5273,3.6028,3.6569,3.663,3.7401,3.7904,3.7904,3.7908,3.7893,3.7855,3.7851,3.7874,3.7893,3.7893,3.7897,3.7897,3.7897,3.7897,3.7894,0.0,0.0,0.0,0.0,0.0,0.0,4.0458,4.0477,4.0492,4.0492,4.0492,4.0492,4.0492,4.0492,4.0496,4.0496,4.0496,4.0496,4.0496,4.0496,4.0496,4.0496,4.0496,4.0496,4.0496,4.0496,4.0496,4.0496,4.0496,4.0496,4.0496,4.0496,4.0496,4.0496,4.0496,4.0496,4.0496,4.0496,4.0496,4.0496,4.0496,4.0496,4.0496,4.0496,4.0496,4.0496,4.0496,0.0,0.0,4.0496,4.0516,4.0535,4.1316,4.185,4.185,4.26,4.3142,4.3234,4.4159,4.4733,4.484,4.5772,4.6301,4.6301,4.6301,4.6301,4.6301,4.6301,4.6301,4.6301,4.6301,4.6301,4.6301,4.6301,4.63,4.6299,4.6299,4.6214,4.6072,4.5942,4.5868,4.5789,4.5643,4.5614,4.5744,4.6624,4.7447,4.8274,0.0,0.0,3.525,3.5218,3.5205,3.5213,3.5265,3.5756,3.6124,3.6155,3.6922,3.7479,3.749,3.7755,3.7924,3.7932,3.7932,3.8174,3.8716,3.875,3.9003,3.9533,3.9605,3.9621,3.9621,3.9615,3.9615,3.9627,3.9919,0.0,0.0,0.0,0.0,0.0,4.0496,4.0496,4.0496,4.0496,4.0496,4.0496,4.0496,4.0858,4.1296,4.0723,4.0496,4.0496,4.0496,4.0496,4.0496,4.0496,4.0496,4.0496,4.0496,4.0496,4.0496,4.0496,4.0496,4.0496,4.0496,4.0496,4.0496,4.0496,4.0496,4.0496,4.0496,4.0496,4.0496,4.0496,4.0496,4.0496,4.0496,4.0496,4.0496,4.0496,4.0496,4.0496,0.0,4.0496,4.0496,4.0496,4.0762,4.0935,4.0935,4.1204,4.1687,4.2421,4.2782,4.3553,4.4851,4.5258,4.5695,4.6281,4.6301,4.6301,4.6301,4.6301,4.6301,4.6301,4.6301,4.6301,4.6301,4.6301,4.6301,4.6301,4.6301,4.6273,4.6216,4.6093,4.6022,4.5976,4.5808,4.5727,4.5827,4.6611,4.7408,4.8312,3.5289,3.5293,3.5293,3.5239,3.5483,3.5706,3.5752,3.6489,3.7053,3.7064,3.782,3.8366,3.8401,3.865,3.8816,3.882,3.882,3.9069,3.9623,3.9657,3.9895,4.0404,4.0471,4.0507,4.0507,4.05,4.0496,4.0496,4.0496,4.0496,0.0,0.0,0.0,0.0,4.0496,4.0496,4.0496,4.0496,4.0496,4.0496,4.0496,4.0839,4.1316,4.1066,4.0954,4.0916,4.0612,4.0496,4.0496,4.0496,4.0496,4.0496,4.0496,4.0496,4.0496,4.0496,4.0496,4.0496,4.0496,4.0496,4.0496,4.0496,4.0496,4.0496,4.0496,4.0496,4.0496,4.0496,4.0496,4.0496,4.0496,4.0496,4.0496,4.0496,4.0496,4.0496,0.0,4.0496,4.0496,4.0496,4.0496,4.0496,4.0496,4.0496,4.08,4.1546,4.1908,4.2677,4.3971,4.4652,4.5264,4.5812,4.6144,4.6301,4.6301,4.6301,4.6301,4.6301,4.6301,4.6301,4.6301,4.6301,4.6301,4.6301,4.6301,4.6301,4.6297,4.6168,4.61,4.6084,4.5876,4.5803,4.5844,4.629,4.7144,4.8293,3.5369,3.5408,3.5431,3.5431,3.6125,3.6661,3.6661,3.7417,3.7974,3.797,3.8727,3.9281,3.9354,4.0035,4.0496,4.0496,4.0496,4.0496,4.0496,4.0496,4.0496,4.0496,4.0496,4.0496,4.0496,4.0496,4.0496,4.0496,4.0496,4.0496,0.0,0.0,0.0,0.0,4.0496,4.0496,4.0496,4.0504,4.0531,4.0577,4.0577,4.0639,4.0793,4.157,4.1917,4.184,4.0951,4.0623,4.0623,4.0623,4.0623,4.0623,4.0631,4.0631,4.0612,4.0573,4.0554,4.0554,4.0516,4.0496,4.0496,4.0496,4.0496,4.0496,4.0496,4.0496,4.0496,4.0496,4.0496,4.0496,4.0496,4.0496,4.0496,4.0496,4.0496,4.0496,4.0496,4.0496,4.0496,4.0496,4.0496,4.0496,4.0496,4.0496,4.056,4.0687,4.1532,4.2101,4.2299,4.3934,4.4892,4.4933,4.5773,4.6242,4.6242,4.6281,4.6301,4.6301,4.6301,4.6301,4.6301,4.6301,4.6301,4.6301,4.6301,4.6301,4.6298,4.6152,4.6105,4.6091,4.5891,4.5817,4.5786,4.5697,4.6663,4.8159,3.6339,3.686,3.7305,3.7305,3.7456,3.7571,3.7571,3.8347,3.895,3.8939,3.9654,4.0177,4.0185,4.0381,4.0496,4.0496,4.0496,4.0496,4.0496,4.0496,4.0496,4.0496,4.0496,4.0496,4.0496,4.0496,4.0496,4.0496,4.0496,4.0496,4.0496,0.0,0.0,0.0,4.0496,4.0496,4.0504,4.0617,4.1057,4.169,4.169,4.2469,4.3574,4.3147,4.3397,4.3828,4.2857,4.2507,4.2507,4.2507,4.2507,4.2506,4.2456,4.2431,4.2316,4.1662,4.147,4.1316,4.0685,4.0496,4.0496,4.0496,4.0496,4.0496,4.0496,4.0496,4.0496,4.0496,4.0496,4.0496,4.0496,4.0496,4.0496,4.0496,4.0496,4.0496,4.0496,4.0496,4.0496,4.0496,4.0496,4.0496,4.0496,4.0496,4.056,4.0687,4.0924,4.1422,4.2258,4.2748,4.3301,4.4016,4.4875,4.5323,4.5323,4.5987,4.6301,4.6301,4.6301,4.6301,4.6301,4.6301,4.6301,4.6301,4.6301,4.6301,4.63,4.627,4.6245,4.6239,4.6078,4.5919,4.5863,4.6386,4.6831,4.7428,3.7263,3.7973,3.8569,3.8569,3.8878,3.9007,3.8602,3.9275,3.9846,3.9895,4.0249,4.0523,4.057,4.0596,4.0605,4.0627,4.0633,4.0633,4.0633,4.0633,4.0633,4.0633,4.0633,4.0633,4.0633,4.0633,4.0623,4.0596,4.0596,4.0564,4.0516,0.0,0.0,0.0,4.1474,4.1647,4.1639,4.174,4.2101,4.2599,4.2631,4.3253,0.0,4.4008,4.4261,4.4683,4.4515,4.3954,4.3291,4.3291,4.3291,4.3276,4.3237,4.323,4.3133,4.2631,4.2495,4.2385,4.1837,4.1414,4.1145,4.1089,4.0781,4.0496,4.0496,4.0496,4.0496,4.0496,4.0496,4.0496,4.0496,4.0496,4.0496,4.0496,4.0496,4.0496,4.0496,4.0496,4.0496,4.0496,4.0496,4.0496,4.0496,4.0496,4.056,4.0687,4.0697,4.1,4.1688,4.2088,4.2565,4.3117,4.3977,4.4601,4.4991,4.55,4.5929,4.6301,4.6301,4.6301,4.6301,4.6301,4.6301,4.6301,4.6305,4.6306,4.6306,4.6291,4.6309,4.6283,4.6149,4.5971,4.5851,4.6279,4.6613,4.7024,3.8332,3.8963,3.9525,3.9615,4.0313,4.0666,4.0028,4.0275,4.0626,4.0845,4.0777,4.0807,4.1025,4.1053,4.1078,4.1133,4.114,4.114,4.114,4.114,4.1082,4.0985,4.0966,4.0927,4.0808,4.0808,4.0817,4.0852,4.0852,4.0857,4.0862,0.0,0.0,0.0,4.2758,4.311,4.3142,4.3207,4.3304,4.3443,4.3566,4.3681,4.3858,4.4614,4.4906,4.5015,4.5827,4.5101,4.376,4.376,4.376,4.3758,4.3724,4.3739,4.37,4.3608,4.3571,4.351,4.3287,4.2714,4.2163,4.2036,4.1347,4.0711,4.0708,4.0604,4.0523,4.05,4.0496,4.0496,4.0496,4.0496,4.0496,4.0496,4.0496,4.0496,4.0496,4.0516,4.0519,4.0496,4.0516,0.0,4.0496,4.0496,4.0553,4.0662,4.0672,4.076,4.0951,4.1684,4.2146,4.2238,4.3079,4.3899,4.4659,4.4894,4.5382,4.6126,4.6244,4.6302,4.6304,4.6304,4.6304,4.6304,4.6292,4.6295,4.6295,4.63,4.6299,4.6291,4.6157,4.5998,4.5835,4.5815,4.6205,4.6775,4.0104,4.0399,4.0712,4.1262,4.1632,4.2056,4.2608,4.1581,4.1016,4.1762,4.1827,4.2096,4.2854,4.2934,4.2923,4.294,4.2942,4.2942,4.2942,4.2942,4.2629,4.1908,4.1869,4.1536,4.083,4.0808,4.1086,4.1699,4.1699,4.2012,4.2643,4.2797,4.2874,0.0,4.3028,4.3198,4.3352,4.3355,4.3871,4.4685,4.4713,4.5147,4.5812,4.5958,4.6019,4.6041,4.621,4.5984,4.5634,4.5634,4.5634,4.5603,4.5505,4.5458,4.5327,4.4674,4.4467,4.4309,4.3573,4.326,4.3153,4.313,4.2457,4.1809,4.1741,4.1187,4.0629,4.0523,4.0496,4.0496,4.0496,4.0496,4.0496,4.0496,4.0496,4.0496,4.0496,4.0607,4.0619,4.0512,4.0611,4.0615,4.0508,4.0496,4.0508,4.0534,4.0538,4.063,4.0824,4.0971,4.1142,4.1322,4.2162,4.2707,4.2844,4.4288,4.5073,4.5236,4.5959,4.6294,4.6299,4.6299,4.6299,4.6299,4.63,4.6301,4.6301,4.6301,4.6301,4.6298,4.6144,4.6089,4.602,4.5912,4.593,4.6076,4.1355,4.1813,4.2242,4.2572,4.2779,4.3027,4.3432,4.2826,4.243,4.2821,4.2816,4.2961,4.3453,4.3498,4.3514,4.3552,4.3556,4.3556,4.3556,4.3556,4.3361,4.2953,4.2934,4.2737,4.2307,4.2307,4.2464,4.2782,4.2782,4.2942,4.3266,4.3728,4.3921,4.394,4.4366,4.4611,4.47,4.4766,4.5108,4.5574,4.564,4.5922,4.6294,4.6297,4.6298,4.6298,4.6301,4.6252,4.6208,4.6208,4.6208,4.6185,4.612,4.6111,4.6035,4.5635,4.5521,4.5416,4.4936,4.4501,4.4159,4.4083,4.3419,4.2658,4.2159,4.1695,4.1245,4.0742,4.0568,4.0496,4.0496,4.0496,4.0523,4.0584,4.0595,4.0622,4.0655,4.0715,4.0732,4.0651,4.0718,4.0706,4.0612,4.0595,4.0595,4.0595,4.0542,4.0623,4.0888,4.0835,4.0892,4.1087,4.1518,4.1949,4.2402,4.3237,4.4119,4.5009,4.5435,4.5867,4.6301,4.6301,4.6301,4.6302,4.6304,4.6305,4.6305,4.6305,4.6305,4.6284,4.6231,4.6152,4.6086,4.6036,4.5944,4.5903,4.2428,4.2987,4.3514,4.3649,4.3808,4.3955,4.4116,4.4204,4.4162,4.3927,4.3817,4.3843,4.4132,4.4175,4.4193,4.4249,4.4251,4.4251,4.4251,4.4251,4.4173,4.3978,4.3978,4.39,4.3705,4.3705,4.3743,4.3859,4.3859,4.3783,4.3676,4.455,4.496,4.4985,4.5621,4.5928,4.5959,4.6063,4.6118,4.6154,4.6253,4.6301,4.6302,4.6303,4.6303,4.6303,4.6304,4.6304,4.6304,4.6304,4.6303,4.6301,4.6301,4.6301,4.6302,4.6303,4.6303,4.628,4.6178,4.5683,4.5168,4.5061,4.4373,4.3562,4.2844,4.2379,4.1889,4.1206,4.08,4.0565,4.0558,4.0554,4.0582,4.0684,4.0718,4.0724,4.0769,4.0796,4.0808,4.0808,4.0791,4.0753,4.0723,4.0687,4.0678,4.0714,4.0612,4.0652,4.0939,4.087,4.0885,4.1075,4.1077,4.1414,4.2105,4.2301,4.3089,4.4447,4.4639,4.5186,4.6011,4.6011,4.6128,4.6305,4.6307,4.6307,4.6307,4.6307,4.6307,4.6307,4.6305,4.6236,4.6133,4.6133,4.6059,4.5946,4.3463,4.3567,4.3862,4.4465,4.4743,4.5089,4.5759,4.5978,4.5772,4.4967,4.4866,4.5158,4.5963,4.6041,4.6043,4.6066,4.6066,4.6066,4.6066,4.6066,4.5695,4.4913,4.4874,4.4504,4.3724,4.3705,4.4015,4.4692,4.4692,4.461,4.4513,4.5375,4.5798,4.5784,4.586,4.5978,4.6078,4.6085,4.6173,4.6278,4.6281,4.6301,4.6302,4.6305,4.6306,4.6307,4.6308,4.6308,4.6308,4.6308,4.6307,4.6301,4.6301,4.6301,4.6302,4.6306,4.6306,4.6306,4.6286,4.6227,4.6167,4.6141,4.5495,4.4805,4.4674,4.3411,4.222,4.2023,4.1334,4.0771,4.0767,4.0762,4.0753,4.0712,4.0751,4.0766,4.073,4.0767,4.0808,4.0808,4.0743,4.0734,4.0786,4.0639,4.0593,4.0781,4.0712,4.0726,4.0817,4.0815,4.0857,4.0998,4.1001,4.1049,4.1122,4.1963,4.2471,4.2654,4.3435,4.4276,4.5117,4.5117,4.5547,4.6308,4.6308,4.6308,4.6308,4.6308,4.6308,4.6308,4.6308,4.6289,4.6288,4.6288,4.6199,4.6082,4.444,4.4884,4.5354,4.5606,4.5732,4.5884,4.618,4.6271,4.6163,4.5831,4.5773,4.5909,4.6262,4.6301,4.6301,4.6301,4.6301,4.6301,4.6301,4.6301,4.6144,4.5792,4.5773,4.5617,4.5266,4.5266,4.5397,4.5699,4.5691,4.5661,4.5627,4.5979,4.6143,4.6137,4.6137,4.617,4.6228,4.6213,4.6259,4.6305,4.6307,4.6307,4.6307,4.6308,4.6308,4.6308,4.6308,4.6308,4.6308,4.6308,4.6308,4.6307,4.6307,4.6307,4.6307,4.6308,4.6308,4.6308,4.6308,4.6308,4.6308,4.6307,4.6033,4.564,4.5086,4.3992,4.2936,4.2399,4.1546,4.0901,4.0805,4.0808,4.0815,4.0874,4.0906,4.0915,4.0933,4.0959,4.0975,4.0975,4.0953,4.093,4.091,4.0771,4.0706,4.0749,4.0633,4.063,4.0781,4.0808,4.0826,4.0882,4.0992,4.1041,4.0992,4.1418,4.1887,4.2402,4.2753,4.3651,4.5,4.5,4.5488,4.6308,4.6308,4.6308,4.6308,4.6308,4.6308,4.6308,4.6308,4.6308,4.6308,4.6308,4.6268,4.6224,4.5382,4.587,4.6301,4.6301,4.6301,4.6301,4.6301,4.6301,4.6301,4.6301,4.6301,4.6301,4.6301,4.6301,4.6301,4.6301,4.6301,4.6301,4.6301,4.6301,4.6301,4.6301,4.6301,4.6302,4.6304,4.6304,4.6309,4.6296,4.6291,4.6174,4.5925,4.5925,4.6045,4.6303,4.6303,4.6304,4.6305,4.6307,4.6308,4.6308,4.6308,4.6308,4.6308,4.6308,4.6308,4.6308,4.6308,4.6308,4.6308,4.6308,4.6308,4.6308,4.6308,4.6308,4.6308,4.6308,4.6308,4.6308,4.6308,4.6308,4.6308,4.6308,4.6308,4.6132,4.5526,4.4677,4.3708,4.2611,4.1679,4.0997,4.0901,4.0882,4.0907,4.0995,4.1011,4.1048,4.1069,4.1072,4.1072,4.1072,4.1028,4.0983,4.0992,4.0859,4.0778,4.0784,4.0652,4.0658,4.0781,4.0808,4.0822,4.087,4.0999,4.1053,4.1001,4.1073,4.1422,4.2051,4.205,4.2949,4.4648,4.5156,4.5723,4.6308,4.6308,4.6308,4.6308,4.6308,4.6308,4.6308,4.6308,4.6308,4.6308,4.6308,4.6308,4.6308,4.6281,4.6281,4.6301,4.6301,4.6301,4.6301,4.6301,4.6301,4.6301,4.6301,4.6301,4.6301,4.6301,4.6301,4.6301,4.6301,4.6301,4.6301,4.6301,4.6301,4.6301,4.6301,4.6301,4.6305,4.6293,4.6293,4.6296,4.6301,4.6301,4.5852,4.5012,4.5012,4.5483,4.6307,4.6307,4.6308,4.6308,4.6308,4.6308,4.6308,4.6308,4.6308,4.6308,4.6308,4.6308,4.6308,4.6308,4.6308,4.6308,4.6308,4.6308,4.6308,4.6308,4.6308,4.6308,4.6308,4.6308,4.6308,4.6308,4.6308,4.6308,4.6308,4.6308,4.6308,4.6289,4.5605,4.4492,4.2752,4.1717,4.1091,4.1107,4.1102,4.1088,4.1007,4.1069,4.1075,4.1003,4.0992,4.0992,4.0992,4.0825,4.0779,4.0979,4.0818,4.0779,4.0979,4.0878,4.0806,4.0808,4.0808,4.0853,4.0987,4.1009,4.1005,4.1001,4.1062,4.1132,4.1211,4.1211,4.209,4.3769,4.5508,4.6289,4.6308,4.6308,4.6308,4.6308,4.6308,4.6308,4.6308,4.6308,4.6308,4.6308,4.6308,4.6308,4.6308,4.6301,4.6305,4.6483,4.7081,4.7182,4.7361,4.7921,4.8042,4.8066,4.8007,4.8032,4.8074,4.8074,4.7011,4.6303,4.6309,4.6309,4.6292,4.6296,4.6296,4.6296,4.6296,4.6296,4.6297,4.6299,4.6299,4.6301,4.6305,4.6303,4.6166,4.5895,4.5895,4.6034,4.6308,4.6308,4.6308,4.6308,4.6308,4.6308,4.6308,4.6308,4.6308,4.6308,4.6308,4.6308,4.6308,4.6308,4.6308,4.6308,4.6308,4.6308,4.6308,4.6308,4.6308,4.6308,4.6308,4.6308,4.6308,4.6308,4.6308,4.6308,4.6308,4.6308,4.6308,4.6308,4.5625,4.4512,4.2752,4.2186,4.1794,4.1206,4.1106,4.1082,4.1068,4.1091,4.1091,4.1073,4.107,4.107,4.107,4.1004,4.0996,4.1068,4.0961,4.0922,4.1008,4.088,4.0808,4.0808,4.0885,4.0909,4.0879,4.1002,4.1048,4.0991,4.1064,4.1132,4.1191,4.1191,4.207,4.3769,4.5508,4.6308,4.6308,4.6308,4.6308,4.6308,4.6308,4.6308,4.6308,4.6308,4.6308,4.6308,4.6308,4.6308,4.6308,4.7267,4.7271,4.7448,4.7989,4.809,4.8267,4.8751,4.8871,4.8874,4.8835,4.8878,4.89,4.89,4.7937,4.7132,4.6824,4.6492,4.6298,4.6301,4.6301,4.6301,4.6301,4.6301,4.6302,4.6304,4.6304,4.6305,4.6308,4.6306,4.6307,4.6308,4.6308,4.6308,4.6308,4.6308,4.6308,4.6308,4.6308,4.6308,4.6308,4.6308,4.6308,4.6308,4.6308,4.6308,4.6308,4.6308,4.6308,4.6308,4.6308,4.6308,4.6308,4.6308,4.6308,4.6308,4.6308,4.6308,4.6308,4.6308,4.6308,4.6308,4.6308,4.6308,4.6308,4.6308,4.5625,4.4609,4.3183,4.2636,4.2147,4.1287,4.1129,4.1108,4.1103,4.1102,4.11,4.109,4.1091,4.1087,4.1069,4.1066,4.1066,4.1066,4.1016,4.1003,4.1044,4.0953,4.0912,4.0917,4.0965,4.0971,4.0917,4.1031,4.1086,4.1035,4.1109,4.1152,4.1211,4.1836,4.2851,4.4238,4.5644,4.6308,4.6308,4.6308,4.6308,4.6308,4.6308,4.6308,4.6308,4.6308,4.6308,4.6308,4.6308,4.6308,4.6308,4.8899,4.89,4.892,4.8978,4.8998,4.9017,4.9075,4.9076,4.9076,4.9076,4.9076,4.9076,4.9076,4.9018,4.8666,4.7845,4.6986,4.6459,4.6381,4.6381,4.6361,4.6303,4.6303,4.6304,4.6307,4.6307,4.6308,4.6308,4.6308,4.6308,4.6308,4.6308,4.6308,4.6308,4.6308,4.6308,4.6308,4.6308,4.6308,4.6308,4.6308,4.6308,4.6308,4.6308,4.6308,4.6308,4.6308,4.6308,4.6308,4.6308,4.6308,4.6308,4.6308,4.6308,4.6308,4.6308,4.6308,4.6308,4.6308,4.6308,4.6308,4.6308,4.6308,4.6308,4.6308,4.5664,4.4844,4.3965,4.3105,4.2246,4.1426,4.1191,4.1111,4.1108,4.1108,4.1105,4.1093,4.1096,4.1087,4.101,4.1001,4.1001,4.1019,4.1001,4.1025,4.1107,4.109,4.1093,4.1099,4.103,4.1047,4.1099,4.1109,4.1111,4.1111,4.1172,4.123,4.1308,4.293,4.416,4.5039,4.5898,4.6308,4.6308,4.6308,4.6308,4.6308,4.6308,4.6308,4.6308,4.6308,4.6308,4.6308,4.6308,4.6308,4.6308,4.8899,4.8902,4.9098,4.9719,4.9859,5.0094,5.0716,5.0816,5.0818,5.0818,5.0819,5.08,5.08,5.0253,4.9804,4.9609,4.8788,4.8006,4.7343,4.7285,4.6992,4.6328,4.6308,4.6308,4.6308,4.6308,4.6308,4.6308,4.6308,4.6308,4.6308,4.6308,4.6308,4.6308,4.6308,4.6308,4.6308,4.6308,4.6308,4.6308,4.6308,4.6308,4.6308,4.6308,4.6308,4.6308,4.6308,4.6308,4.6308,4.6308,4.6308,4.6308,4.6308,4.6308,4.6308,4.6308,4.6308,4.6308,4.6308,4.6308,4.6308,4.6308,4.6308,4.6308,4.6308,4.6133,4.5742,4.4863,4.4004,4.3125,4.2266,4.1601,4.1152,4.1111,4.1091,4.1109,4.1105,4.1105,4.1084,4.1076,4.1076,4.1073,4.1086,4.1072,4.1074,4.1109,4.1099,4.1102,4.1099,4.1082,4.1086,4.1109,4.1151,4.1172,4.1172,4.1191,4.1504,4.2129,4.3183,4.416,4.5039,4.5898,4.6308,4.6308,4.6308,4.6308,4.6308,4.6308,4.6308,4.6308,4.6308,4.6308,4.6308,4.6308,4.6308,4.6308,5.0037,5.0038,5.0175,5.0623,5.0721,5.0898,5.1326,5.1405,5.1406,5.1406,5.1406,5.1406,5.1406,5.1016,5.0742,5.0742,4.9629,4.8691,4.8223,4.8183,4.7812,4.6933,4.6894,4.6719,4.6308,4.6308,4.6308,4.6308,4.6308,4.6308,4.6308,4.6308,4.6308,4.6308,4.6308,4.6308,4.6308,4.6308,4.6308,4.6308,4.6308,4.6308,4.6308,4.6308,4.6308,4.6308,4.6308,4.6308,4.6308,4.6308,4.6308,4.6308,4.6308,4.6308,4.6308,4.6308,4.6308,4.6308,4.6308,4.6308,4.6308,4.6308,4.6308,4.6308,4.6308,4.6308,4.6055,4.5176,4.4316,4.3437,4.2558,4.1738,4.1172,4.1112,4.1132,4.1131,4.1108,4.1108,4.1109,4.1107,4.1107,4.1106,4.1103,4.1106,4.1105,4.11,4.1104,4.1107,4.1106,4.111,4.1092,4.1092,4.1172,4.1191,4.1191,4.1562,4.2168,4.3008,4.3887,4.4746,4.5605,4.6074,4.6308,4.6308,4.6308,4.6308,4.6308,4.6308,4.6308,4.6308,4.6308,4.6308,4.6308,4.6308,4.6308,4.6308,5.1365,5.1364,5.1364,5.1364,5.1385,5.1386,5.1365,5.1385,5.1386,5.1364,5.1385,5.1386,5.1386,5.1386,5.1386,5.1406,5.0097,4.9218,4.9101,4.9101,4.8711,4.7832,4.7793,4.7383,4.6523,4.6367,4.6308,4.6308,4.6308,4.6308,4.6308,4.6308,4.6308,4.6308,4.6308,4.6308,4.6308,4.6308,4.6308,4.6308,4.6308,4.6308,4.6308,4.6308,4.6308,4.6308,4.6308,4.6308,4.6308,4.6308,4.6308,4.6308,4.6308,4.6308,4.6308,4.6308,4.6308,4.6308,4.6308,4.6308,4.6308,4.6308,4.6308,4.6308,4.6308,4.6308,4.6094,4.5351,4.4394,4.3476,4.2734,4.1836,4.1172,4.1112,4.1152,4.1172,4.1129,4.1111,4.1111,4.1129,4.1129,4.1109,4.1108,4.1108,4.1108,4.1107,4.1108,4.111,4.1092,4.1112,4.1112,4.1112,4.1172,4.1191,4.1191,4.1992,4.2832,4.3711,4.457,4.5469,4.6308,4.6308,4.6308,4.6308,4.6308,4.6308,4.6308,4.6308,4.6308,4.6308,4.6308,4.6308,4.6308,4.6308,4.6308,4.6308,5.1239,5.1237,5.1237,5.1237,5.128,5.1294,5.1247,5.1282,5.1294,5.1245,5.1283,5.1325,5.1325,5.1325,5.1335,5.1406,5.1105,5.0652,5.0039,5.0,4.9609,4.873,4.8691,4.8281,4.7422,4.668,4.6308,4.6308,4.6308,4.6308,4.6308,4.6308,4.6308,4.6308,4.6308,4.6308,4.6308,4.6308,4.6308,4.6308,4.6308,4.6308,4.6308,4.6308,4.6308,4.6308,4.6308,4.6308,4.6308,4.6308,4.6308,4.6308,4.6308,4.6308,4.6308,4.6308,4.6308,4.6308,4.6308,4.6308,4.6308,4.6308,4.6308,4.6308,4.6308,4.6308,4.6269,4.6133,4.4824,4.3652,4.3516,4.2246,4.1191,4.1191,4.1191,4.1191,4.1191,4.1172,4.1172,4.1172,4.1172,4.1152,4.1111,4.1152,4.1151,4.1108,4.1151,4.1152,4.1092,4.1152,4.1172,4.1172,4.1191,4.1191,4.1191,4.1992,4.2832,4.3711,4.457,4.5469,4.6308,4.6308,4.6308,4.6308,4.6308,4.6308,4.6308,4.6308,4.6308,4.6308,4.6308,4.6308,4.6308,4.6308,4.6308,4.6308,5.1201,5.1201,5.1201,5.1201,5.1232,5.1242,5.1207,5.1232,5.1242,5.1207,5.1234,5.1253,5.1253,5.1253,5.1265,5.129,5.127,5.1109,5.0763,5.0815,5.0469,4.9648,4.9609,4.9199,4.832,4.7441,4.6992,4.6992,4.6523,4.6308,4.6308,4.6308,4.6308,4.6308,4.6308,4.6308,4.6308,4.6308,4.6308,4.6308,4.6308,4.6308,4.6308,4.6308,4.6308,4.6308,4.6308,4.6308,4.6308,4.6308,4.6308,4.6308,4.6308,4.6308,4.6308,4.6308,4.6308,4.6308,4.6308,4.6308,4.6308,4.6308,4.6308,4.6308,4.6308,4.6308,4.6308,4.6308,4.5293,4.4258,4.3789,4.2676,4.1699,4.1269,4.1191,4.1191,4.1191,4.1191,4.1191,4.1191,4.1191,4.1191,4.1152,4.1172,4.1191,4.1151,4.1172,4.1191,4.1152,4.1172,4.1191,4.1191,4.1191,4.1406,4.1836,4.2676,4.3535,4.4414,4.5273,4.5918,4.6308,4.6308,4.6308,4.6308,4.6308,4.6308,4.6308,4.6308,4.6308,4.6308,4.6308,4.6308,4.6308,4.6308,4.6308,4.6308,5.1135,5.1135,5.1135,5.1135,5.1156,5.1163,5.114,5.1156,5.1163,5.114,5.1156,5.117,5.117,5.117,5.1178,5.1199,5.1183,5.1181,5.1201,5.1294,5.1087,5.0462,5.025,4.9843,4.9219,4.8359,4.7891,4.7891,4.7226,4.6797,4.6601,4.6601,4.6484,4.6308,4.6308,4.6308,4.6308,4.6308,4.6308,4.6308,4.6308,4.6308,4.6308,4.6308,4.6308,4.6308,4.6308,4.6308,4.6308,4.6308,4.6308,4.6308,4.6308,4.6308,4.6308,4.6308,4.6308,4.6308,4.6308,4.6308,4.6308,4.6308,4.6308,4.6308,4.6308,4.6308,4.6308,4.6308,4.5605,4.4805,4.4121,4.3125,4.2207,4.1582,4.1328,4.1191,4.1191,4.1191,4.1191,4.1191,4.1191,4.1191,4.1191,4.1191,4.1191,4.1191,4.1191,4.1191,4.1191,4.1387,4.1562,4.1777,4.1582,4.1875,4.2695,4.3574,4.4336,4.5019,4.5879,4.6308,4.6308,4.6308,4.6308,4.6308,4.6308,4.6308,4.6308,4.6308,4.6308,4.6308,4.6308,4.6308,4.6308,4.6308,4.6308,4.6308,5.0917,5.0917,5.0917,5.0917,5.1014,5.1075,5.094,5.1037,5.1053,5.0936,5.104,5.1117,5.1117,5.1117,5.1122,5.1195,5.114,5.1124,5.1197,5.1213,5.1181,5.1122,5.0418,5.0045,5.0098,4.9258,4.8808,4.8808,4.873,4.8301,4.75,4.75,4.707,4.6308,4.6308,4.6308,4.6308,4.6308,4.6308,4.6308,4.6308,4.6308,4.6308,4.6308,4.6308,4.6308,4.6308,4.6308,4.6308,4.6308,4.6308,4.6308,4.6308,4.6308,4.6308,4.6308,4.6308,4.6308,4.6308,4.6308,4.6308,4.6308,4.6308,4.6308,4.6308,4.6308,4.6308,4.6308,4.5605,4.498,4.4922,4.3535,4.2383,4.2324,4.1699,4.1191,4.1191,4.1191,4.1191,4.1191,4.1191,4.1191,4.1191,4.1191,4.1191,4.1191,4.1191,4.1191,4.1191,4.1914,4.2676,4.3496,4.2734,4.2734,4.3594,4.4473,4.4941,4.5019,4.5879,4.6308,4.6308,4.6308,4.6308,4.6308,4.6308,4.6308,4.6308,4.6308,4.6308,4.6308,4.6308,4.6308,4.6308,4.6308,4.6308,4.6308,5.0898,5.0898,5.0898,5.0898,5.0932,5.0951,5.091,5.0932,5.0951,5.091,5.0936,5.0972,5.0972,5.0972,5.0993,5.1011,5.0984,5.0997,5.1011,5.1089,5.1159,5.1199,5.0917,5.0769,5.0829,4.9969,4.9535,4.9577,4.903,4.8647,4.8418,4.8418,4.7949,4.7109,4.7109,4.6816,4.6308,4.6308,4.6308,4.6308,4.6308,4.6308,4.6308,4.6308,4.6308,4.6308,4.6308,4.6308,4.6308,4.6308,4.6308,4.6308,4.6308,4.6308,4.6308,4.6308,4.6308,4.6308,4.6308,4.6308,4.6308,4.6308,4.6308,4.6308,4.6308,4.6308,4.6308,4.6308,4.6035,4.5644,4.5098,4.4453,4.3848,4.3281,4.2949,4.2754,4.2754,4.2285,4.1933,4.1933,4.1504,4.1406,4.1894,4.1933,4.2168,4.2715,4.2754,4.2754,4.2754,4.3047,4.3613,4.4473,4.4199,4.418,4.4492,4.4824,4.5273,4.5801,4.6133,4.6308,4.6308,4.6308,4.6308,4.6308,4.6308,4.6308,4.6308,4.6308,4.6308,4.6308,4.6308,4.6308,4.6308,4.6308,4.6308,4.6308,5.0898,5.0898,5.0898,5.0898,5.0898,5.0898,5.0898,5.0898,5.0898,5.0898,5.0898,5.0898,5.0898,5.0898,5.0898,5.0898,5.0898,5.0898,5.0898,5.0983,5.1097,5.1197,5.1174,5.1172,5.1201,5.0615,5.0329,5.0374,4.9788,4.9402,4.9254,4.9254,4.8807,4.8008,4.8008,4.7676,4.7109,4.6816,4.6719,4.668,4.6406,4.6308,4.6308,4.6308,4.6308,4.6308,4.6308,4.6308,4.6308,4.6308,4.6308,4.6308,4.6308,4.6308,4.6308,4.6308,4.6308,4.6308,4.6308,4.6308,4.6308,4.6308,4.6308,4.6308,4.6308,4.6308,4.6308,4.6308,4.6308,4.6113,4.5527,4.5176,4.4805,4.4219,4.3887,4.3691,4.3691,4.3183,4.2812,4.2812,4.2324,4.2207,4.2754,4.2812,4.3066,4.3652,4.3691,4.3828,4.4082,4.4101,4.4512,4.5371,4.541,4.541,4.541,4.541,4.5703,4.6308,4.6308,4.6308,4.6308,4.6308,4.6308,4.6308,4.6308,4.6308,4.6308,4.6308,4.6308,4.6308,4.6308,4.6308,4.6308,4.6308,4.6308,4.6308,5.0898,5.0898,5.0898,5.0898,5.0898,5.0898,5.0898,5.0898,5.0898,5.0898,5.0898,5.0898,5.0898,5.0898,5.0898,5.0898,5.0898,5.0898,5.0898,5.0898,5.0982,5.1193,5.1124,5.1136,5.1197,5.1199,5.1199,5.1201,5.1201,5.0791,5.0007,5.0007,4.9615,4.8906,4.8906,4.8906,4.8848,4.7988,4.7617,4.7539,4.666,4.6308,4.6308,4.6308,4.6308,4.6308,4.6308,4.6308,4.6308,4.6308,4.6308,4.6308,4.6308,4.6308,4.6308,4.6308,4.6308,4.6308,4.6308,4.6308,4.6308,4.6308,4.6308,4.6308,4.6308,4.6308,4.6308,4.6308,4.6308,4.6308,4.6308,4.5586,4.5019,4.5019,4.4277,4.3711,4.3711,4.3711,4.3711,4.3711,4.3691,4.3691,4.3711,4.3711,4.3711,4.3711,4.3711,4.4101,4.4961,4.5019,4.541,4.6269,4.6308,4.6308,4.6308,4.6308,4.6308,4.6308,4.6308,4.6308,4.6308,4.6308,4.6308,4.6308,4.6308,4.6308,4.6308,4.6308,4.6308,4.6308,4.6308,4.6308,4.6308,4.6308,4.6308,4.6308,5.0898,5.0898,5.0898,5.0898,5.0898,5.0898,5.0898,5.0898,5.0898,5.0898,5.0898,5.0898,5.0898,5.0898,5.0898,5.0898,5.0898,5.0898,5.0898,5.0898,5.0925,5.0998,5.0976,5.0976,5.0998,5.0982,5.1049,5.1136,5.1136,5.1035,5.0846,5.089,5.0463,4.9672,4.9764,4.9473,4.8887,4.8613,4.8516,4.8437,4.7558,4.7207,4.7148,4.6523,4.6308,4.6308,4.6308,4.6308,4.6308,4.6308,4.6308,4.6308,4.6308,4.6308,4.6308,4.6308,4.6308,4.6308,4.6308,4.6308,4.6308,4.6308,4.6308,4.6308,4.6308,4.6308,4.6308,4.6308,4.6308,4.6308,4.6308,4.6094,4.5918,4.5918,4.5683,4.5527,4.5527,4.5,4.4609,4.4609,4.4062,4.3945,4.4551,4.4609,4.4863,4.5488,4.5527,4.5644,4.5898,4.5918,4.6035,4.6289,4.6308,4.6308,4.6308,4.6308,4.6308,4.6308,4.6308,4.6308,4.6308,4.6308,4.6308,4.6308,4.6308,4.6308,4.6308,4.6308,4.6308,4.6308,4.6308,4.6308,4.6308,4.6308,4.6308,4.6308,5.0898,5.0898,5.0898,5.0898,5.0898,5.0898,5.0898,5.0898,5.0898,5.0898,5.0898,5.0898,5.0898,5.0898,5.0898,5.0898,5.0898,5.0898,5.0898,5.0898,5.0898,5.0898,5.0898,5.0898,5.0898,5.0898,5.0948,5.102,5.102,5.1074,5.1167,5.1205,5.0948,5.0487,5.059,5.0346,4.9839,4.9531,4.9414,4.9336,4.8476,4.8105,4.8066,4.7539,4.7109,4.6816,4.6816,4.6582,4.6308,4.6308,4.6308,4.6308,4.6308,4.6308,4.6308,4.6308,4.6308,4.6308,4.6308,4.6308,4.6308,4.6308,4.6308,4.6308,4.6308,4.6308,4.6308,4.6308,4.6308,4.6308,4.6308,4.6308,4.6308,4.6308,4.6308,4.6308,4.6308,4.5859,4.5508,4.5508,4.5058,4.4941,4.5469,4.5508,4.5723,4.6269,4.6308,4.6308,4.6308,4.6308,4.6308,4.6308,4.6308,4.6308,4.6308,4.6308,4.6308,4.6308,4.6308,4.6308,4.6308,4.6308,4.6308,4.6308,4.6308,4.6308,4.6308,4.6308,4.6308,4.6308,4.6308,4.6308,4.6308,4.6308,4.6308,4.6308,5.0898,5.0898,5.0898,5.0898,5.0898,5.0898,5.0898,5.0898,5.0898,5.0898,5.0898,5.0898,5.0898,5.0898,5.0898,5.0898,5.0898,5.0898,5.0898,5.0898,5.0898,5.0898,5.0898,5.0898,5.0898,5.0898,5.0898,5.0898,5.0898,5.0958,5.1084,5.1096,5.1122,5.1193,5.1268,5.1291,5.1255,5.0581,5.0293,5.0214,4.9355,4.9023,4.9004,4.8926,4.8418,4.7715,4.7715,4.7168,4.6406,4.6328,4.6308,4.6308,4.6308,4.6308,4.6308,4.6308,4.6308,4.6308,4.6308,4.6308,4.6308,4.6308,4.6308,4.6308,4.6308,4.6308,4.6308,4.6308,4.6308,4.6308,4.6308,4.6308,4.6308,4.6308,4.6308,4.6308,4.6308,4.6308,4.6308,4.6308,4.6308,4.6308,4.6308,4.6308,4.6308,4.6308,4.6308,4.6308,4.6308,4.6308,4.6308,4.6308,4.6308,4.6308,4.6308,4.6308,4.6308,4.6308,4.6308,4.6308,4.6308,4.6308,4.6308,4.6308,4.6308,4.6308,4.6308,4.6308,4.6308,4.6308,4.6308,4.6308,4.6308,4.6308,4.6308,4.6308,5.0898,5.0898,5.0898,5.0898,5.0898,5.0898,5.0898,5.0898,5.0898,5.0898,5.0898,5.0898,5.0898,5.0898,5.0898,5.0898,5.0898,5.0898,5.0898,5.0898,5.0898,5.0898,5.0898,5.0898,5.0898,5.0898,5.0898,5.0898,5.0898,5.0917,5.0955,5.1053,5.1117,5.1128,5.1191,5.1227,5.1213,5.1116,5.1054,5.0998,5.0233,4.9922,4.9844,4.916,4.8789,4.8613,4.8613,4.8066,4.7207,4.6523,4.6308,4.6308,4.6308,4.6308,4.6308,4.6308,4.6308,4.6308,4.6308,4.6308,4.6308,4.6308,4.6308,4.6308,4.6308,4.6308,4.6308,4.6308,4.6308,4.6308,4.6308,4.6308,4.6308,4.6308,4.6308,4.6308,4.6308,4.6308,4.6308,4.6308,4.6308,4.6308,4.6308,4.6308,4.6308,4.6308,4.6308,4.6308,4.6308,4.6308,4.6308,4.6308,4.6308,4.6308,4.6308,4.6308,4.6308,4.6308,4.6308,4.6308,4.6308,4.6308,4.6308,4.6308,4.6308,4.6308,4.6308,4.6308,4.6308,4.6308,4.6308,4.6308,4.6308,4.6308,4.6308,4.6308,5.0898,5.0898,5.0898,5.0898,5.0898,5.0898,5.0898,5.0898,5.0898,5.0898,5.0898,5.0898,5.0898,5.0898,5.0898,5.0898,5.0898,5.0898,5.0898,5.0898,5.0898,5.0898,5.0898,5.0898,5.0898,5.0898,5.0898,5.0898,5.0898,5.0898,5.0902,5.0969,5.1004,5.101,5.1103,5.1155,5.1159,5.1211,5.1259,5.1226,5.0861,5.0715,5.0677,5.0253,4.9844,4.9512,4.9512,4.8965,4.8086,4.7207,4.6914,4.6855,4.6426,4.6308,4.6308,4.6308,4.6308,4.6308,4.6308,4.6308,4.6308,4.6308,4.6308,4.6308,4.6308,4.6308,4.6308,4.6308,4.6308,4.6308,4.6308,4.6308,4.6308,4.6308,4.6308,4.6308,4.6308,4.6308,4.6308,4.6308,4.6308,4.6308,4.6308,4.6308,4.6308,4.6308,4.6308,4.6308,4.6308,4.6308,4.6308,4.6308,4.6308,4.6308,4.6308,4.6308,4.6308,4.6308,4.6308,4.6308,4.6308,4.6308,4.6308,4.6308,4.6308,4.6308,4.6308,4.6308,4.6308,4.6308,4.6308,4.6308,4.6308,4.6308,4.6308,4.6308,5.0898,5.0898,5.0898,5.0898,5.0898,5.0898,5.0898,5.0898,5.0898,5.0898,5.0898,5.0898,5.0898,5.0898,5.0898,5.0898,5.0898,5.0898,5.0898,5.0898,5.0898,5.0898,5.0898,5.0898,5.0898,5.0898,5.0898,5.0898,5.0898,5.0898,5.0898,5.0898,5.0898,5.0906,5.1017,5.1069,5.1078,5.1157,5.1178,5.1189,5.1273,5.1297,5.1301,5.1365,5.0996,5.041,5.041,4.9844,4.8984,4.8125,4.7812,4.7676,4.6797,4.6523,4.6484,4.6348,4.6308,4.6308,4.6308,4.6308,4.6308,4.6308,4.6308,4.6308,4.6308,4.6308,4.6308,4.6308,4.6308,4.6308,4.6308,4.6308,4.6308,4.6308,4.6308,4.6308,4.6308,4.6308,4.6308,4.6308,4.6308,4.6308,4.6308,4.6308,4.6308,4.6308,4.6308,4.6308,4.6308,4.6308,4.6308,4.6308,4.6308,4.6308,4.6308,4.6308,4.6308,4.6308,4.6308,4.6308,4.6308,4.6308,4.6308,4.6308,4.6308,4.6308,4.6308,4.6308,4.6308,4.6308,4.6308,4.6308,4.6308,4.6308,4.6308,4.6308,5.0898,5.0898,5.0898,5.0898,5.0898,5.0898,5.0898,5.0898,5.0898,5.0898,5.0898,5.0898,5.0898,5.0898,5.0898,5.0898,5.0898,5.0898,5.0898,5.0898,5.0898,5.0898,5.0898,5.0898,5.0898,5.0898,5.0898,5.0898,5.0898,5.0898,5.0898,5.0898,5.0898,5.0902,5.0921,5.0933,5.0944,5.1053,5.1109,5.1128,5.1256,5.1297,5.1301,5.1365,5.1328,5.123,5.123,5.0703,4.9883,4.9023,4.8711,4.8574,4.7695,4.7422,4.7285,4.6523,4.6308,4.6308,4.6308,4.6308,4.6308,4.6308,4.6308,4.6308,4.6308,4.6308,4.6308,4.6308,4.6308,4.6308,4.6308,4.6308,4.6308,4.6308,4.6308,4.6308,4.6308,4.6308,4.6308,4.6308,4.6308,4.6308,4.6308,4.6308,4.6308,4.6308,4.6308,4.6308,4.6308,4.6308,4.6308,4.6308,4.6308,4.6308,4.6308,4.6308,4.6308,4.6308,4.6308,4.6308,4.6308,4.6308,4.6308,4.6308,4.6308,4.6308,4.6308,4.6308,4.6308,4.6308,4.6308,4.6308,4.6308,4.6308,4.6308,4.6308,5.0898,5.0898,5.0898,5.0898,5.0898,5.0898,5.0898,5.0898,5.0898,5.0898,5.0898,5.0898,5.0898,5.0898,5.0898,5.0898,5.0898,5.0898,5.0898,5.0898,5.0898,5.0898,5.0898,5.0898,5.0898,5.0898,5.0898,5.0898,5.0898,5.0898,5.0898,5.0898,5.0898,5.0898,5.0898,5.0898,5.0906,5.0958,5.0986,5.1004,5.113,5.1214,5.1258,5.1327,5.1364,5.1406,5.1406,5.1172,5.0742,4.9902,4.9629,4.9473,4.8594,4.832,4.8144,4.7285,4.7031,4.6914,4.6426,4.6308,4.6308,4.6308,4.6308,4.6308,4.6308,4.6308,4.6308,4.6308,4.6308,4.6308,4.6308,4.6308,4.6308,4.6308,4.6308,4.6308,4.6308,4.6308,4.6308,4.6308,4.6308,4.6308,4.6308,4.6308,4.6308,4.6308,4.6308,4.6308,4.6308,4.6308,4.6308,4.6308,4.6308,4.6308,4.6308,4.6308,4.6308,4.6308,4.6308,4.6308,4.6308,4.6308,4.6308,4.6308,4.6308,4.6308,4.6308,4.6308,4.6308,4.6308,4.6308,4.6308,4.6308,4.6308,4.6308,4.6308]}]]